<?xml version="1.0" encoding="UTF-8" standalone="no" ?>
<gpx xmlns="http://www.topografix.com/GPX/1/1" xmlns:xsi="http://www.w3.org/2001/XMLSchema-instance" xsi:schemaLocation="http://www.topografix.com/GPX/1/1 http://www.topografix.com/GPX/1/1/gpx.xsd" version="1.1" creator="VisuGPX - https://www.visugpx.com">
  <metadata>
    <name>Les mines de St Paul le Jeune</name>
    <desc><![CDATA[Une randonnée dans un ancien secteur minier au nord d'Ales avec sur le parcours : lavoir, cascade, chemins caladés et moussus, le viaduc de Dolovy, des vestiges d'entrée de mines (pas assez mises en évidence et manques d'historique) forêt très agréable et pour finir le retour à St Paul par le long tunnel sur voie verte.]]></desc>
  </metadata>
  <wpt lat="44.34042" lon="4.15083">
    <ele>319</ele>
    <name><![CDATA[]]></name>
    <type><![CDATA[GENERIC]]></type>
  </wpt>
  <wpt lat="44.34048" lon="4.15105">
    <ele>314</ele>
    <name><![CDATA[]]></name>
    <type><![CDATA[GENERIC]]></type>
  </wpt>
  <trk>
    <name><![CDATA[Randonnée du 11/04/2025 à 09:26]]></name>
    <trkseg>
      <trkpt lat="44.34048" lon="4.15105">
        <ele>314</ele>
        <time>2025-04-11T07:26:38.000Z</time>
      </trkpt>
      <trkpt lat="44.34048" lon="4.15107">
        <ele>314</ele>
        <time>2025-04-11T07:26:39.000Z</time>
      </trkpt>
      <trkpt lat="44.34047" lon="4.15115">
        <ele>314</ele>
        <time>2025-04-11T07:27:50.000Z</time>
      </trkpt>
      <trkpt lat="44.34052" lon="4.1511">
        <ele>313</ele>
        <time>2025-04-11T07:28:28.000Z</time>
      </trkpt>
      <trkpt lat="44.34059" lon="4.15109">
        <ele>312</ele>
        <time>2025-04-11T07:32:36.000Z</time>
      </trkpt>
      <trkpt lat="44.34052" lon="4.15113">
        <ele>312</ele>
        <time>2025-04-11T07:32:50.000Z</time>
      </trkpt>
      <trkpt lat="44.34044" lon="4.15111">
        <ele>312</ele>
        <time>2025-04-11T07:32:58.000Z</time>
      </trkpt>
      <trkpt lat="44.34036" lon="4.15114">
        <ele>311</ele>
        <time>2025-04-11T07:33:50.000Z</time>
      </trkpt>
      <trkpt lat="44.34026" lon="4.15113">
        <ele>311</ele>
        <time>2025-04-11T07:34:14.000Z</time>
      </trkpt>
      <trkpt lat="44.34017" lon="4.1511">
        <ele>310</ele>
        <time>2025-04-11T07:34:24.000Z</time>
      </trkpt>
      <trkpt lat="44.34008" lon="4.15105">
        <ele>310</ele>
        <time>2025-04-11T07:34:56.000Z</time>
      </trkpt>
      <trkpt lat="44.33999" lon="4.15104">
        <ele>310</ele>
        <time>2025-04-11T07:35:06.000Z</time>
      </trkpt>
      <trkpt lat="44.33991" lon="4.15106">
        <ele>309</ele>
        <time>2025-04-11T07:35:34.000Z</time>
      </trkpt>
      <trkpt lat="44.33984" lon="4.15114">
        <ele>308</ele>
        <time>2025-04-11T07:35:45.000Z</time>
      </trkpt>
      <trkpt lat="44.33978" lon="4.15122">
        <ele>308</ele>
        <time>2025-04-11T07:35:58.000Z</time>
      </trkpt>
      <trkpt lat="44.33971" lon="4.15117">
        <ele>307</ele>
        <time>2025-04-11T07:36:13.000Z</time>
      </trkpt>
      <trkpt lat="44.33969" lon="4.15107">
        <ele>306</ele>
        <time>2025-04-11T07:36:32.000Z</time>
      </trkpt>
      <trkpt lat="44.33975" lon="4.1511">
        <ele>306</ele>
        <time>2025-04-11T07:37:16.000Z</time>
      </trkpt>
      <trkpt lat="44.33977" lon="4.15103">
        <ele>307</ele>
        <time>2025-04-11T07:37:28.000Z</time>
      </trkpt>
      <trkpt lat="44.33978" lon="4.15111">
        <ele>308</ele>
        <time>2025-04-11T07:37:48.000Z</time>
      </trkpt>
      <trkpt lat="44.33983" lon="4.1511">
        <ele>310</ele>
        <time>2025-04-11T07:38:00.000Z</time>
      </trkpt>
      <trkpt lat="44.33979" lon="4.15103">
        <ele>310</ele>
        <time>2025-04-11T07:38:38.000Z</time>
      </trkpt>
      <trkpt lat="44.33977" lon="4.15113">
        <ele>310</ele>
        <time>2025-04-11T07:39:18.000Z</time>
      </trkpt>
      <trkpt lat="44.33971" lon="4.15122">
        <ele>309</ele>
        <time>2025-04-11T07:39:22.000Z</time>
      </trkpt>
      <trkpt lat="44.33966" lon="4.15127">
        <ele>308</ele>
        <time>2025-04-11T07:39:30.000Z</time>
      </trkpt>
      <trkpt lat="44.33969" lon="4.15121">
        <ele>307</ele>
        <time>2025-04-11T07:40:00.000Z</time>
      </trkpt>
      <trkpt lat="44.33964" lon="4.15113">
        <ele>307</ele>
        <time>2025-04-11T07:40:16.000Z</time>
      </trkpt>
      <trkpt lat="44.33955" lon="4.15109">
        <ele>306</ele>
        <time>2025-04-11T07:40:24.000Z</time>
      </trkpt>
      <trkpt lat="44.33946" lon="4.15101">
        <ele>306</ele>
        <time>2025-04-11T07:40:33.000Z</time>
      </trkpt>
      <trkpt lat="44.3394" lon="4.15093">
        <ele>306</ele>
        <time>2025-04-11T07:40:41.000Z</time>
      </trkpt>
      <trkpt lat="44.33933" lon="4.15084">
        <ele>306</ele>
        <time>2025-04-11T07:40:51.000Z</time>
      </trkpt>
      <trkpt lat="44.33926" lon="4.15075">
        <ele>306</ele>
        <time>2025-04-11T07:41:02.000Z</time>
      </trkpt>
      <trkpt lat="44.33919" lon="4.15067">
        <ele>305</ele>
        <time>2025-04-11T07:41:10.000Z</time>
      </trkpt>
      <trkpt lat="44.33911" lon="4.15061">
        <ele>304</ele>
        <time>2025-04-11T07:41:18.000Z</time>
      </trkpt>
      <trkpt lat="44.33902" lon="4.15057">
        <ele>303</ele>
        <time>2025-04-11T07:41:29.000Z</time>
      </trkpt>
      <trkpt lat="44.33893" lon="4.15054">
        <ele>302</ele>
        <time>2025-04-11T07:41:37.000Z</time>
      </trkpt>
      <trkpt lat="44.33884" lon="4.15048">
        <ele>301</ele>
        <time>2025-04-11T07:41:45.000Z</time>
      </trkpt>
      <trkpt lat="44.33876" lon="4.15041">
        <ele>301</ele>
        <time>2025-04-11T07:41:53.000Z</time>
      </trkpt>
      <trkpt lat="44.33867" lon="4.15036">
        <ele>301</ele>
        <time>2025-04-11T07:42:01.000Z</time>
      </trkpt>
      <trkpt lat="44.33859" lon="4.15033">
        <ele>301</ele>
        <time>2025-04-11T07:42:07.000Z</time>
      </trkpt>
      <trkpt lat="44.33849" lon="4.15028">
        <ele>300</ele>
        <time>2025-04-11T07:42:15.000Z</time>
      </trkpt>
      <trkpt lat="44.33841" lon="4.15021">
        <ele>299</ele>
        <time>2025-04-11T07:42:22.000Z</time>
      </trkpt>
      <trkpt lat="44.33833" lon="4.15013">
        <ele>299</ele>
        <time>2025-04-11T07:42:33.000Z</time>
      </trkpt>
      <trkpt lat="44.33833" lon="4.15002">
        <ele>299</ele>
        <time>2025-04-11T07:42:57.000Z</time>
      </trkpt>
      <trkpt lat="44.33834" lon="4.1499">
        <ele>299</ele>
        <time>2025-04-11T07:43:07.000Z</time>
      </trkpt>
      <trkpt lat="44.33836" lon="4.14979">
        <ele>299</ele>
        <time>2025-04-11T07:43:40.000Z</time>
      </trkpt>
      <trkpt lat="44.33842" lon="4.14972">
        <ele>299</ele>
        <time>2025-04-11T07:44:23.000Z</time>
      </trkpt>
      <trkpt lat="44.33842" lon="4.1496">
        <ele>299</ele>
        <time>2025-04-11T07:44:57.000Z</time>
      </trkpt>
      <trkpt lat="44.33847" lon="4.14948">
        <ele>299</ele>
        <time>2025-04-11T07:45:05.000Z</time>
      </trkpt>
      <trkpt lat="44.33848" lon="4.14936">
        <ele>300</ele>
        <time>2025-04-11T07:45:13.000Z</time>
      </trkpt>
      <trkpt lat="44.33848" lon="4.14924">
        <ele>301</ele>
        <time>2025-04-11T07:45:33.000Z</time>
      </trkpt>
      <trkpt lat="44.33852" lon="4.14913">
        <ele>301</ele>
        <time>2025-04-11T07:45:50.000Z</time>
      </trkpt>
      <trkpt lat="44.33854" lon="4.149">
        <ele>302</ele>
        <time>2025-04-11T07:46:39.000Z</time>
      </trkpt>
      <trkpt lat="44.33857" lon="4.14887">
        <ele>302</ele>
        <time>2025-04-11T07:46:49.000Z</time>
      </trkpt>
      <trkpt lat="44.33861" lon="4.14875">
        <ele>303</ele>
        <time>2025-04-11T07:47:05.000Z</time>
      </trkpt>
      <trkpt lat="44.33865" lon="4.14862">
        <ele>303</ele>
        <time>2025-04-11T07:47:20.000Z</time>
      </trkpt>
      <trkpt lat="44.3387" lon="4.14849">
        <ele>303</ele>
        <time>2025-04-11T07:47:33.000Z</time>
      </trkpt>
      <trkpt lat="44.33872" lon="4.14837">
        <ele>304</ele>
        <time>2025-04-11T07:48:08.000Z</time>
      </trkpt>
      <trkpt lat="44.33873" lon="4.14823">
        <ele>304</ele>
        <time>2025-04-11T07:48:25.000Z</time>
      </trkpt>
      <trkpt lat="44.33871" lon="4.14812">
        <ele>305</ele>
        <time>2025-04-11T07:48:45.000Z</time>
      </trkpt>
      <trkpt lat="44.33877" lon="4.14802">
        <ele>307</ele>
        <time>2025-04-11T07:49:05.000Z</time>
      </trkpt>
      <trkpt lat="44.3388" lon="4.14791">
        <ele>308</ele>
        <time>2025-04-11T07:49:25.000Z</time>
      </trkpt>
      <trkpt lat="44.3388" lon="4.14782">
        <ele>310</ele>
        <time>2025-04-11T07:49:53.000Z</time>
      </trkpt>
      <trkpt lat="44.33887" lon="4.14787">
        <ele>311</ele>
        <time>2025-04-11T07:50:21.000Z</time>
      </trkpt>
      <trkpt lat="44.33897" lon="4.14791">
        <ele>313</ele>
        <time>2025-04-11T07:55:42.000Z</time>
      </trkpt>
      <trkpt lat="44.3391" lon="4.14796">
        <ele>315</ele>
        <time>2025-04-11T07:56:42.000Z</time>
      </trkpt>
      <trkpt lat="44.33917" lon="4.1479">
        <ele>316</ele>
        <time>2025-04-11T07:58:28.000Z</time>
      </trkpt>
      <trkpt lat="44.33919" lon="4.14777">
        <ele>317</ele>
        <time>2025-04-11T07:58:36.000Z</time>
      </trkpt>
      <trkpt lat="44.33923" lon="4.14765">
        <ele>317</ele>
        <time>2025-04-11T07:58:47.000Z</time>
      </trkpt>
      <trkpt lat="44.33928" lon="4.14754">
        <ele>317</ele>
        <time>2025-04-11T07:59:26.000Z</time>
      </trkpt>
      <trkpt lat="44.33931" lon="4.14742">
        <ele>317</ele>
        <time>2025-04-11T07:59:37.000Z</time>
      </trkpt>
      <trkpt lat="44.33933" lon="4.14728">
        <ele>316</ele>
        <time>2025-04-11T07:59:47.000Z</time>
      </trkpt>
      <trkpt lat="44.33936" lon="4.14716">
        <ele>315</ele>
        <time>2025-04-11T07:59:57.000Z</time>
      </trkpt>
      <trkpt lat="44.33938" lon="4.14701">
        <ele>314</ele>
        <time>2025-04-11T08:00:07.000Z</time>
      </trkpt>
      <trkpt lat="44.3394" lon="4.14688">
        <ele>313</ele>
        <time>2025-04-11T08:00:17.000Z</time>
      </trkpt>
      <trkpt lat="44.33939" lon="4.14675">
        <ele>312</ele>
        <time>2025-04-11T08:00:25.000Z</time>
      </trkpt>
      <trkpt lat="44.33938" lon="4.14663">
        <ele>312</ele>
        <time>2025-04-11T08:00:35.000Z</time>
      </trkpt>
      <trkpt lat="44.33939" lon="4.14649">
        <ele>311</ele>
        <time>2025-04-11T08:00:47.000Z</time>
      </trkpt>
      <trkpt lat="44.33941" lon="4.14636">
        <ele>311</ele>
        <time>2025-04-11T08:00:55.000Z</time>
      </trkpt>
      <trkpt lat="44.33944" lon="4.14623">
        <ele>310</ele>
        <time>2025-04-11T08:01:05.000Z</time>
      </trkpt>
      <trkpt lat="44.3395" lon="4.14613">
        <ele>310</ele>
        <time>2025-04-11T08:01:13.000Z</time>
      </trkpt>
      <trkpt lat="44.33959" lon="4.14605">
        <ele>311</ele>
        <time>2025-04-11T08:01:23.000Z</time>
      </trkpt>
      <trkpt lat="44.33968" lon="4.14597">
        <ele>312</ele>
        <time>2025-04-11T08:01:33.000Z</time>
      </trkpt>
      <trkpt lat="44.33976" lon="4.14589">
        <ele>314</ele>
        <time>2025-04-11T08:01:41.000Z</time>
      </trkpt>
      <trkpt lat="44.33982" lon="4.14579">
        <ele>315</ele>
        <time>2025-04-11T08:01:49.000Z</time>
      </trkpt>
      <trkpt lat="44.33987" lon="4.14568">
        <ele>316</ele>
        <time>2025-04-11T08:01:56.000Z</time>
      </trkpt>
      <trkpt lat="44.33991" lon="4.14556">
        <ele>316</ele>
        <time>2025-04-11T08:02:05.000Z</time>
      </trkpt>
      <trkpt lat="44.33998" lon="4.14549">
        <ele>316</ele>
        <time>2025-04-11T08:02:11.000Z</time>
      </trkpt>
      <trkpt lat="44.34004" lon="4.1454">
        <ele>316</ele>
        <time>2025-04-11T08:02:21.000Z</time>
      </trkpt>
      <trkpt lat="44.34007" lon="4.14528">
        <ele>316</ele>
        <time>2025-04-11T08:02:31.000Z</time>
      </trkpt>
      <trkpt lat="44.34012" lon="4.14515">
        <ele>316</ele>
        <time>2025-04-11T08:02:41.000Z</time>
      </trkpt>
      <trkpt lat="44.34019" lon="4.14504">
        <ele>316</ele>
        <time>2025-04-11T08:02:49.000Z</time>
      </trkpt>
      <trkpt lat="44.34024" lon="4.14493">
        <ele>316</ele>
        <time>2025-04-11T08:02:57.000Z</time>
      </trkpt>
      <trkpt lat="44.34031" lon="4.14483">
        <ele>316</ele>
        <time>2025-04-11T08:03:06.000Z</time>
      </trkpt>
      <trkpt lat="44.34038" lon="4.14475">
        <ele>317</ele>
        <time>2025-04-11T08:03:17.000Z</time>
      </trkpt>
      <trkpt lat="44.34047" lon="4.14471">
        <ele>317</ele>
        <time>2025-04-11T08:03:25.000Z</time>
      </trkpt>
      <trkpt lat="44.34057" lon="4.14468">
        <ele>318</ele>
        <time>2025-04-11T08:03:35.000Z</time>
      </trkpt>
      <trkpt lat="44.34066" lon="4.14466">
        <ele>319</ele>
        <time>2025-04-11T08:03:43.000Z</time>
      </trkpt>
      <trkpt lat="44.34075" lon="4.14464">
        <ele>320</ele>
        <time>2025-04-11T08:03:49.000Z</time>
      </trkpt>
      <trkpt lat="44.34083" lon="4.14457">
        <ele>321</ele>
        <time>2025-04-11T08:03:57.000Z</time>
      </trkpt>
      <trkpt lat="44.34086" lon="4.14448">
        <ele>321</ele>
        <time>2025-04-11T08:04:37.000Z</time>
      </trkpt>
      <trkpt lat="44.34093" lon="4.1445">
        <ele>321</ele>
        <time>2025-04-11T08:05:47.000Z</time>
      </trkpt>
      <trkpt lat="44.34096" lon="4.1444">
        <ele>322</ele>
        <time>2025-04-11T08:07:02.000Z</time>
      </trkpt>
      <trkpt lat="44.34096" lon="4.14428">
        <ele>322</ele>
        <time>2025-04-11T08:08:23.000Z</time>
      </trkpt>
      <trkpt lat="44.34104" lon="4.14421">
        <ele>322</ele>
        <time>2025-04-11T08:08:33.000Z</time>
      </trkpt>
      <trkpt lat="44.3411" lon="4.14412">
        <ele>323</ele>
        <time>2025-04-11T08:08:45.000Z</time>
      </trkpt>
      <trkpt lat="44.34112" lon="4.14399">
        <ele>324</ele>
        <time>2025-04-11T08:08:59.000Z</time>
      </trkpt>
      <trkpt lat="44.34114" lon="4.14386">
        <ele>325</ele>
        <time>2025-04-11T08:09:09.000Z</time>
      </trkpt>
      <trkpt lat="44.34115" lon="4.14374">
        <ele>327</ele>
        <time>2025-04-11T08:09:29.000Z</time>
      </trkpt>
      <trkpt lat="44.34117" lon="4.14363">
        <ele>328</ele>
        <time>2025-04-11T08:10:02.000Z</time>
      </trkpt>
      <trkpt lat="44.34122" lon="4.14353">
        <ele>330</ele>
        <time>2025-04-11T08:10:09.000Z</time>
      </trkpt>
      <trkpt lat="44.34127" lon="4.14343">
        <ele>331</ele>
        <time>2025-04-11T08:10:17.000Z</time>
      </trkpt>
      <trkpt lat="44.34131" lon="4.14331">
        <ele>333</ele>
        <time>2025-04-11T08:10:30.000Z</time>
      </trkpt>
      <trkpt lat="44.34135" lon="4.1432">
        <ele>335</ele>
        <time>2025-04-11T08:10:43.000Z</time>
      </trkpt>
      <trkpt lat="44.34139" lon="4.14306">
        <ele>337</ele>
        <time>2025-04-11T08:10:55.000Z</time>
      </trkpt>
      <trkpt lat="44.34143" lon="4.14294">
        <ele>338</ele>
        <time>2025-04-11T08:11:07.000Z</time>
      </trkpt>
      <trkpt lat="44.34146" lon="4.14282">
        <ele>339</ele>
        <time>2025-04-11T08:11:24.000Z</time>
      </trkpt>
      <trkpt lat="44.34151" lon="4.14272">
        <ele>342</ele>
        <time>2025-04-11T08:11:37.000Z</time>
      </trkpt>
      <trkpt lat="44.34152" lon="4.14259">
        <ele>343</ele>
        <time>2025-04-11T08:11:58.000Z</time>
      </trkpt>
      <trkpt lat="44.34154" lon="4.14247">
        <ele>345</ele>
        <time>2025-04-11T08:12:09.000Z</time>
      </trkpt>
      <trkpt lat="44.34152" lon="4.14236">
        <ele>345</ele>
        <time>2025-04-11T08:12:27.000Z</time>
      </trkpt>
      <trkpt lat="44.34147" lon="4.14229">
        <ele>346</ele>
        <time>2025-04-11T08:13:11.000Z</time>
      </trkpt>
      <trkpt lat="44.3415" lon="4.14219">
        <ele>347</ele>
        <time>2025-04-11T08:13:55.000Z</time>
      </trkpt>
      <trkpt lat="44.34145" lon="4.1421">
        <ele>348</ele>
        <time>2025-04-11T08:14:17.000Z</time>
      </trkpt>
      <trkpt lat="44.34137" lon="4.14209">
        <ele>351</ele>
        <time>2025-04-11T08:15:25.000Z</time>
      </trkpt>
      <trkpt lat="44.34128" lon="4.14207">
        <ele>353</ele>
        <time>2025-04-11T08:15:57.000Z</time>
      </trkpt>
      <trkpt lat="44.34122" lon="4.14199">
        <ele>356</ele>
        <time>2025-04-11T08:16:04.000Z</time>
      </trkpt>
      <trkpt lat="44.34113" lon="4.14196">
        <ele>358</ele>
        <time>2025-04-11T08:16:16.000Z</time>
      </trkpt>
      <trkpt lat="44.34103" lon="4.14197">
        <ele>359</ele>
        <time>2025-04-11T08:16:29.000Z</time>
      </trkpt>
      <trkpt lat="44.34094" lon="4.14198">
        <ele>360</ele>
        <time>2025-04-11T08:16:42.000Z</time>
      </trkpt>
      <trkpt lat="44.34095" lon="4.14187">
        <ele>360</ele>
        <time>2025-04-11T08:19:11.000Z</time>
      </trkpt>
      <trkpt lat="44.34097" lon="4.14174">
        <ele>361</ele>
        <time>2025-04-11T08:19:23.000Z</time>
      </trkpt>
      <trkpt lat="44.34101" lon="4.14163">
        <ele>361</ele>
        <time>2025-04-11T08:19:33.000Z</time>
      </trkpt>
      <trkpt lat="44.34108" lon="4.14152">
        <ele>362</ele>
        <time>2025-04-11T08:19:45.000Z</time>
      </trkpt>
      <trkpt lat="44.34116" lon="4.14145">
        <ele>362</ele>
        <time>2025-04-11T08:19:55.000Z</time>
      </trkpt>
      <trkpt lat="44.34125" lon="4.14142">
        <ele>362</ele>
        <time>2025-04-11T08:20:03.000Z</time>
      </trkpt>
      <trkpt lat="44.34134" lon="4.1414">
        <ele>362</ele>
        <time>2025-04-11T08:20:11.000Z</time>
      </trkpt>
      <trkpt lat="44.34141" lon="4.14132">
        <ele>362</ele>
        <time>2025-04-11T08:20:21.000Z</time>
      </trkpt>
      <trkpt lat="44.34147" lon="4.14122">
        <ele>363</ele>
        <time>2025-04-11T08:20:32.000Z</time>
      </trkpt>
      <trkpt lat="44.3415" lon="4.1411">
        <ele>363</ele>
        <time>2025-04-11T08:20:43.000Z</time>
      </trkpt>
      <trkpt lat="44.34151" lon="4.14098">
        <ele>364</ele>
        <time>2025-04-11T08:20:59.000Z</time>
      </trkpt>
      <trkpt lat="44.3415" lon="4.14085">
        <ele>364</ele>
        <time>2025-04-11T08:21:08.000Z</time>
      </trkpt>
      <trkpt lat="44.34153" lon="4.14072">
        <ele>365</ele>
        <time>2025-04-11T08:21:19.000Z</time>
      </trkpt>
      <trkpt lat="44.34159" lon="4.1406">
        <ele>365</ele>
        <time>2025-04-11T08:21:29.000Z</time>
      </trkpt>
      <trkpt lat="44.34165" lon="4.1405">
        <ele>366</ele>
        <time>2025-04-11T08:21:38.000Z</time>
      </trkpt>
      <trkpt lat="44.3417" lon="4.14039">
        <ele>366</ele>
        <time>2025-04-11T08:21:48.000Z</time>
      </trkpt>
      <trkpt lat="44.34175" lon="4.14028">
        <ele>367</ele>
        <time>2025-04-11T08:21:57.000Z</time>
      </trkpt>
      <trkpt lat="44.34174" lon="4.14015">
        <ele>367</ele>
        <time>2025-04-11T08:22:05.000Z</time>
      </trkpt>
      <trkpt lat="44.34169" lon="4.14003">
        <ele>368</ele>
        <time>2025-04-11T08:22:13.000Z</time>
      </trkpt>
      <trkpt lat="44.34171" lon="4.13992">
        <ele>368</ele>
        <time>2025-04-11T08:22:23.000Z</time>
      </trkpt>
      <trkpt lat="44.34177" lon="4.1398">
        <ele>367</ele>
        <time>2025-04-11T08:22:30.000Z</time>
      </trkpt>
      <trkpt lat="44.34183" lon="4.13969">
        <ele>367</ele>
        <time>2025-04-11T08:22:40.000Z</time>
      </trkpt>
      <trkpt lat="44.34187" lon="4.13958">
        <ele>367</ele>
        <time>2025-04-11T08:22:49.000Z</time>
      </trkpt>
      <trkpt lat="44.34191" lon="4.13945">
        <ele>368</ele>
        <time>2025-04-11T08:22:58.000Z</time>
      </trkpt>
      <trkpt lat="44.34195" lon="4.13932">
        <ele>370</ele>
        <time>2025-04-11T08:23:08.000Z</time>
      </trkpt>
      <trkpt lat="44.34198" lon="4.13923">
        <ele>372</ele>
        <time>2025-04-11T08:23:16.000Z</time>
      </trkpt>
      <trkpt lat="44.34191" lon="4.13921">
        <ele>374</ele>
        <time>2025-04-11T08:23:36.000Z</time>
      </trkpt>
      <trkpt lat="44.34183" lon="4.13916">
        <ele>377</ele>
        <time>2025-04-11T08:23:45.000Z</time>
      </trkpt>
      <trkpt lat="44.34174" lon="4.13911">
        <ele>381</ele>
        <time>2025-04-11T08:23:58.000Z</time>
      </trkpt>
      <trkpt lat="44.34166" lon="4.13906">
        <ele>384</ele>
        <time>2025-04-11T08:24:12.000Z</time>
      </trkpt>
      <trkpt lat="44.3416" lon="4.13898">
        <ele>387</ele>
        <time>2025-04-11T08:24:26.000Z</time>
      </trkpt>
      <trkpt lat="44.34152" lon="4.13893">
        <ele>390</ele>
        <time>2025-04-11T08:24:42.000Z</time>
      </trkpt>
      <trkpt lat="44.34147" lon="4.13883">
        <ele>393</ele>
        <time>2025-04-11T08:24:51.000Z</time>
      </trkpt>
      <trkpt lat="44.3414" lon="4.13878">
        <ele>396</ele>
        <time>2025-04-11T08:25:34.000Z</time>
      </trkpt>
      <trkpt lat="44.34144" lon="4.1387">
        <ele>398</ele>
        <time>2025-04-11T08:26:40.000Z</time>
      </trkpt>
      <trkpt lat="44.34136" lon="4.13877">
        <ele>399</ele>
        <time>2025-04-11T08:27:12.000Z</time>
      </trkpt>
      <trkpt lat="44.34128" lon="4.13884">
        <ele>401</ele>
        <time>2025-04-11T08:27:20.000Z</time>
      </trkpt>
      <trkpt lat="44.34119" lon="4.1389">
        <ele>402</ele>
        <time>2025-04-11T08:27:25.000Z</time>
      </trkpt>
      <trkpt lat="44.3411" lon="4.13896">
        <ele>402</ele>
        <time>2025-04-11T08:27:34.000Z</time>
      </trkpt>
      <trkpt lat="44.34103" lon="4.13906">
        <ele>401</ele>
        <time>2025-04-11T08:27:42.000Z</time>
      </trkpt>
      <trkpt lat="44.34099" lon="4.13917">
        <ele>401</ele>
        <time>2025-04-11T08:27:53.000Z</time>
      </trkpt>
      <trkpt lat="44.34093" lon="4.13927">
        <ele>400</ele>
        <time>2025-04-11T08:28:04.000Z</time>
      </trkpt>
      <trkpt lat="44.34087" lon="4.13936">
        <ele>399</ele>
        <time>2025-04-11T08:28:16.000Z</time>
      </trkpt>
      <trkpt lat="44.34079" lon="4.13944">
        <ele>399</ele>
        <time>2025-04-11T08:28:26.000Z</time>
      </trkpt>
      <trkpt lat="44.3407" lon="4.13948">
        <ele>399</ele>
        <time>2025-04-11T08:28:37.000Z</time>
      </trkpt>
      <trkpt lat="44.34061" lon="4.13951">
        <ele>400</ele>
        <time>2025-04-11T08:28:48.000Z</time>
      </trkpt>
      <trkpt lat="44.34051" lon="4.13951">
        <ele>401</ele>
        <time>2025-04-11T08:28:58.000Z</time>
      </trkpt>
      <trkpt lat="44.34041" lon="4.13955">
        <ele>401</ele>
        <time>2025-04-11T08:29:11.000Z</time>
      </trkpt>
      <trkpt lat="44.34032" lon="4.13958">
        <ele>401</ele>
        <time>2025-04-11T08:29:19.000Z</time>
      </trkpt>
      <trkpt lat="44.34022" lon="4.13962">
        <ele>401</ele>
        <time>2025-04-11T08:29:29.000Z</time>
      </trkpt>
      <trkpt lat="44.34017" lon="4.13972">
        <ele>400</ele>
        <time>2025-04-11T08:29:37.000Z</time>
      </trkpt>
      <trkpt lat="44.34009" lon="4.13978">
        <ele>400</ele>
        <time>2025-04-11T08:29:50.000Z</time>
      </trkpt>
      <trkpt lat="44.34001" lon="4.13985">
        <ele>400</ele>
        <time>2025-04-11T08:30:00.000Z</time>
      </trkpt>
      <trkpt lat="44.33992" lon="4.13993">
        <ele>401</ele>
        <time>2025-04-11T08:30:10.000Z</time>
      </trkpt>
      <trkpt lat="44.33984" lon="4.13997">
        <ele>402</ele>
        <time>2025-04-11T08:30:18.000Z</time>
      </trkpt>
      <trkpt lat="44.33974" lon="4.14002">
        <ele>404</ele>
        <time>2025-04-11T08:30:30.000Z</time>
      </trkpt>
      <trkpt lat="44.33967" lon="4.1401">
        <ele>405</ele>
        <time>2025-04-11T08:30:37.000Z</time>
      </trkpt>
      <trkpt lat="44.33959" lon="4.14017">
        <ele>406</ele>
        <time>2025-04-11T08:30:49.000Z</time>
      </trkpt>
      <trkpt lat="44.33949" lon="4.14022">
        <ele>407</ele>
        <time>2025-04-11T08:31:01.000Z</time>
      </trkpt>
      <trkpt lat="44.3394" lon="4.14027">
        <ele>407</ele>
        <time>2025-04-11T08:31:11.000Z</time>
      </trkpt>
      <trkpt lat="44.3393" lon="4.14029">
        <ele>407</ele>
        <time>2025-04-11T08:31:20.000Z</time>
      </trkpt>
      <trkpt lat="44.33921" lon="4.14033">
        <ele>407</ele>
        <time>2025-04-11T08:31:28.000Z</time>
      </trkpt>
      <trkpt lat="44.33913" lon="4.14039">
        <ele>407</ele>
        <time>2025-04-11T08:31:39.000Z</time>
      </trkpt>
      <trkpt lat="44.33904" lon="4.14043">
        <ele>408</ele>
        <time>2025-04-11T08:31:47.000Z</time>
      </trkpt>
      <trkpt lat="44.33896" lon="4.14049">
        <ele>408</ele>
        <time>2025-04-11T08:31:55.000Z</time>
      </trkpt>
      <trkpt lat="44.33888" lon="4.14056">
        <ele>408</ele>
        <time>2025-04-11T08:32:05.000Z</time>
      </trkpt>
      <trkpt lat="44.3388" lon="4.14062">
        <ele>409</ele>
        <time>2025-04-11T08:32:13.000Z</time>
      </trkpt>
      <trkpt lat="44.33871" lon="4.1407">
        <ele>410</ele>
        <time>2025-04-11T08:32:27.000Z</time>
      </trkpt>
      <trkpt lat="44.33863" lon="4.14076">
        <ele>410</ele>
        <time>2025-04-11T08:32:34.000Z</time>
      </trkpt>
      <trkpt lat="44.33854" lon="4.14081">
        <ele>411</ele>
        <time>2025-04-11T08:32:42.000Z</time>
      </trkpt>
      <trkpt lat="44.33844" lon="4.14084">
        <ele>411</ele>
        <time>2025-04-11T08:32:51.000Z</time>
      </trkpt>
      <trkpt lat="44.33835" lon="4.14088">
        <ele>412</ele>
        <time>2025-04-11T08:33:01.000Z</time>
      </trkpt>
      <trkpt lat="44.33827" lon="4.14096">
        <ele>413</ele>
        <time>2025-04-11T08:33:08.000Z</time>
      </trkpt>
      <trkpt lat="44.33818" lon="4.14099">
        <ele>414</ele>
        <time>2025-04-11T08:33:19.000Z</time>
      </trkpt>
      <trkpt lat="44.33809" lon="4.14105">
        <ele>415</ele>
        <time>2025-04-11T08:33:27.000Z</time>
      </trkpt>
      <trkpt lat="44.33805" lon="4.14116">
        <ele>416</ele>
        <time>2025-04-11T08:33:35.000Z</time>
      </trkpt>
      <trkpt lat="44.33802" lon="4.14128">
        <ele>417</ele>
        <time>2025-04-11T08:33:44.000Z</time>
      </trkpt>
      <trkpt lat="44.33797" lon="4.14139">
        <ele>417</ele>
        <time>2025-04-11T08:33:57.000Z</time>
      </trkpt>
      <trkpt lat="44.33789" lon="4.14141">
        <ele>418</ele>
        <time>2025-04-11T08:34:06.000Z</time>
      </trkpt>
      <trkpt lat="44.33779" lon="4.14136">
        <ele>418</ele>
        <time>2025-04-11T08:34:16.000Z</time>
      </trkpt>
      <trkpt lat="44.3377" lon="4.14134">
        <ele>419</ele>
        <time>2025-04-11T08:34:24.000Z</time>
      </trkpt>
      <trkpt lat="44.33761" lon="4.14137">
        <ele>420</ele>
        <time>2025-04-11T08:34:34.000Z</time>
      </trkpt>
      <trkpt lat="44.33752" lon="4.14139">
        <ele>420</ele>
        <time>2025-04-11T08:34:44.000Z</time>
      </trkpt>
      <trkpt lat="44.33744" lon="4.14134">
        <ele>419</ele>
        <time>2025-04-11T08:36:00.000Z</time>
      </trkpt>
      <trkpt lat="44.33732" lon="4.14132">
        <ele>418</ele>
        <time>2025-04-11T08:36:13.000Z</time>
      </trkpt>
      <trkpt lat="44.33722" lon="4.14128">
        <ele>417</ele>
        <time>2025-04-11T08:36:21.000Z</time>
      </trkpt>
      <trkpt lat="44.33714" lon="4.14121">
        <ele>416</ele>
        <time>2025-04-11T08:36:31.000Z</time>
      </trkpt>
      <trkpt lat="44.33708" lon="4.14112">
        <ele>416</ele>
        <time>2025-04-11T08:36:41.000Z</time>
      </trkpt>
      <trkpt lat="44.33702" lon="4.14102">
        <ele>415</ele>
        <time>2025-04-11T08:36:49.000Z</time>
      </trkpt>
      <trkpt lat="44.33695" lon="4.14095">
        <ele>414</ele>
        <time>2025-04-11T08:36:57.000Z</time>
      </trkpt>
      <trkpt lat="44.33686" lon="4.14089">
        <ele>414</ele>
        <time>2025-04-11T08:37:04.000Z</time>
      </trkpt>
      <trkpt lat="44.33678" lon="4.14084">
        <ele>414</ele>
        <time>2025-04-11T08:37:13.000Z</time>
      </trkpt>
      <trkpt lat="44.33669" lon="4.14081">
        <ele>414</ele>
        <time>2025-04-11T08:37:21.000Z</time>
      </trkpt>
      <trkpt lat="44.3366" lon="4.14077">
        <ele>414</ele>
        <time>2025-04-11T08:37:29.000Z</time>
      </trkpt>
      <trkpt lat="44.33651" lon="4.14073">
        <ele>414</ele>
        <time>2025-04-11T08:37:37.000Z</time>
      </trkpt>
      <trkpt lat="44.33641" lon="4.1407">
        <ele>413</ele>
        <time>2025-04-11T08:37:45.000Z</time>
      </trkpt>
      <trkpt lat="44.33631" lon="4.14067">
        <ele>413</ele>
        <time>2025-04-11T08:37:55.000Z</time>
      </trkpt>
      <trkpt lat="44.33622" lon="4.14061">
        <ele>412</ele>
        <time>2025-04-11T08:38:03.000Z</time>
      </trkpt>
      <trkpt lat="44.33614" lon="4.14056">
        <ele>412</ele>
        <time>2025-04-11T08:38:11.000Z</time>
      </trkpt>
      <trkpt lat="44.33604" lon="4.14051">
        <ele>411</ele>
        <time>2025-04-11T08:38:19.000Z</time>
      </trkpt>
      <trkpt lat="44.33594" lon="4.14046">
        <ele>412</ele>
        <time>2025-04-11T08:38:29.000Z</time>
      </trkpt>
      <trkpt lat="44.33584" lon="4.14043">
        <ele>412</ele>
        <time>2025-04-11T08:38:36.000Z</time>
      </trkpt>
      <trkpt lat="44.33575" lon="4.14041">
        <ele>412</ele>
        <time>2025-04-11T08:38:45.000Z</time>
      </trkpt>
      <trkpt lat="44.33566" lon="4.14036">
        <ele>412</ele>
        <time>2025-04-11T08:38:53.000Z</time>
      </trkpt>
      <trkpt lat="44.33557" lon="4.14031">
        <ele>412</ele>
        <time>2025-04-11T08:39:01.000Z</time>
      </trkpt>
      <trkpt lat="44.33548" lon="4.14024">
        <ele>412</ele>
        <time>2025-04-11T08:39:09.000Z</time>
      </trkpt>
      <trkpt lat="44.33539" lon="4.14015">
        <ele>412</ele>
        <time>2025-04-11T08:39:19.000Z</time>
      </trkpt>
      <trkpt lat="44.3353" lon="4.1401">
        <ele>412</ele>
        <time>2025-04-11T08:39:26.000Z</time>
      </trkpt>
      <trkpt lat="44.3352" lon="4.1401">
        <ele>412</ele>
        <time>2025-04-11T08:39:44.000Z</time>
      </trkpt>
      <trkpt lat="44.33514" lon="4.14016">
        <ele>412</ele>
        <time>2025-04-11T08:40:39.000Z</time>
      </trkpt>
      <trkpt lat="44.33521" lon="4.14013">
        <ele>411</ele>
        <time>2025-04-11T08:43:33.000Z</time>
      </trkpt>
      <trkpt lat="44.33528" lon="4.14016">
        <ele>411</ele>
        <time>2025-04-11T08:43:50.000Z</time>
      </trkpt>
      <trkpt lat="44.33524" lon="4.14026">
        <ele>410</ele>
        <time>2025-04-11T08:43:58.000Z</time>
      </trkpt>
      <trkpt lat="44.33515" lon="4.14034">
        <ele>409</ele>
        <time>2025-04-11T08:44:09.000Z</time>
      </trkpt>
      <trkpt lat="44.33508" lon="4.14042">
        <ele>408</ele>
        <time>2025-04-11T08:44:21.000Z</time>
      </trkpt>
      <trkpt lat="44.33499" lon="4.14049">
        <ele>407</ele>
        <time>2025-04-11T08:44:32.000Z</time>
      </trkpt>
      <trkpt lat="44.33492" lon="4.14057">
        <ele>406</ele>
        <time>2025-04-11T08:44:45.000Z</time>
      </trkpt>
      <trkpt lat="44.33484" lon="4.14067">
        <ele>405</ele>
        <time>2025-04-11T08:44:55.000Z</time>
      </trkpt>
      <trkpt lat="44.33479" lon="4.14077">
        <ele>404</ele>
        <time>2025-04-11T08:45:05.000Z</time>
      </trkpt>
      <trkpt lat="44.33474" lon="4.14088">
        <ele>403</ele>
        <time>2025-04-11T08:45:17.000Z</time>
      </trkpt>
      <trkpt lat="44.33467" lon="4.14097">
        <ele>402</ele>
        <time>2025-04-11T08:45:25.000Z</time>
      </trkpt>
      <trkpt lat="44.33459" lon="4.14107">
        <ele>400</ele>
        <time>2025-04-11T08:45:35.000Z</time>
      </trkpt>
      <trkpt lat="44.33453" lon="4.14116">
        <ele>399</ele>
        <time>2025-04-11T08:45:43.000Z</time>
      </trkpt>
      <trkpt lat="44.33447" lon="4.14125">
        <ele>398</ele>
        <time>2025-04-11T08:45:51.000Z</time>
      </trkpt>
      <trkpt lat="44.33438" lon="4.1413">
        <ele>397</ele>
        <time>2025-04-11T08:46:01.000Z</time>
      </trkpt>
      <trkpt lat="44.33429" lon="4.14134">
        <ele>396</ele>
        <time>2025-04-11T08:46:09.000Z</time>
      </trkpt>
      <trkpt lat="44.33419" lon="4.14141">
        <ele>396</ele>
        <time>2025-04-11T08:46:19.000Z</time>
      </trkpt>
      <trkpt lat="44.3341" lon="4.14146">
        <ele>395</ele>
        <time>2025-04-11T08:46:26.000Z</time>
      </trkpt>
      <trkpt lat="44.33401" lon="4.14148">
        <ele>394</ele>
        <time>2025-04-11T08:46:36.000Z</time>
      </trkpt>
      <trkpt lat="44.33393" lon="4.14144">
        <ele>393</ele>
        <time>2025-04-11T08:46:45.000Z</time>
      </trkpt>
      <trkpt lat="44.33392" lon="4.14133">
        <ele>391</ele>
        <time>2025-04-11T08:46:54.000Z</time>
      </trkpt>
      <trkpt lat="44.33397" lon="4.1412">
        <ele>390</ele>
        <time>2025-04-11T08:47:03.000Z</time>
      </trkpt>
      <trkpt lat="44.33401" lon="4.14107">
        <ele>390</ele>
        <time>2025-04-11T08:47:13.000Z</time>
      </trkpt>
      <trkpt lat="44.33401" lon="4.14093">
        <ele>389</ele>
        <time>2025-04-11T08:47:23.000Z</time>
      </trkpt>
      <trkpt lat="44.33401" lon="4.14078">
        <ele>389</ele>
        <time>2025-04-11T08:47:33.000Z</time>
      </trkpt>
      <trkpt lat="44.33401" lon="4.14065">
        <ele>388</ele>
        <time>2025-04-11T08:47:41.000Z</time>
      </trkpt>
      <trkpt lat="44.33398" lon="4.14051">
        <ele>388</ele>
        <time>2025-04-11T08:47:51.000Z</time>
      </trkpt>
      <trkpt lat="44.33397" lon="4.14038">
        <ele>387</ele>
        <time>2025-04-11T08:47:59.000Z</time>
      </trkpt>
      <trkpt lat="44.33395" lon="4.14025">
        <ele>386</ele>
        <time>2025-04-11T08:48:09.000Z</time>
      </trkpt>
      <trkpt lat="44.33393" lon="4.14012">
        <ele>385</ele>
        <time>2025-04-11T08:48:16.000Z</time>
      </trkpt>
      <trkpt lat="44.33392" lon="4.14">
        <ele>383</ele>
        <time>2025-04-11T08:48:25.000Z</time>
      </trkpt>
      <trkpt lat="44.33393" lon="4.13986">
        <ele>382</ele>
        <time>2025-04-11T08:48:33.000Z</time>
      </trkpt>
      <trkpt lat="44.33396" lon="4.13973">
        <ele>382</ele>
        <time>2025-04-11T08:48:43.000Z</time>
      </trkpt>
      <trkpt lat="44.33399" lon="4.13961">
        <ele>381</ele>
        <time>2025-04-11T08:48:51.000Z</time>
      </trkpt>
      <trkpt lat="44.33401" lon="4.13947">
        <ele>381</ele>
        <time>2025-04-11T08:48:58.000Z</time>
      </trkpt>
      <trkpt lat="44.33402" lon="4.13935">
        <ele>381</ele>
        <time>2025-04-11T08:49:07.000Z</time>
      </trkpt>
      <trkpt lat="44.33398" lon="4.13925">
        <ele>381</ele>
        <time>2025-04-11T08:49:15.000Z</time>
      </trkpt>
      <trkpt lat="44.33391" lon="4.13916">
        <ele>381</ele>
        <time>2025-04-11T08:49:23.000Z</time>
      </trkpt>
      <trkpt lat="44.33384" lon="4.13908">
        <ele>381</ele>
        <time>2025-04-11T08:49:31.000Z</time>
      </trkpt>
      <trkpt lat="44.33378" lon="4.13899">
        <ele>382</ele>
        <time>2025-04-11T08:49:41.000Z</time>
      </trkpt>
      <trkpt lat="44.3337" lon="4.13888">
        <ele>383</ele>
        <time>2025-04-11T08:49:51.000Z</time>
      </trkpt>
      <trkpt lat="44.33366" lon="4.13877">
        <ele>384</ele>
        <time>2025-04-11T08:50:03.000Z</time>
      </trkpt>
      <trkpt lat="44.33364" lon="4.13864">
        <ele>385</ele>
        <time>2025-04-11T08:50:18.000Z</time>
      </trkpt>
      <trkpt lat="44.33362" lon="4.13853">
        <ele>385</ele>
        <time>2025-04-11T08:50:31.000Z</time>
      </trkpt>
      <trkpt lat="44.33354" lon="4.13852">
        <ele>386</ele>
        <time>2025-04-11T08:50:47.000Z</time>
      </trkpt>
      <trkpt lat="44.33344" lon="4.13862">
        <ele>386</ele>
        <time>2025-04-11T08:50:53.000Z</time>
      </trkpt>
      <trkpt lat="44.3333" lon="4.13878">
        <ele>386</ele>
        <time>2025-04-11T08:50:55.000Z</time>
      </trkpt>
      <trkpt lat="44.33324" lon="4.13883">
        <ele>387</ele>
        <time>2025-04-11T08:50:56.000Z</time>
      </trkpt>
      <trkpt lat="44.33336" lon="4.13874">
        <ele>387</ele>
        <time>2025-04-11T08:50:59.000Z</time>
      </trkpt>
      <trkpt lat="44.33349" lon="4.13862">
        <ele>388</ele>
        <time>2025-04-11T08:51:01.000Z</time>
      </trkpt>
      <trkpt lat="44.33353" lon="4.13852">
        <ele>389</ele>
        <time>2025-04-11T08:51:17.000Z</time>
      </trkpt>
      <trkpt lat="44.33362" lon="4.13853">
        <ele>389</ele>
        <time>2025-04-11T08:51:26.000Z</time>
      </trkpt>
      <trkpt lat="44.33372" lon="4.13858">
        <ele>388</ele>
        <time>2025-04-11T08:51:32.000Z</time>
      </trkpt>
      <trkpt lat="44.33378" lon="4.1385">
        <ele>388</ele>
        <time>2025-04-11T08:51:39.000Z</time>
      </trkpt>
      <trkpt lat="44.33383" lon="4.1384">
        <ele>387</ele>
        <time>2025-04-11T08:51:51.000Z</time>
      </trkpt>
      <trkpt lat="44.33385" lon="4.13829">
        <ele>387</ele>
        <time>2025-04-11T08:52:03.000Z</time>
      </trkpt>
      <trkpt lat="44.33395" lon="4.13824">
        <ele>386</ele>
        <time>2025-04-11T08:52:17.000Z</time>
      </trkpt>
      <trkpt lat="44.33405" lon="4.13821">
        <ele>386</ele>
        <time>2025-04-11T08:52:25.000Z</time>
      </trkpt>
      <trkpt lat="44.33413" lon="4.13816">
        <ele>386</ele>
        <time>2025-04-11T08:52:34.000Z</time>
      </trkpt>
      <trkpt lat="44.33422" lon="4.13814">
        <ele>385</ele>
        <time>2025-04-11T08:52:44.000Z</time>
      </trkpt>
      <trkpt lat="44.33429" lon="4.13806">
        <ele>384</ele>
        <time>2025-04-11T08:53:17.000Z</time>
      </trkpt>
      <trkpt lat="44.33436" lon="4.13798">
        <ele>383</ele>
        <time>2025-04-11T08:53:23.000Z</time>
      </trkpt>
      <trkpt lat="44.33444" lon="4.13789">
        <ele>383</ele>
        <time>2025-04-11T08:53:33.000Z</time>
      </trkpt>
      <trkpt lat="44.33453" lon="4.13783">
        <ele>382</ele>
        <time>2025-04-11T08:53:41.000Z</time>
      </trkpt>
      <trkpt lat="44.33462" lon="4.13776">
        <ele>382</ele>
        <time>2025-04-11T08:53:51.000Z</time>
      </trkpt>
      <trkpt lat="44.3347" lon="4.13768">
        <ele>381</ele>
        <time>2025-04-11T08:53:58.000Z</time>
      </trkpt>
      <trkpt lat="44.33476" lon="4.13759">
        <ele>381</ele>
        <time>2025-04-11T08:54:09.000Z</time>
      </trkpt>
      <trkpt lat="44.33474" lon="4.13747">
        <ele>379</ele>
        <time>2025-04-11T08:54:17.000Z</time>
      </trkpt>
      <trkpt lat="44.33469" lon="4.13736">
        <ele>378</ele>
        <time>2025-04-11T08:54:25.000Z</time>
      </trkpt>
      <trkpt lat="44.33466" lon="4.13726">
        <ele>377</ele>
        <time>2025-04-11T08:54:32.000Z</time>
      </trkpt>
      <trkpt lat="44.33474" lon="4.13722">
        <ele>376</ele>
        <time>2025-04-11T08:56:05.000Z</time>
      </trkpt>
      <trkpt lat="44.33481" lon="4.13726">
        <ele>376</ele>
        <time>2025-04-11T08:56:46.000Z</time>
      </trkpt>
      <trkpt lat="44.33489" lon="4.13723">
        <ele>375</ele>
        <time>2025-04-11T08:56:54.000Z</time>
      </trkpt>
      <trkpt lat="44.33498" lon="4.1372">
        <ele>375</ele>
        <time>2025-04-11T08:57:04.000Z</time>
      </trkpt>
      <trkpt lat="44.33508" lon="4.1372">
        <ele>373</ele>
        <time>2025-04-11T08:57:33.000Z</time>
      </trkpt>
      <trkpt lat="44.33518" lon="4.13716">
        <ele>372</ele>
        <time>2025-04-11T08:57:55.000Z</time>
      </trkpt>
      <trkpt lat="44.33528" lon="4.13711">
        <ele>371</ele>
        <time>2025-04-11T08:58:21.000Z</time>
      </trkpt>
      <trkpt lat="44.33537" lon="4.13704">
        <ele>370</ele>
        <time>2025-04-11T08:58:29.000Z</time>
      </trkpt>
      <trkpt lat="44.33546" lon="4.13695">
        <ele>370</ele>
        <time>2025-04-11T08:58:37.000Z</time>
      </trkpt>
      <trkpt lat="44.33554" lon="4.13689">
        <ele>370</ele>
        <time>2025-04-11T08:58:47.000Z</time>
      </trkpt>
      <trkpt lat="44.33563" lon="4.13683">
        <ele>369</ele>
        <time>2025-04-11T08:58:54.000Z</time>
      </trkpt>
      <trkpt lat="44.33572" lon="4.13679">
        <ele>369</ele>
        <time>2025-04-11T08:59:05.000Z</time>
      </trkpt>
      <trkpt lat="44.33581" lon="4.13679">
        <ele>368</ele>
        <time>2025-04-11T08:59:15.000Z</time>
      </trkpt>
      <trkpt lat="44.33592" lon="4.13677">
        <ele>369</ele>
        <time>2025-04-11T08:59:32.000Z</time>
      </trkpt>
      <trkpt lat="44.33602" lon="4.13675">
        <ele>369</ele>
        <time>2025-04-11T08:59:41.000Z</time>
      </trkpt>
      <trkpt lat="44.33611" lon="4.13673">
        <ele>369</ele>
        <time>2025-04-11T08:59:49.000Z</time>
      </trkpt>
      <trkpt lat="44.33619" lon="4.13665">
        <ele>370</ele>
        <time>2025-04-11T08:59:59.000Z</time>
      </trkpt>
      <trkpt lat="44.33628" lon="4.13662">
        <ele>369</ele>
        <time>2025-04-11T09:00:04.000Z</time>
      </trkpt>
      <trkpt lat="44.33638" lon="4.13658">
        <ele>369</ele>
        <time>2025-04-11T09:00:15.000Z</time>
      </trkpt>
      <trkpt lat="44.33646" lon="4.13654">
        <ele>368</ele>
        <time>2025-04-11T09:00:25.000Z</time>
      </trkpt>
      <trkpt lat="44.33655" lon="4.13648">
        <ele>367</ele>
        <time>2025-04-11T09:00:39.000Z</time>
      </trkpt>
      <trkpt lat="44.33661" lon="4.1364">
        <ele>365</ele>
        <time>2025-04-11T09:00:50.000Z</time>
      </trkpt>
      <trkpt lat="44.33668" lon="4.13633">
        <ele>364</ele>
        <time>2025-04-11T09:01:03.000Z</time>
      </trkpt>
      <trkpt lat="44.33676" lon="4.13627">
        <ele>363</ele>
        <time>2025-04-11T09:01:13.000Z</time>
      </trkpt>
      <trkpt lat="44.33683" lon="4.13618">
        <ele>361</ele>
        <time>2025-04-11T09:01:25.000Z</time>
      </trkpt>
      <trkpt lat="44.3369" lon="4.1361">
        <ele>360</ele>
        <time>2025-04-11T09:01:39.000Z</time>
      </trkpt>
      <trkpt lat="44.33697" lon="4.136">
        <ele>359</ele>
        <time>2025-04-11T09:01:49.000Z</time>
      </trkpt>
      <trkpt lat="44.33703" lon="4.1359">
        <ele>357</ele>
        <time>2025-04-11T09:02:04.000Z</time>
      </trkpt>
      <trkpt lat="44.33708" lon="4.13579">
        <ele>356</ele>
        <time>2025-04-11T09:02:13.000Z</time>
      </trkpt>
      <trkpt lat="44.33711" lon="4.13567">
        <ele>355</ele>
        <time>2025-04-11T09:02:59.000Z</time>
      </trkpt>
      <trkpt lat="44.33719" lon="4.13559">
        <ele>354</ele>
        <time>2025-04-11T09:03:06.000Z</time>
      </trkpt>
      <trkpt lat="44.33724" lon="4.13549">
        <ele>352</ele>
        <time>2025-04-11T09:03:23.000Z</time>
      </trkpt>
      <trkpt lat="44.33727" lon="4.13538">
        <ele>351</ele>
        <time>2025-04-11T09:03:36.000Z</time>
      </trkpt>
      <trkpt lat="44.33726" lon="4.13526">
        <ele>350</ele>
        <time>2025-04-11T09:03:46.000Z</time>
      </trkpt>
      <trkpt lat="44.33724" lon="4.13514">
        <ele>348</ele>
        <time>2025-04-11T09:03:57.000Z</time>
      </trkpt>
      <trkpt lat="44.33726" lon="4.13502">
        <ele>346</ele>
        <time>2025-04-11T09:04:09.000Z</time>
      </trkpt>
      <trkpt lat="44.3373" lon="4.13491">
        <ele>345</ele>
        <time>2025-04-11T09:04:17.000Z</time>
      </trkpt>
      <trkpt lat="44.33732" lon="4.13477">
        <ele>344</ele>
        <time>2025-04-11T09:04:27.000Z</time>
      </trkpt>
      <trkpt lat="44.33731" lon="4.13464">
        <ele>343</ele>
        <time>2025-04-11T09:04:39.000Z</time>
      </trkpt>
      <trkpt lat="44.3373" lon="4.1345">
        <ele>343</ele>
        <time>2025-04-11T09:04:50.000Z</time>
      </trkpt>
      <trkpt lat="44.33728" lon="4.13438">
        <ele>341</ele>
        <time>2025-04-11T09:05:15.000Z</time>
      </trkpt>
      <trkpt lat="44.33728" lon="4.13426">
        <ele>340</ele>
        <time>2025-04-11T09:05:23.000Z</time>
      </trkpt>
      <trkpt lat="44.33726" lon="4.13414">
        <ele>339</ele>
        <time>2025-04-11T09:05:32.000Z</time>
      </trkpt>
      <trkpt lat="44.33726" lon="4.134">
        <ele>338</ele>
        <time>2025-04-11T09:05:42.000Z</time>
      </trkpt>
      <trkpt lat="44.33724" lon="4.13388">
        <ele>337</ele>
        <time>2025-04-11T09:05:52.000Z</time>
      </trkpt>
      <trkpt lat="44.33726" lon="4.13375">
        <ele>336</ele>
        <time>2025-04-11T09:06:02.000Z</time>
      </trkpt>
      <trkpt lat="44.33729" lon="4.13363">
        <ele>335</ele>
        <time>2025-04-11T09:06:24.000Z</time>
      </trkpt>
      <trkpt lat="44.33733" lon="4.13351">
        <ele>334</ele>
        <time>2025-04-11T09:06:35.000Z</time>
      </trkpt>
      <trkpt lat="44.33739" lon="4.13339">
        <ele>333</ele>
        <time>2025-04-11T09:06:44.000Z</time>
      </trkpt>
      <trkpt lat="44.33744" lon="4.13328">
        <ele>332</ele>
        <time>2025-04-11T09:06:56.000Z</time>
      </trkpt>
      <trkpt lat="44.33751" lon="4.1332">
        <ele>332</ele>
        <time>2025-04-11T09:07:06.000Z</time>
      </trkpt>
      <trkpt lat="44.3376" lon="4.13316">
        <ele>331</ele>
        <time>2025-04-11T09:07:35.000Z</time>
      </trkpt>
      <trkpt lat="44.33771" lon="4.13313">
        <ele>331</ele>
        <time>2025-04-11T09:07:46.000Z</time>
      </trkpt>
      <trkpt lat="44.3378" lon="4.13314">
        <ele>331</ele>
        <time>2025-04-11T09:07:54.000Z</time>
      </trkpt>
      <trkpt lat="44.33789" lon="4.13315">
        <ele>331</ele>
        <time>2025-04-11T09:08:04.000Z</time>
      </trkpt>
      <trkpt lat="44.33799" lon="4.13317">
        <ele>331</ele>
        <time>2025-04-11T09:08:13.000Z</time>
      </trkpt>
      <trkpt lat="44.33809" lon="4.13319">
        <ele>331</ele>
        <time>2025-04-11T09:08:25.000Z</time>
      </trkpt>
      <trkpt lat="44.33818" lon="4.1332">
        <ele>331</ele>
        <time>2025-04-11T09:08:36.000Z</time>
      </trkpt>
      <trkpt lat="44.33827" lon="4.1332">
        <ele>331</ele>
        <time>2025-04-11T09:08:46.000Z</time>
      </trkpt>
      <trkpt lat="44.33836" lon="4.13319">
        <ele>332</ele>
        <time>2025-04-11T09:08:57.000Z</time>
      </trkpt>
      <trkpt lat="44.33846" lon="4.13317">
        <ele>333</ele>
        <time>2025-04-11T09:09:10.000Z</time>
      </trkpt>
      <trkpt lat="44.33855" lon="4.13309">
        <ele>333</ele>
        <time>2025-04-11T09:09:20.000Z</time>
      </trkpt>
      <trkpt lat="44.33864" lon="4.13304">
        <ele>334</ele>
        <time>2025-04-11T09:09:28.000Z</time>
      </trkpt>
      <trkpt lat="44.33869" lon="4.13294">
        <ele>335</ele>
        <time>2025-04-11T09:09:44.000Z</time>
      </trkpt>
      <trkpt lat="44.33877" lon="4.13283">
        <ele>336</ele>
        <time>2025-04-11T09:09:52.000Z</time>
      </trkpt>
      <trkpt lat="44.33885" lon="4.13275">
        <ele>337</ele>
        <time>2025-04-11T09:10:04.000Z</time>
      </trkpt>
      <trkpt lat="44.33888" lon="4.13264">
        <ele>337</ele>
        <time>2025-04-11T09:10:12.000Z</time>
      </trkpt>
      <trkpt lat="44.33892" lon="4.13253">
        <ele>338</ele>
        <time>2025-04-11T09:10:22.000Z</time>
      </trkpt>
      <trkpt lat="44.33894" lon="4.1324">
        <ele>340</ele>
        <time>2025-04-11T09:10:33.000Z</time>
      </trkpt>
      <trkpt lat="44.33895" lon="4.13228">
        <ele>341</ele>
        <time>2025-04-11T09:10:42.000Z</time>
      </trkpt>
      <trkpt lat="44.339" lon="4.13225">
        <ele>342</ele>
        <time>2025-04-11T09:10:56.000Z</time>
      </trkpt>
      <trkpt lat="44.33893" lon="4.1322">
        <ele>343</ele>
        <time>2025-04-11T09:11:24.000Z</time>
      </trkpt>
      <trkpt lat="44.33884" lon="4.13218">
        <ele>342</ele>
        <time>2025-04-11T09:12:06.000Z</time>
      </trkpt>
      <trkpt lat="44.3389" lon="4.13215">
        <ele>342</ele>
        <time>2025-04-11T09:12:42.000Z</time>
      </trkpt>
      <trkpt lat="44.33884" lon="4.13206">
        <ele>340</ele>
        <time>2025-04-11T09:14:20.000Z</time>
      </trkpt>
      <trkpt lat="44.33877" lon="4.13196">
        <ele>338</ele>
        <time>2025-04-11T09:14:30.000Z</time>
      </trkpt>
      <trkpt lat="44.33877" lon="4.13184">
        <ele>336</ele>
        <time>2025-04-11T09:14:38.000Z</time>
      </trkpt>
      <trkpt lat="44.33878" lon="4.13172">
        <ele>334</ele>
        <time>2025-04-11T09:14:46.000Z</time>
      </trkpt>
      <trkpt lat="44.33883" lon="4.13161">
        <ele>332</ele>
        <time>2025-04-11T09:14:54.000Z</time>
      </trkpt>
      <trkpt lat="44.33888" lon="4.13151">
        <ele>331</ele>
        <time>2025-04-11T09:15:02.000Z</time>
      </trkpt>
      <trkpt lat="44.33893" lon="4.1314">
        <ele>330</ele>
        <time>2025-04-11T09:15:13.000Z</time>
      </trkpt>
      <trkpt lat="44.339" lon="4.13131">
        <ele>329</ele>
        <time>2025-04-11T09:15:22.000Z</time>
      </trkpt>
      <trkpt lat="44.33908" lon="4.13122">
        <ele>328</ele>
        <time>2025-04-11T09:15:30.000Z</time>
      </trkpt>
      <trkpt lat="44.33914" lon="4.13113">
        <ele>328</ele>
        <time>2025-04-11T09:15:39.000Z</time>
      </trkpt>
      <trkpt lat="44.33921" lon="4.13105">
        <ele>327</ele>
        <time>2025-04-11T09:15:48.000Z</time>
      </trkpt>
      <trkpt lat="44.33927" lon="4.13095">
        <ele>326</ele>
        <time>2025-04-11T09:15:56.000Z</time>
      </trkpt>
      <trkpt lat="44.33933" lon="4.13086">
        <ele>326</ele>
        <time>2025-04-11T09:16:04.000Z</time>
      </trkpt>
      <trkpt lat="44.33939" lon="4.13075">
        <ele>325</ele>
        <time>2025-04-11T09:16:13.000Z</time>
      </trkpt>
      <trkpt lat="44.33947" lon="4.13068">
        <ele>326</ele>
        <time>2025-04-11T09:16:22.000Z</time>
      </trkpt>
      <trkpt lat="44.33956" lon="4.13062">
        <ele>326</ele>
        <time>2025-04-11T09:16:30.000Z</time>
      </trkpt>
      <trkpt lat="44.33964" lon="4.13055">
        <ele>327</ele>
        <time>2025-04-11T09:16:40.000Z</time>
      </trkpt>
      <trkpt lat="44.33973" lon="4.13047">
        <ele>328</ele>
        <time>2025-04-11T09:16:47.000Z</time>
      </trkpt>
      <trkpt lat="44.33981" lon="4.13039">
        <ele>328</ele>
        <time>2025-04-11T09:16:58.000Z</time>
      </trkpt>
      <trkpt lat="44.33988" lon="4.13033">
        <ele>328</ele>
        <time>2025-04-11T09:17:06.000Z</time>
      </trkpt>
      <trkpt lat="44.33997" lon="4.13026">
        <ele>328</ele>
        <time>2025-04-11T09:17:13.000Z</time>
      </trkpt>
      <trkpt lat="44.34005" lon="4.13017">
        <ele>328</ele>
        <time>2025-04-11T09:17:24.000Z</time>
      </trkpt>
      <trkpt lat="44.34014" lon="4.13012">
        <ele>327</ele>
        <time>2025-04-11T09:17:30.000Z</time>
      </trkpt>
      <trkpt lat="44.34023" lon="4.13006">
        <ele>325</ele>
        <time>2025-04-11T09:17:38.000Z</time>
      </trkpt>
      <trkpt lat="44.34033" lon="4.12999">
        <ele>324</ele>
        <time>2025-04-11T09:17:51.000Z</time>
      </trkpt>
      <trkpt lat="44.34042" lon="4.12992">
        <ele>322</ele>
        <time>2025-04-11T09:18:00.000Z</time>
      </trkpt>
      <trkpt lat="44.34049" lon="4.12982">
        <ele>320</ele>
        <time>2025-04-11T09:18:08.000Z</time>
      </trkpt>
      <trkpt lat="44.34052" lon="4.12969">
        <ele>318</ele>
        <time>2025-04-11T09:18:17.000Z</time>
      </trkpt>
      <trkpt lat="44.34056" lon="4.12956">
        <ele>316</ele>
        <time>2025-04-11T09:18:28.000Z</time>
      </trkpt>
      <trkpt lat="44.34059" lon="4.12944">
        <ele>315</ele>
        <time>2025-04-11T09:18:38.000Z</time>
      </trkpt>
      <trkpt lat="44.34064" lon="4.12931">
        <ele>316</ele>
        <time>2025-04-11T09:18:47.000Z</time>
      </trkpt>
      <trkpt lat="44.34071" lon="4.12925">
        <ele>316</ele>
        <time>2025-04-11T09:18:55.000Z</time>
      </trkpt>
      <trkpt lat="44.34082" lon="4.12926">
        <ele>317</ele>
        <time>2025-04-11T09:19:04.000Z</time>
      </trkpt>
      <trkpt lat="44.34092" lon="4.12924">
        <ele>318</ele>
        <time>2025-04-11T09:19:14.000Z</time>
      </trkpt>
      <trkpt lat="44.34101" lon="4.12918">
        <ele>318</ele>
        <time>2025-04-11T09:19:22.000Z</time>
      </trkpt>
      <trkpt lat="44.34111" lon="4.12915">
        <ele>317</ele>
        <time>2025-04-11T09:19:32.000Z</time>
      </trkpt>
      <trkpt lat="44.34118" lon="4.12906">
        <ele>316</ele>
        <time>2025-04-11T09:19:41.000Z</time>
      </trkpt>
      <trkpt lat="44.3412" lon="4.12893">
        <ele>315</ele>
        <time>2025-04-11T09:19:52.000Z</time>
      </trkpt>
      <trkpt lat="44.34122" lon="4.12879">
        <ele>314</ele>
        <time>2025-04-11T09:20:02.000Z</time>
      </trkpt>
      <trkpt lat="44.34122" lon="4.12865">
        <ele>313</ele>
        <time>2025-04-11T09:20:11.000Z</time>
      </trkpt>
      <trkpt lat="44.34123" lon="4.12853">
        <ele>311</ele>
        <time>2025-04-11T09:20:20.000Z</time>
      </trkpt>
      <trkpt lat="44.34128" lon="4.12844">
        <ele>310</ele>
        <time>2025-04-11T09:20:25.000Z</time>
      </trkpt>
      <trkpt lat="44.34137" lon="4.12835">
        <ele>310</ele>
        <time>2025-04-11T09:20:34.000Z</time>
      </trkpt>
      <trkpt lat="44.34146" lon="4.12828">
        <ele>309</ele>
        <time>2025-04-11T09:20:43.000Z</time>
      </trkpt>
      <trkpt lat="44.34151" lon="4.12817">
        <ele>308</ele>
        <time>2025-04-11T09:20:51.000Z</time>
      </trkpt>
      <trkpt lat="44.3415" lon="4.12802">
        <ele>307</ele>
        <time>2025-04-11T09:21:00.000Z</time>
      </trkpt>
      <trkpt lat="44.34151" lon="4.1279">
        <ele>306</ele>
        <time>2025-04-11T09:21:08.000Z</time>
      </trkpt>
      <trkpt lat="44.34156" lon="4.12778">
        <ele>305</ele>
        <time>2025-04-11T09:21:18.000Z</time>
      </trkpt>
      <trkpt lat="44.34158" lon="4.12766">
        <ele>304</ele>
        <time>2025-04-11T09:21:26.000Z</time>
      </trkpt>
      <trkpt lat="44.3416" lon="4.12753">
        <ele>302</ele>
        <time>2025-04-11T09:21:33.000Z</time>
      </trkpt>
      <trkpt lat="44.34163" lon="4.1274">
        <ele>301</ele>
        <time>2025-04-11T09:21:42.000Z</time>
      </trkpt>
      <trkpt lat="44.3417" lon="4.12729">
        <ele>301</ele>
        <time>2025-04-11T09:21:52.000Z</time>
      </trkpt>
      <trkpt lat="44.34177" lon="4.12721">
        <ele>301</ele>
        <time>2025-04-11T09:22:00.000Z</time>
      </trkpt>
      <trkpt lat="44.34182" lon="4.12709">
        <ele>300</ele>
        <time>2025-04-11T09:22:10.000Z</time>
      </trkpt>
      <trkpt lat="44.3418" lon="4.12697">
        <ele>300</ele>
        <time>2025-04-11T09:22:18.000Z</time>
      </trkpt>
      <trkpt lat="44.34172" lon="4.12689">
        <ele>299</ele>
        <time>2025-04-11T09:22:26.000Z</time>
      </trkpt>
      <trkpt lat="44.34163" lon="4.12684">
        <ele>298</ele>
        <time>2025-04-11T09:22:36.000Z</time>
      </trkpt>
      <trkpt lat="44.34155" lon="4.12679">
        <ele>297</ele>
        <time>2025-04-11T09:22:46.000Z</time>
      </trkpt>
      <trkpt lat="44.34153" lon="4.12669">
        <ele>297</ele>
        <time>2025-04-11T09:22:54.000Z</time>
      </trkpt>
      <trkpt lat="44.3416" lon="4.12665">
        <ele>296</ele>
        <time>2025-04-11T09:23:32.000Z</time>
      </trkpt>
      <trkpt lat="44.34167" lon="4.12658">
        <ele>295</ele>
        <time>2025-04-11T09:23:43.000Z</time>
      </trkpt>
      <trkpt lat="44.34171" lon="4.12647">
        <ele>295</ele>
        <time>2025-04-11T09:24:56.000Z</time>
      </trkpt>
      <trkpt lat="44.34171" lon="4.12633">
        <ele>294</ele>
        <time>2025-04-11T09:25:06.000Z</time>
      </trkpt>
      <trkpt lat="44.34172" lon="4.12621">
        <ele>294</ele>
        <time>2025-04-11T09:25:14.000Z</time>
      </trkpt>
      <trkpt lat="44.34173" lon="4.12608">
        <ele>295</ele>
        <time>2025-04-11T09:25:22.000Z</time>
      </trkpt>
      <trkpt lat="44.34175" lon="4.12595">
        <ele>295</ele>
        <time>2025-04-11T09:25:30.000Z</time>
      </trkpt>
      <trkpt lat="44.34176" lon="4.12583">
        <ele>295</ele>
        <time>2025-04-11T09:25:40.000Z</time>
      </trkpt>
      <trkpt lat="44.34176" lon="4.12568">
        <ele>296</ele>
        <time>2025-04-11T09:26:08.000Z</time>
      </trkpt>
      <trkpt lat="44.34177" lon="4.12555">
        <ele>296</ele>
        <time>2025-04-11T09:26:14.000Z</time>
      </trkpt>
      <trkpt lat="44.34179" lon="4.12542">
        <ele>296</ele>
        <time>2025-04-11T09:26:24.000Z</time>
      </trkpt>
      <trkpt lat="44.34181" lon="4.1253">
        <ele>296</ele>
        <time>2025-04-11T09:26:32.000Z</time>
      </trkpt>
      <trkpt lat="44.34182" lon="4.12515">
        <ele>297</ele>
        <time>2025-04-11T09:26:42.000Z</time>
      </trkpt>
      <trkpt lat="44.34184" lon="4.12501">
        <ele>297</ele>
        <time>2025-04-11T09:26:52.000Z</time>
      </trkpt>
      <trkpt lat="44.34184" lon="4.12487">
        <ele>297</ele>
        <time>2025-04-11T09:27:06.000Z</time>
      </trkpt>
      <trkpt lat="44.34185" lon="4.12475">
        <ele>297</ele>
        <time>2025-04-11T09:27:14.000Z</time>
      </trkpt>
      <trkpt lat="44.34187" lon="4.12463">
        <ele>297</ele>
        <time>2025-04-11T09:27:22.000Z</time>
      </trkpt>
      <trkpt lat="44.34188" lon="4.1245">
        <ele>297</ele>
        <time>2025-04-11T09:27:29.000Z</time>
      </trkpt>
      <trkpt lat="44.34189" lon="4.12436">
        <ele>297</ele>
        <time>2025-04-11T09:27:39.000Z</time>
      </trkpt>
      <trkpt lat="44.34192" lon="4.12423">
        <ele>297</ele>
        <time>2025-04-11T09:27:48.000Z</time>
      </trkpt>
      <trkpt lat="44.34193" lon="4.1241">
        <ele>298</ele>
        <time>2025-04-11T09:27:56.000Z</time>
      </trkpt>
      <trkpt lat="44.34194" lon="4.12396">
        <ele>298</ele>
        <time>2025-04-11T09:28:06.000Z</time>
      </trkpt>
      <trkpt lat="44.34196" lon="4.12383">
        <ele>298</ele>
        <time>2025-04-11T09:28:14.000Z</time>
      </trkpt>
      <trkpt lat="44.34198" lon="4.1237">
        <ele>298</ele>
        <time>2025-04-11T09:28:22.000Z</time>
      </trkpt>
      <trkpt lat="44.34196" lon="4.1236">
        <ele>298</ele>
        <time>2025-04-11T09:28:28.000Z</time>
      </trkpt>
      <trkpt lat="44.34189" lon="4.1236">
        <ele>299</ele>
        <time>2025-04-11T09:29:48.000Z</time>
      </trkpt>
      <trkpt lat="44.34195" lon="4.12353">
        <ele>300</ele>
        <time>2025-04-11T09:30:54.000Z</time>
      </trkpt>
      <trkpt lat="44.34202" lon="4.12344">
        <ele>300</ele>
        <time>2025-04-11T09:31:26.000Z</time>
      </trkpt>
      <trkpt lat="44.34205" lon="4.12331">
        <ele>301</ele>
        <time>2025-04-11T09:31:34.000Z</time>
      </trkpt>
      <trkpt lat="44.34207" lon="4.12317">
        <ele>301</ele>
        <time>2025-04-11T09:31:44.000Z</time>
      </trkpt>
      <trkpt lat="44.34208" lon="4.12305">
        <ele>301</ele>
        <time>2025-04-11T09:31:52.000Z</time>
      </trkpt>
      <trkpt lat="44.34214" lon="4.12294">
        <ele>301</ele>
        <time>2025-04-11T09:32:00.000Z</time>
      </trkpt>
      <trkpt lat="44.34218" lon="4.12283">
        <ele>301</ele>
        <time>2025-04-11T09:32:08.000Z</time>
      </trkpt>
      <trkpt lat="44.34219" lon="4.1227">
        <ele>302</ele>
        <time>2025-04-11T09:32:18.000Z</time>
      </trkpt>
      <trkpt lat="44.34224" lon="4.12261">
        <ele>303</ele>
        <time>2025-04-11T09:32:26.000Z</time>
      </trkpt>
      <trkpt lat="44.34229" lon="4.12249">
        <ele>304</ele>
        <time>2025-04-11T09:32:36.000Z</time>
      </trkpt>
      <trkpt lat="44.34237" lon="4.12243">
        <ele>304</ele>
        <time>2025-04-11T09:32:44.000Z</time>
      </trkpt>
      <trkpt lat="44.34247" lon="4.12239">
        <ele>304</ele>
        <time>2025-04-11T09:32:51.000Z</time>
      </trkpt>
      <trkpt lat="44.34258" lon="4.12235">
        <ele>304</ele>
        <time>2025-04-11T09:33:02.000Z</time>
      </trkpt>
      <trkpt lat="44.34267" lon="4.12231">
        <ele>304</ele>
        <time>2025-04-11T09:33:09.000Z</time>
      </trkpt>
      <trkpt lat="44.34274" lon="4.1222">
        <ele>304</ele>
        <time>2025-04-11T09:33:20.000Z</time>
      </trkpt>
      <trkpt lat="44.34277" lon="4.12209">
        <ele>303</ele>
        <time>2025-04-11T09:33:28.000Z</time>
      </trkpt>
      <trkpt lat="44.34278" lon="4.12196">
        <ele>303</ele>
        <time>2025-04-11T09:33:36.000Z</time>
      </trkpt>
      <trkpt lat="44.34278" lon="4.12183">
        <ele>302</ele>
        <time>2025-04-11T09:33:46.000Z</time>
      </trkpt>
      <trkpt lat="44.34278" lon="4.12169">
        <ele>301</ele>
        <time>2025-04-11T09:33:56.000Z</time>
      </trkpt>
      <trkpt lat="44.34275" lon="4.12156">
        <ele>299</ele>
        <time>2025-04-11T09:34:03.000Z</time>
      </trkpt>
      <trkpt lat="44.34271" lon="4.12144">
        <ele>298</ele>
        <time>2025-04-11T09:34:12.000Z</time>
      </trkpt>
      <trkpt lat="44.3427" lon="4.1213">
        <ele>297</ele>
        <time>2025-04-11T09:34:23.000Z</time>
      </trkpt>
      <trkpt lat="44.34275" lon="4.12118">
        <ele>296</ele>
        <time>2025-04-11T09:34:34.000Z</time>
      </trkpt>
      <trkpt lat="44.34283" lon="4.12108">
        <ele>296</ele>
        <time>2025-04-11T09:34:46.000Z</time>
      </trkpt>
      <trkpt lat="44.34292" lon="4.12107">
        <ele>296</ele>
        <time>2025-04-11T09:34:52.000Z</time>
      </trkpt>
      <trkpt lat="44.34301" lon="4.12107">
        <ele>297</ele>
        <time>2025-04-11T09:35:00.000Z</time>
      </trkpt>
      <trkpt lat="44.34309" lon="4.12111">
        <ele>298</ele>
        <time>2025-04-11T09:35:10.000Z</time>
      </trkpt>
      <trkpt lat="44.34318" lon="4.12115">
        <ele>298</ele>
        <time>2025-04-11T09:35:17.000Z</time>
      </trkpt>
      <trkpt lat="44.34324" lon="4.12125">
        <ele>299</ele>
        <time>2025-04-11T09:35:28.000Z</time>
      </trkpt>
      <trkpt lat="44.3433" lon="4.12134">
        <ele>299</ele>
        <time>2025-04-11T09:35:34.000Z</time>
      </trkpt>
      <trkpt lat="44.34338" lon="4.1214">
        <ele>299</ele>
        <time>2025-04-11T09:35:42.000Z</time>
      </trkpt>
      <trkpt lat="44.34348" lon="4.12137">
        <ele>299</ele>
        <time>2025-04-11T09:35:54.000Z</time>
      </trkpt>
      <trkpt lat="44.34358" lon="4.12132">
        <ele>300</ele>
        <time>2025-04-11T09:36:02.000Z</time>
      </trkpt>
      <trkpt lat="44.34367" lon="4.12124">
        <ele>300</ele>
        <time>2025-04-11T09:36:11.000Z</time>
      </trkpt>
      <trkpt lat="44.34372" lon="4.12114">
        <ele>301</ele>
        <time>2025-04-11T09:36:20.000Z</time>
      </trkpt>
      <trkpt lat="44.34376" lon="4.12103">
        <ele>301</ele>
        <time>2025-04-11T09:36:30.000Z</time>
      </trkpt>
      <trkpt lat="44.34375" lon="4.12089">
        <ele>300</ele>
        <time>2025-04-11T09:36:40.000Z</time>
      </trkpt>
      <trkpt lat="44.34375" lon="4.12076">
        <ele>299</ele>
        <time>2025-04-11T09:36:48.000Z</time>
      </trkpt>
      <trkpt lat="44.34375" lon="4.12063">
        <ele>298</ele>
        <time>2025-04-11T09:36:54.000Z</time>
      </trkpt>
      <trkpt lat="44.34379" lon="4.1205">
        <ele>297</ele>
        <time>2025-04-11T09:37:02.000Z</time>
      </trkpt>
      <trkpt lat="44.34386" lon="4.12041">
        <ele>297</ele>
        <time>2025-04-11T09:37:14.000Z</time>
      </trkpt>
      <trkpt lat="44.34394" lon="4.12033">
        <ele>297</ele>
        <time>2025-04-11T09:37:22.000Z</time>
      </trkpt>
      <trkpt lat="44.34403" lon="4.12034">
        <ele>297</ele>
        <time>2025-04-11T09:37:34.000Z</time>
      </trkpt>
      <trkpt lat="44.34408" lon="4.12045">
        <ele>298</ele>
        <time>2025-04-11T09:37:45.000Z</time>
      </trkpt>
      <trkpt lat="44.34411" lon="4.12059">
        <ele>298</ele>
        <time>2025-04-11T09:38:14.000Z</time>
      </trkpt>
      <trkpt lat="44.34417" lon="4.1207">
        <ele>299</ele>
        <time>2025-04-11T09:38:22.000Z</time>
      </trkpt>
      <trkpt lat="44.34425" lon="4.12078">
        <ele>299</ele>
        <time>2025-04-11T09:38:34.000Z</time>
      </trkpt>
      <trkpt lat="44.34434" lon="4.12083">
        <ele>299</ele>
        <time>2025-04-11T09:38:41.000Z</time>
      </trkpt>
      <trkpt lat="44.34441" lon="4.12092">
        <ele>298</ele>
        <time>2025-04-11T09:38:54.000Z</time>
      </trkpt>
      <trkpt lat="44.34446" lon="4.12103">
        <ele>297</ele>
        <time>2025-04-11T09:39:02.000Z</time>
      </trkpt>
      <trkpt lat="44.34453" lon="4.12112">
        <ele>296</ele>
        <time>2025-04-11T09:39:09.000Z</time>
      </trkpt>
      <trkpt lat="44.34459" lon="4.12123">
        <ele>295</ele>
        <time>2025-04-11T09:39:20.000Z</time>
      </trkpt>
      <trkpt lat="44.34464" lon="4.12134">
        <ele>295</ele>
        <time>2025-04-11T09:39:27.000Z</time>
      </trkpt>
      <trkpt lat="44.3447" lon="4.12145">
        <ele>295</ele>
        <time>2025-04-11T09:39:35.000Z</time>
      </trkpt>
      <trkpt lat="44.34475" lon="4.12155">
        <ele>296</ele>
        <time>2025-04-11T09:39:52.000Z</time>
      </trkpt>
      <trkpt lat="44.34483" lon="4.12152">
        <ele>297</ele>
        <time>2025-04-11T09:40:05.000Z</time>
      </trkpt>
      <trkpt lat="44.34486" lon="4.12141">
        <ele>298</ele>
        <time>2025-04-11T09:40:22.000Z</time>
      </trkpt>
      <trkpt lat="44.34482" lon="4.12129">
        <ele>299</ele>
        <time>2025-04-11T09:41:18.000Z</time>
      </trkpt>
      <trkpt lat="44.34477" lon="4.12118">
        <ele>299</ele>
        <time>2025-04-11T09:41:25.000Z</time>
      </trkpt>
      <trkpt lat="44.34468" lon="4.12112">
        <ele>299</ele>
        <time>2025-04-11T09:41:36.000Z</time>
      </trkpt>
      <trkpt lat="44.34461" lon="4.12104">
        <ele>300</ele>
        <time>2025-04-11T09:41:44.000Z</time>
      </trkpt>
      <trkpt lat="44.3446" lon="4.12089">
        <ele>301</ele>
        <time>2025-04-11T09:41:52.000Z</time>
      </trkpt>
      <trkpt lat="44.34463" lon="4.12076">
        <ele>302</ele>
        <time>2025-04-11T09:41:58.000Z</time>
      </trkpt>
      <trkpt lat="44.3447" lon="4.12067">
        <ele>304</ele>
        <time>2025-04-11T09:42:06.000Z</time>
      </trkpt>
      <trkpt lat="44.34479" lon="4.1206">
        <ele>306</ele>
        <time>2025-04-11T09:42:14.000Z</time>
      </trkpt>
      <trkpt lat="44.34488" lon="4.12053">
        <ele>307</ele>
        <time>2025-04-11T09:42:22.000Z</time>
      </trkpt>
      <trkpt lat="44.34496" lon="4.12043">
        <ele>308</ele>
        <time>2025-04-11T09:42:34.000Z</time>
      </trkpt>
      <trkpt lat="44.34501" lon="4.12034">
        <ele>309</ele>
        <time>2025-04-11T09:42:48.000Z</time>
      </trkpt>
      <trkpt lat="44.34511" lon="4.1203">
        <ele>308</ele>
        <time>2025-04-11T09:44:03.000Z</time>
      </trkpt>
      <trkpt lat="44.34519" lon="4.12024">
        <ele>307</ele>
        <time>2025-04-11T09:44:11.000Z</time>
      </trkpt>
      <trkpt lat="44.34528" lon="4.12023">
        <ele>307</ele>
        <time>2025-04-11T09:44:52.000Z</time>
      </trkpt>
      <trkpt lat="44.34537" lon="4.1202">
        <ele>307</ele>
        <time>2025-04-11T09:45:06.000Z</time>
      </trkpt>
      <trkpt lat="44.34545" lon="4.12014">
        <ele>308</ele>
        <time>2025-04-11T09:45:32.000Z</time>
      </trkpt>
      <trkpt lat="44.34553" lon="4.12007">
        <ele>309</ele>
        <time>2025-04-11T09:45:44.000Z</time>
      </trkpt>
      <trkpt lat="44.34559" lon="4.11998">
        <ele>308</ele>
        <time>2025-04-11T09:45:53.000Z</time>
      </trkpt>
      <trkpt lat="44.34566" lon="4.11988">
        <ele>307</ele>
        <time>2025-04-11T09:46:05.000Z</time>
      </trkpt>
      <trkpt lat="44.34575" lon="4.11981">
        <ele>306</ele>
        <time>2025-04-11T09:46:14.000Z</time>
      </trkpt>
      <trkpt lat="44.34584" lon="4.11981">
        <ele>306</ele>
        <time>2025-04-11T09:46:31.000Z</time>
      </trkpt>
      <trkpt lat="44.34594" lon="4.11983">
        <ele>306</ele>
        <time>2025-04-11T09:47:07.000Z</time>
      </trkpt>
      <trkpt lat="44.34599" lon="4.11973">
        <ele>307</ele>
        <time>2025-04-11T09:47:21.000Z</time>
      </trkpt>
      <trkpt lat="44.34606" lon="4.11962">
        <ele>308</ele>
        <time>2025-04-11T09:47:33.000Z</time>
      </trkpt>
      <trkpt lat="44.34612" lon="4.11951">
        <ele>309</ele>
        <time>2025-04-11T09:47:44.000Z</time>
      </trkpt>
      <trkpt lat="44.34619" lon="4.11942">
        <ele>311</ele>
        <time>2025-04-11T09:47:56.000Z</time>
      </trkpt>
      <trkpt lat="44.34626" lon="4.11933">
        <ele>312</ele>
        <time>2025-04-11T09:48:05.000Z</time>
      </trkpt>
      <trkpt lat="44.34635" lon="4.11928">
        <ele>314</ele>
        <time>2025-04-11T09:48:15.000Z</time>
      </trkpt>
      <trkpt lat="44.34644" lon="4.11925">
        <ele>315</ele>
        <time>2025-04-11T09:48:21.000Z</time>
      </trkpt>
      <trkpt lat="44.34653" lon="4.1192">
        <ele>316</ele>
        <time>2025-04-11T09:48:31.000Z</time>
      </trkpt>
      <trkpt lat="44.34661" lon="4.11918">
        <ele>316</ele>
        <time>2025-04-11T09:48:39.000Z</time>
      </trkpt>
      <trkpt lat="44.34669" lon="4.11912">
        <ele>316</ele>
        <time>2025-04-11T09:48:47.000Z</time>
      </trkpt>
      <trkpt lat="44.34675" lon="4.11904">
        <ele>316</ele>
        <time>2025-04-11T09:48:56.000Z</time>
      </trkpt>
      <trkpt lat="44.34679" lon="4.11893">
        <ele>315</ele>
        <time>2025-04-11T09:49:11.000Z</time>
      </trkpt>
      <trkpt lat="44.34685" lon="4.11881">
        <ele>314</ele>
        <time>2025-04-11T09:49:19.000Z</time>
      </trkpt>
      <trkpt lat="44.34692" lon="4.11874">
        <ele>313</ele>
        <time>2025-04-11T09:49:24.000Z</time>
      </trkpt>
      <trkpt lat="44.34699" lon="4.11864">
        <ele>312</ele>
        <time>2025-04-11T09:49:33.000Z</time>
      </trkpt>
      <trkpt lat="44.34704" lon="4.11853">
        <ele>312</ele>
        <time>2025-04-11T09:49:41.000Z</time>
      </trkpt>
      <trkpt lat="44.34709" lon="4.11843">
        <ele>312</ele>
        <time>2025-04-11T09:49:51.000Z</time>
      </trkpt>
      <trkpt lat="44.34715" lon="4.11836">
        <ele>311</ele>
        <time>2025-04-11T09:50:07.000Z</time>
      </trkpt>
      <trkpt lat="44.34721" lon="4.11844">
        <ele>310</ele>
        <time>2025-04-11T09:50:31.000Z</time>
      </trkpt>
      <trkpt lat="44.34726" lon="4.11856">
        <ele>310</ele>
        <time>2025-04-11T09:50:55.000Z</time>
      </trkpt>
      <trkpt lat="44.34734" lon="4.11865">
        <ele>311</ele>
        <time>2025-04-11T09:51:01.000Z</time>
      </trkpt>
      <trkpt lat="44.34742" lon="4.11873">
        <ele>311</ele>
        <time>2025-04-11T09:51:08.000Z</time>
      </trkpt>
      <trkpt lat="44.34751" lon="4.11878">
        <ele>312</ele>
        <time>2025-04-11T09:51:19.000Z</time>
      </trkpt>
      <trkpt lat="44.34761" lon="4.11874">
        <ele>312</ele>
        <time>2025-04-11T09:51:37.000Z</time>
      </trkpt>
      <trkpt lat="44.34769" lon="4.11866">
        <ele>311</ele>
        <time>2025-04-11T09:51:47.000Z</time>
      </trkpt>
      <trkpt lat="44.34779" lon="4.1186">
        <ele>311</ele>
        <time>2025-04-11T09:51:57.000Z</time>
      </trkpt>
      <trkpt lat="44.34787" lon="4.11853">
        <ele>311</ele>
        <time>2025-04-11T09:52:03.000Z</time>
      </trkpt>
      <trkpt lat="44.34792" lon="4.11844">
        <ele>310</ele>
        <time>2025-04-11T09:52:11.000Z</time>
      </trkpt>
      <trkpt lat="44.3479" lon="4.11833">
        <ele>310</ele>
        <time>2025-04-11T09:52:20.000Z</time>
      </trkpt>
      <trkpt lat="44.34795" lon="4.11827">
        <ele>310</ele>
        <time>2025-04-11T09:52:39.000Z</time>
      </trkpt>
      <trkpt lat="44.348" lon="4.11835">
        <ele>310</ele>
        <time>2025-04-11T09:52:51.000Z</time>
      </trkpt>
      <trkpt lat="44.34808" lon="4.11838">
        <ele>310</ele>
        <time>2025-04-11T09:53:39.000Z</time>
      </trkpt>
      <trkpt lat="44.34811" lon="4.11827">
        <ele>310</ele>
        <time>2025-04-11T09:53:54.000Z</time>
      </trkpt>
      <trkpt lat="44.34807" lon="4.11816">
        <ele>310</ele>
        <time>2025-04-11T09:54:02.000Z</time>
      </trkpt>
      <trkpt lat="44.34802" lon="4.11806">
        <ele>311</ele>
        <time>2025-04-11T09:54:13.000Z</time>
      </trkpt>
      <trkpt lat="44.348" lon="4.11795">
        <ele>312</ele>
        <time>2025-04-11T09:54:24.000Z</time>
      </trkpt>
      <trkpt lat="44.34805" lon="4.11787">
        <ele>313</ele>
        <time>2025-04-11T09:54:35.000Z</time>
      </trkpt>
      <trkpt lat="44.34811" lon="4.11788">
        <ele>313</ele>
        <time>2025-04-11T09:54:57.000Z</time>
      </trkpt>
      <trkpt lat="44.34806" lon="4.11795">
        <ele>313</ele>
        <time>2025-04-11T09:56:39.000Z</time>
      </trkpt>
      <trkpt lat="44.34804" lon="4.11807">
        <ele>312</ele>
        <time>2025-04-11T09:56:49.000Z</time>
      </trkpt>
      <trkpt lat="44.34806" lon="4.11818">
        <ele>312</ele>
        <time>2025-04-11T09:56:59.000Z</time>
      </trkpt>
      <trkpt lat="44.3481" lon="4.1183">
        <ele>312</ele>
        <time>2025-04-11T09:57:10.000Z</time>
      </trkpt>
      <trkpt lat="44.3481" lon="4.1184">
        <ele>313</ele>
        <time>2025-04-11T09:57:25.000Z</time>
      </trkpt>
      <trkpt lat="44.34818" lon="4.11844">
        <ele>313</ele>
        <time>2025-04-11T09:58:17.000Z</time>
      </trkpt>
      <trkpt lat="44.34826" lon="4.11851">
        <ele>313</ele>
        <time>2025-04-11T09:58:27.000Z</time>
      </trkpt>
      <trkpt lat="44.34836" lon="4.11854">
        <ele>313</ele>
        <time>2025-04-11T09:59:05.000Z</time>
      </trkpt>
      <trkpt lat="44.34846" lon="4.11855">
        <ele>312</ele>
        <time>2025-04-11T09:59:13.000Z</time>
      </trkpt>
      <trkpt lat="44.34854" lon="4.11855">
        <ele>312</ele>
        <time>2025-04-11T09:59:20.000Z</time>
      </trkpt>
      <trkpt lat="44.34863" lon="4.11856">
        <ele>312</ele>
        <time>2025-04-11T09:59:30.000Z</time>
      </trkpt>
      <trkpt lat="44.34873" lon="4.11857">
        <ele>312</ele>
        <time>2025-04-11T09:59:37.000Z</time>
      </trkpt>
      <trkpt lat="44.34882" lon="4.11856">
        <ele>312</ele>
        <time>2025-04-11T09:59:45.000Z</time>
      </trkpt>
      <trkpt lat="44.34891" lon="4.11853">
        <ele>311</ele>
        <time>2025-04-11T09:59:56.000Z</time>
      </trkpt>
      <trkpt lat="44.34901" lon="4.11854">
        <ele>310</ele>
        <time>2025-04-11T10:00:06.000Z</time>
      </trkpt>
      <trkpt lat="44.3491" lon="4.11856">
        <ele>310</ele>
        <time>2025-04-11T10:00:31.000Z</time>
      </trkpt>
      <trkpt lat="44.3492" lon="4.11857">
        <ele>310</ele>
        <time>2025-04-11T10:00:40.000Z</time>
      </trkpt>
      <trkpt lat="44.34929" lon="4.11858">
        <ele>310</ele>
        <time>2025-04-11T10:00:48.000Z</time>
      </trkpt>
      <trkpt lat="44.34939" lon="4.1186">
        <ele>311</ele>
        <time>2025-04-11T10:00:56.000Z</time>
      </trkpt>
      <trkpt lat="44.34949" lon="4.11862">
        <ele>312</ele>
        <time>2025-04-11T10:01:04.000Z</time>
      </trkpt>
      <trkpt lat="44.3496" lon="4.11861">
        <ele>312</ele>
        <time>2025-04-11T10:01:14.000Z</time>
      </trkpt>
      <trkpt lat="44.3497" lon="4.11859">
        <ele>313</ele>
        <time>2025-04-11T10:01:22.000Z</time>
      </trkpt>
      <trkpt lat="44.34979" lon="4.11856">
        <ele>313</ele>
        <time>2025-04-11T10:01:29.000Z</time>
      </trkpt>
      <trkpt lat="44.34989" lon="4.11856">
        <ele>313</ele>
        <time>2025-04-11T10:01:39.000Z</time>
      </trkpt>
      <trkpt lat="44.34999" lon="4.11854">
        <ele>313</ele>
        <time>2025-04-11T10:01:48.000Z</time>
      </trkpt>
      <trkpt lat="44.35007" lon="4.11849">
        <ele>313</ele>
        <time>2025-04-11T10:01:58.000Z</time>
      </trkpt>
      <trkpt lat="44.35014" lon="4.11842">
        <ele>312</ele>
        <time>2025-04-11T10:02:05.000Z</time>
      </trkpt>
      <trkpt lat="44.35022" lon="4.11833">
        <ele>311</ele>
        <time>2025-04-11T10:02:14.000Z</time>
      </trkpt>
      <trkpt lat="44.35028" lon="4.11824">
        <ele>310</ele>
        <time>2025-04-11T10:02:24.000Z</time>
      </trkpt>
      <trkpt lat="44.35031" lon="4.11812">
        <ele>311</ele>
        <time>2025-04-11T10:02:31.000Z</time>
      </trkpt>
      <trkpt lat="44.35035" lon="4.11798">
        <ele>312</ele>
        <time>2025-04-11T10:02:41.000Z</time>
      </trkpt>
      <trkpt lat="44.35037" lon="4.11784">
        <ele>314</ele>
        <time>2025-04-11T10:02:52.000Z</time>
      </trkpt>
      <trkpt lat="44.35036" lon="4.11773">
        <ele>316</ele>
        <time>2025-04-11T10:03:00.000Z</time>
      </trkpt>
      <trkpt lat="44.35031" lon="4.1177">
        <ele>317</ele>
        <time>2025-04-11T10:03:26.000Z</time>
      </trkpt>
      <trkpt lat="44.35036" lon="4.11772">
        <ele>318</ele>
        <time>2025-04-11T10:04:08.000Z</time>
      </trkpt>
      <trkpt lat="44.35029" lon="4.1177">
        <ele>319</ele>
        <time>2025-04-11T10:05:10.000Z</time>
      </trkpt>
      <trkpt lat="44.3502" lon="4.11763">
        <ele>321</ele>
        <time>2025-04-11T10:05:18.000Z</time>
      </trkpt>
      <trkpt lat="44.35014" lon="4.11754">
        <ele>323</ele>
        <time>2025-04-11T10:05:26.000Z</time>
      </trkpt>
      <trkpt lat="44.35013" lon="4.11743">
        <ele>324</ele>
        <time>2025-04-11T10:05:36.000Z</time>
      </trkpt>
      <trkpt lat="44.35005" lon="4.11746">
        <ele>325</ele>
        <time>2025-04-11T10:06:00.000Z</time>
      </trkpt>
      <trkpt lat="44.34998" lon="4.11755">
        <ele>327</ele>
        <time>2025-04-11T10:06:10.000Z</time>
      </trkpt>
      <trkpt lat="44.34992" lon="4.11764">
        <ele>329</ele>
        <time>2025-04-11T10:06:58.000Z</time>
      </trkpt>
      <trkpt lat="44.34987" lon="4.11772">
        <ele>330</ele>
        <time>2025-04-11T10:07:12.000Z</time>
      </trkpt>
      <trkpt lat="44.34982" lon="4.11762">
        <ele>333</ele>
        <time>2025-04-11T10:07:22.000Z</time>
      </trkpt>
      <trkpt lat="44.34977" lon="4.11752">
        <ele>334</ele>
        <time>2025-04-11T10:07:44.000Z</time>
      </trkpt>
      <trkpt lat="44.34969" lon="4.11754">
        <ele>336</ele>
        <time>2025-04-11T10:07:56.000Z</time>
      </trkpt>
      <trkpt lat="44.3496" lon="4.11756">
        <ele>337</ele>
        <time>2025-04-11T10:08:08.000Z</time>
      </trkpt>
      <trkpt lat="44.34953" lon="4.11749">
        <ele>338</ele>
        <time>2025-04-11T10:08:21.000Z</time>
      </trkpt>
      <trkpt lat="44.34947" lon="4.11736">
        <ele>338</ele>
        <time>2025-04-11T10:09:08.000Z</time>
      </trkpt>
      <trkpt lat="44.3494" lon="4.11732">
        <ele>337</ele>
        <time>2025-04-11T10:09:16.000Z</time>
      </trkpt>
      <trkpt lat="44.34931" lon="4.11735">
        <ele>337</ele>
        <time>2025-04-11T10:09:28.000Z</time>
      </trkpt>
      <trkpt lat="44.34921" lon="4.11733">
        <ele>336</ele>
        <time>2025-04-11T10:09:38.000Z</time>
      </trkpt>
      <trkpt lat="44.34912" lon="4.11731">
        <ele>336</ele>
        <time>2025-04-11T10:09:48.000Z</time>
      </trkpt>
      <trkpt lat="44.34904" lon="4.11726">
        <ele>336</ele>
        <time>2025-04-11T10:09:56.000Z</time>
      </trkpt>
      <trkpt lat="44.34895" lon="4.11724">
        <ele>335</ele>
        <time>2025-04-11T10:10:06.000Z</time>
      </trkpt>
      <trkpt lat="44.34886" lon="4.11719">
        <ele>335</ele>
        <time>2025-04-11T10:10:14.000Z</time>
      </trkpt>
      <trkpt lat="44.34878" lon="4.11715">
        <ele>335</ele>
        <time>2025-04-11T10:10:21.000Z</time>
      </trkpt>
      <trkpt lat="44.34869" lon="4.11713">
        <ele>334</ele>
        <time>2025-04-11T10:10:30.000Z</time>
      </trkpt>
      <trkpt lat="44.34862" lon="4.11706">
        <ele>335</ele>
        <time>2025-04-11T10:10:40.000Z</time>
      </trkpt>
      <trkpt lat="44.3486" lon="4.11694">
        <ele>336</ele>
        <time>2025-04-11T10:10:53.000Z</time>
      </trkpt>
      <trkpt lat="44.34859" lon="4.1168">
        <ele>337</ele>
        <time>2025-04-11T10:11:04.000Z</time>
      </trkpt>
      <trkpt lat="44.34856" lon="4.11666">
        <ele>339</ele>
        <time>2025-04-11T10:11:15.000Z</time>
      </trkpt>
      <trkpt lat="44.34852" lon="4.11657">
        <ele>340</ele>
        <time>2025-04-11T10:11:28.000Z</time>
      </trkpt>
      <trkpt lat="44.34844" lon="4.11658">
        <ele>340</ele>
        <time>2025-04-11T10:12:04.000Z</time>
      </trkpt>
      <trkpt lat="44.34836" lon="4.11654">
        <ele>340</ele>
        <time>2025-04-11T10:12:11.000Z</time>
      </trkpt>
      <trkpt lat="44.34827" lon="4.11657">
        <ele>340</ele>
        <time>2025-04-11T10:12:20.000Z</time>
      </trkpt>
      <trkpt lat="44.34819" lon="4.11663">
        <ele>339</ele>
        <time>2025-04-11T10:12:30.000Z</time>
      </trkpt>
      <trkpt lat="44.34811" lon="4.11661">
        <ele>338</ele>
        <time>2025-04-11T10:12:39.000Z</time>
      </trkpt>
      <trkpt lat="44.34802" lon="4.11662">
        <ele>338</ele>
        <time>2025-04-11T10:13:00.000Z</time>
      </trkpt>
      <trkpt lat="44.34792" lon="4.11663">
        <ele>339</ele>
        <time>2025-04-11T10:13:08.000Z</time>
      </trkpt>
      <trkpt lat="44.34783" lon="4.11659">
        <ele>340</ele>
        <time>2025-04-11T10:13:14.000Z</time>
      </trkpt>
      <trkpt lat="44.34775" lon="4.1165">
        <ele>341</ele>
        <time>2025-04-11T10:13:22.000Z</time>
      </trkpt>
      <trkpt lat="44.34767" lon="4.11644">
        <ele>342</ele>
        <time>2025-04-11T10:13:30.000Z</time>
      </trkpt>
      <trkpt lat="44.34757" lon="4.11646">
        <ele>342</ele>
        <time>2025-04-11T10:14:08.000Z</time>
      </trkpt>
      <trkpt lat="44.34748" lon="4.11651">
        <ele>342</ele>
        <time>2025-04-11T10:14:16.000Z</time>
      </trkpt>
      <trkpt lat="44.34738" lon="4.11657">
        <ele>342</ele>
        <time>2025-04-11T10:14:28.000Z</time>
      </trkpt>
      <trkpt lat="44.34729" lon="4.11661">
        <ele>342</ele>
        <time>2025-04-11T10:14:36.000Z</time>
      </trkpt>
      <trkpt lat="44.34721" lon="4.11664">
        <ele>341</ele>
        <time>2025-04-11T10:14:44.000Z</time>
      </trkpt>
      <trkpt lat="44.34717" lon="4.11675">
        <ele>340</ele>
        <time>2025-04-11T10:14:56.000Z</time>
      </trkpt>
      <trkpt lat="44.34714" lon="4.11687">
        <ele>339</ele>
        <time>2025-04-11T10:15:14.000Z</time>
      </trkpt>
      <trkpt lat="44.34708" lon="4.11696">
        <ele>338</ele>
        <time>2025-04-11T10:15:24.000Z</time>
      </trkpt>
      <trkpt lat="44.34699" lon="4.11701">
        <ele>337</ele>
        <time>2025-04-11T10:15:34.000Z</time>
      </trkpt>
      <trkpt lat="44.34689" lon="4.11702">
        <ele>336</ele>
        <time>2025-04-11T10:15:42.000Z</time>
      </trkpt>
      <trkpt lat="44.3468" lon="4.11703">
        <ele>336</ele>
        <time>2025-04-11T10:15:54.000Z</time>
      </trkpt>
      <trkpt lat="44.34672" lon="4.11696">
        <ele>337</ele>
        <time>2025-04-11T10:16:08.000Z</time>
      </trkpt>
      <trkpt lat="44.34666" lon="4.11687">
        <ele>338</ele>
        <time>2025-04-11T10:16:14.000Z</time>
      </trkpt>
      <trkpt lat="44.34658" lon="4.11684">
        <ele>338</ele>
        <time>2025-04-11T10:16:21.000Z</time>
      </trkpt>
      <trkpt lat="44.34649" lon="4.11683">
        <ele>338</ele>
        <time>2025-04-11T10:16:31.000Z</time>
      </trkpt>
      <trkpt lat="44.34643" lon="4.11693">
        <ele>338</ele>
        <time>2025-04-11T10:16:43.000Z</time>
      </trkpt>
      <trkpt lat="44.34642" lon="4.11706">
        <ele>338</ele>
        <time>2025-04-11T10:17:11.000Z</time>
      </trkpt>
      <trkpt lat="44.34647" lon="4.11718">
        <ele>337</ele>
        <time>2025-04-11T10:17:34.000Z</time>
      </trkpt>
      <trkpt lat="44.34647" lon="4.11731">
        <ele>336</ele>
        <time>2025-04-11T10:17:44.000Z</time>
      </trkpt>
      <trkpt lat="44.34644" lon="4.11742">
        <ele>334</ele>
        <time>2025-04-11T10:17:53.000Z</time>
      </trkpt>
      <trkpt lat="44.34641" lon="4.11755">
        <ele>332</ele>
        <time>2025-04-11T10:18:04.000Z</time>
      </trkpt>
      <trkpt lat="44.34645" lon="4.11766">
        <ele>329</ele>
        <time>2025-04-11T10:18:14.000Z</time>
      </trkpt>
      <trkpt lat="44.34649" lon="4.11779">
        <ele>327</ele>
        <time>2025-04-11T10:18:22.000Z</time>
      </trkpt>
      <trkpt lat="44.34651" lon="4.11791">
        <ele>326</ele>
        <time>2025-04-11T10:18:32.000Z</time>
      </trkpt>
      <trkpt lat="44.3465" lon="4.11804">
        <ele>325</ele>
        <time>2025-04-11T10:18:42.000Z</time>
      </trkpt>
      <trkpt lat="44.34648" lon="4.11818">
        <ele>325</ele>
        <time>2025-04-11T10:18:52.000Z</time>
      </trkpt>
      <trkpt lat="44.34645" lon="4.11829">
        <ele>324</ele>
        <time>2025-04-11T10:19:03.000Z</time>
      </trkpt>
      <trkpt lat="44.34643" lon="4.11841">
        <ele>324</ele>
        <time>2025-04-11T10:19:14.000Z</time>
      </trkpt>
      <trkpt lat="44.34638" lon="4.11853">
        <ele>324</ele>
        <time>2025-04-11T10:19:23.000Z</time>
      </trkpt>
      <trkpt lat="44.34632" lon="4.11863">
        <ele>324</ele>
        <time>2025-04-11T10:19:33.000Z</time>
      </trkpt>
      <trkpt lat="44.34625" lon="4.11873">
        <ele>324</ele>
        <time>2025-04-11T10:19:46.000Z</time>
      </trkpt>
      <trkpt lat="44.34617" lon="4.1188">
        <ele>324</ele>
        <time>2025-04-11T10:19:59.000Z</time>
      </trkpt>
      <trkpt lat="44.34611" lon="4.11889">
        <ele>324</ele>
        <time>2025-04-11T10:20:09.000Z</time>
      </trkpt>
      <trkpt lat="44.34605" lon="4.11901">
        <ele>323</ele>
        <time>2025-04-11T10:20:24.000Z</time>
      </trkpt>
      <trkpt lat="44.346" lon="4.11911">
        <ele>322</ele>
        <time>2025-04-11T10:20:30.000Z</time>
      </trkpt>
      <trkpt lat="44.34597" lon="4.11924">
        <ele>321</ele>
        <time>2025-04-11T10:20:38.000Z</time>
      </trkpt>
      <trkpt lat="44.34592" lon="4.11934">
        <ele>319</ele>
        <time>2025-04-11T10:20:48.000Z</time>
      </trkpt>
      <trkpt lat="44.34585" lon="4.11943">
        <ele>317</ele>
        <time>2025-04-11T10:20:57.000Z</time>
      </trkpt>
      <trkpt lat="44.34578" lon="4.11951">
        <ele>316</ele>
        <time>2025-04-11T10:21:07.000Z</time>
      </trkpt>
      <trkpt lat="44.34571" lon="4.11955">
        <ele>314</ele>
        <time>2025-04-11T10:21:16.000Z</time>
      </trkpt>
      <trkpt lat="44.34567" lon="4.11965">
        <ele>313</ele>
        <time>2025-04-11T10:21:25.000Z</time>
      </trkpt>
      <trkpt lat="44.34564" lon="4.11976">
        <ele>313</ele>
        <time>2025-04-11T10:21:36.000Z</time>
      </trkpt>
      <trkpt lat="44.34557" lon="4.11984">
        <ele>312</ele>
        <time>2025-04-11T10:21:46.000Z</time>
      </trkpt>
      <trkpt lat="44.34551" lon="4.11995">
        <ele>311</ele>
        <time>2025-04-11T10:21:56.000Z</time>
      </trkpt>
      <trkpt lat="44.34546" lon="4.12005">
        <ele>310</ele>
        <time>2025-04-11T10:22:05.000Z</time>
      </trkpt>
      <trkpt lat="44.34539" lon="4.12015">
        <ele>310</ele>
        <time>2025-04-11T10:22:16.000Z</time>
      </trkpt>
      <trkpt lat="44.34533" lon="4.12025">
        <ele>309</ele>
        <time>2025-04-11T10:22:22.000Z</time>
      </trkpt>
      <trkpt lat="44.34529" lon="4.12035">
        <ele>309</ele>
        <time>2025-04-11T10:22:30.000Z</time>
      </trkpt>
      <trkpt lat="44.34521" lon="4.12034">
        <ele>309</ele>
        <time>2025-04-11T10:22:52.000Z</time>
      </trkpt>
      <trkpt lat="44.34512" lon="4.12038">
        <ele>308</ele>
        <time>2025-04-11T10:23:02.000Z</time>
      </trkpt>
      <trkpt lat="44.34503" lon="4.12045">
        <ele>307</ele>
        <time>2025-04-11T10:23:09.000Z</time>
      </trkpt>
      <trkpt lat="44.34496" lon="4.12054">
        <ele>306</ele>
        <time>2025-04-11T10:23:18.000Z</time>
      </trkpt>
      <trkpt lat="44.34488" lon="4.12065">
        <ele>304</ele>
        <time>2025-04-11T10:23:28.000Z</time>
      </trkpt>
      <trkpt lat="44.3448" lon="4.12072">
        <ele>303</ele>
        <time>2025-04-11T10:23:36.000Z</time>
      </trkpt>
      <trkpt lat="44.34471" lon="4.12076">
        <ele>301</ele>
        <time>2025-04-11T10:23:44.000Z</time>
      </trkpt>
      <trkpt lat="44.34461" lon="4.12075">
        <ele>300</ele>
        <time>2025-04-11T10:23:52.000Z</time>
      </trkpt>
      <trkpt lat="44.34452" lon="4.12072">
        <ele>299</ele>
        <time>2025-04-11T10:24:02.000Z</time>
      </trkpt>
      <trkpt lat="44.34444" lon="4.12064">
        <ele>299</ele>
        <time>2025-04-11T10:24:12.000Z</time>
      </trkpt>
      <trkpt lat="44.34439" lon="4.12051">
        <ele>299</ele>
        <time>2025-04-11T10:24:20.000Z</time>
      </trkpt>
      <trkpt lat="44.34436" lon="4.12039">
        <ele>299</ele>
        <time>2025-04-11T10:24:28.000Z</time>
      </trkpt>
      <trkpt lat="44.34432" lon="4.12029">
        <ele>299</ele>
        <time>2025-04-11T10:24:35.000Z</time>
      </trkpt>
      <trkpt lat="44.34428" lon="4.12018">
        <ele>301</ele>
        <time>2025-04-11T10:24:45.000Z</time>
      </trkpt>
      <trkpt lat="44.34421" lon="4.1201">
        <ele>302</ele>
        <time>2025-04-11T10:24:54.000Z</time>
      </trkpt>
      <trkpt lat="44.34413" lon="4.12006">
        <ele>304</ele>
        <time>2025-04-11T10:25:02.000Z</time>
      </trkpt>
      <trkpt lat="44.34407" lon="4.11996">
        <ele>305</ele>
        <time>2025-04-11T10:25:38.000Z</time>
      </trkpt>
      <trkpt lat="44.34401" lon="4.12001">
        <ele>305</ele>
        <time>2025-04-11T10:27:08.000Z</time>
      </trkpt>
      <trkpt lat="44.34396" lon="4.11993">
        <ele>305</ele>
        <time>2025-04-11T10:27:39.000Z</time>
      </trkpt>
      <trkpt lat="44.34391" lon="4.11981">
        <ele>305</ele>
        <time>2025-04-11T10:27:51.000Z</time>
      </trkpt>
      <trkpt lat="44.34383" lon="4.11974">
        <ele>305</ele>
        <time>2025-04-11T10:30:38.000Z</time>
      </trkpt>
      <trkpt lat="44.34374" lon="4.1197">
        <ele>306</ele>
        <time>2025-04-11T10:30:42.000Z</time>
      </trkpt>
      <trkpt lat="44.34368" lon="4.1196">
        <ele>305</ele>
        <time>2025-04-11T10:30:50.000Z</time>
      </trkpt>
      <trkpt lat="44.3436" lon="4.11953">
        <ele>305</ele>
        <time>2025-04-11T10:30:57.000Z</time>
      </trkpt>
      <trkpt lat="44.34355" lon="4.11944">
        <ele>304</ele>
        <time>2025-04-11T10:31:14.000Z</time>
      </trkpt>
      <trkpt lat="44.34352" lon="4.1195">
        <ele>303</ele>
        <time>2025-04-11T10:31:34.000Z</time>
      </trkpt>
      <trkpt lat="44.34355" lon="4.11943">
        <ele>301</ele>
        <time>2025-04-11T10:31:56.000Z</time>
      </trkpt>
      <trkpt lat="44.34353" lon="4.11932">
        <ele>301</ele>
        <time>2025-04-11T10:32:03.000Z</time>
      </trkpt>
      <trkpt lat="44.34347" lon="4.11922">
        <ele>301</ele>
        <time>2025-04-11T10:32:10.000Z</time>
      </trkpt>
      <trkpt lat="44.34341" lon="4.11909">
        <ele>303</ele>
        <time>2025-04-11T10:32:18.000Z</time>
      </trkpt>
      <trkpt lat="44.34335" lon="4.11898">
        <ele>305</ele>
        <time>2025-04-11T10:32:28.000Z</time>
      </trkpt>
      <trkpt lat="44.34333" lon="4.11888">
        <ele>307</ele>
        <time>2025-04-11T10:33:14.000Z</time>
      </trkpt>
      <trkpt lat="44.34337" lon="4.11896">
        <ele>307</ele>
        <time>2025-04-11T10:34:20.000Z</time>
      </trkpt>
      <trkpt lat="44.34343" lon="4.11907">
        <ele>307</ele>
        <time>2025-04-11T10:34:27.000Z</time>
      </trkpt>
      <trkpt lat="44.34342" lon="4.11917">
        <ele>307</ele>
        <time>2025-04-11T10:34:38.000Z</time>
      </trkpt>
      <trkpt lat="44.34334" lon="4.1192">
        <ele>307</ele>
        <time>2025-04-11T10:34:44.000Z</time>
      </trkpt>
      <trkpt lat="44.34325" lon="4.1192">
        <ele>307</ele>
        <time>2025-04-11T10:34:50.000Z</time>
      </trkpt>
      <trkpt lat="44.34317" lon="4.11917">
        <ele>307</ele>
        <time>2025-04-11T10:34:56.000Z</time>
      </trkpt>
      <trkpt lat="44.34313" lon="4.11909">
        <ele>308</ele>
        <time>2025-04-11T10:35:06.000Z</time>
      </trkpt>
      <trkpt lat="44.34318" lon="4.11902">
        <ele>309</ele>
        <time>2025-04-11T10:35:18.000Z</time>
      </trkpt>
      <trkpt lat="44.34318" lon="4.11891">
        <ele>311</ele>
        <time>2025-04-11T10:35:43.000Z</time>
      </trkpt>
      <trkpt lat="44.34312" lon="4.11883">
        <ele>312</ele>
        <time>2025-04-11T10:35:50.000Z</time>
      </trkpt>
      <trkpt lat="44.34309" lon="4.1187">
        <ele>313</ele>
        <time>2025-04-11T10:36:26.000Z</time>
      </trkpt>
      <trkpt lat="44.34309" lon="4.11857">
        <ele>315</ele>
        <time>2025-04-11T10:36:34.000Z</time>
      </trkpt>
      <trkpt lat="44.34304" lon="4.11849">
        <ele>317</ele>
        <time>2025-04-11T10:36:46.000Z</time>
      </trkpt>
      <trkpt lat="44.34295" lon="4.11854">
        <ele>319</ele>
        <time>2025-04-11T10:36:58.000Z</time>
      </trkpt>
      <trkpt lat="44.34287" lon="4.11858">
        <ele>322</ele>
        <time>2025-04-11T10:37:14.000Z</time>
      </trkpt>
      <trkpt lat="44.34277" lon="4.11854">
        <ele>324</ele>
        <time>2025-04-11T10:37:44.000Z</time>
      </trkpt>
      <trkpt lat="44.34269" lon="4.11856">
        <ele>326</ele>
        <time>2025-04-11T10:37:52.000Z</time>
      </trkpt>
      <trkpt lat="44.34263" lon="4.11863">
        <ele>328</ele>
        <time>2025-04-11T10:38:00.000Z</time>
      </trkpt>
      <trkpt lat="44.34257" lon="4.11856">
        <ele>329</ele>
        <time>2025-04-11T10:38:25.000Z</time>
      </trkpt>
      <trkpt lat="44.3425" lon="4.11844">
        <ele>330</ele>
        <time>2025-04-11T10:38:37.000Z</time>
      </trkpt>
      <trkpt lat="44.34243" lon="4.11836">
        <ele>330</ele>
        <time>2025-04-11T10:38:46.000Z</time>
      </trkpt>
      <trkpt lat="44.34237" lon="4.1183">
        <ele>331</ele>
        <time>2025-04-11T10:38:57.000Z</time>
      </trkpt>
      <trkpt lat="44.34239" lon="4.11819">
        <ele>332</ele>
        <time>2025-04-11T10:40:24.000Z</time>
      </trkpt>
      <trkpt lat="44.34246" lon="4.11808">
        <ele>333</ele>
        <time>2025-04-11T10:40:33.000Z</time>
      </trkpt>
      <trkpt lat="44.34255" lon="4.11802">
        <ele>334</ele>
        <time>2025-04-11T10:40:45.000Z</time>
      </trkpt>
      <trkpt lat="44.34263" lon="4.11794">
        <ele>335</ele>
        <time>2025-04-11T10:40:55.000Z</time>
      </trkpt>
      <trkpt lat="44.34272" lon="4.11788">
        <ele>337</ele>
        <time>2025-04-11T10:41:04.000Z</time>
      </trkpt>
      <trkpt lat="44.34281" lon="4.11782">
        <ele>339</ele>
        <time>2025-04-11T10:41:15.000Z</time>
      </trkpt>
      <trkpt lat="44.34288" lon="4.11773">
        <ele>341</ele>
        <time>2025-04-11T10:41:22.000Z</time>
      </trkpt>
      <trkpt lat="44.34294" lon="4.11763">
        <ele>343</ele>
        <time>2025-04-11T10:41:30.000Z</time>
      </trkpt>
      <trkpt lat="44.34298" lon="4.11752">
        <ele>344</ele>
        <time>2025-04-11T10:41:39.000Z</time>
      </trkpt>
      <trkpt lat="44.34299" lon="4.11739">
        <ele>346</ele>
        <time>2025-04-11T10:41:49.000Z</time>
      </trkpt>
      <trkpt lat="44.34298" lon="4.11725">
        <ele>347</ele>
        <time>2025-04-11T10:41:59.000Z</time>
      </trkpt>
      <trkpt lat="44.343" lon="4.11712">
        <ele>347</ele>
        <time>2025-04-11T10:42:06.000Z</time>
      </trkpt>
      <trkpt lat="44.34302" lon="4.117">
        <ele>347</ele>
        <time>2025-04-11T10:42:14.000Z</time>
      </trkpt>
      <trkpt lat="44.34303" lon="4.11687">
        <ele>346</ele>
        <time>2025-04-11T10:42:22.000Z</time>
      </trkpt>
      <trkpt lat="44.34303" lon="4.11673">
        <ele>346</ele>
        <time>2025-04-11T10:42:34.000Z</time>
      </trkpt>
      <trkpt lat="44.34303" lon="4.1166">
        <ele>346</ele>
        <time>2025-04-11T10:42:46.000Z</time>
      </trkpt>
      <trkpt lat="44.34299" lon="4.11647">
        <ele>347</ele>
        <time>2025-04-11T10:42:56.000Z</time>
      </trkpt>
      <trkpt lat="44.34296" lon="4.11635">
        <ele>348</ele>
        <time>2025-04-11T10:43:05.000Z</time>
      </trkpt>
      <trkpt lat="44.34295" lon="4.11622">
        <ele>349</ele>
        <time>2025-04-11T10:43:13.000Z</time>
      </trkpt>
      <trkpt lat="44.34298" lon="4.11611">
        <ele>350</ele>
        <time>2025-04-11T10:43:21.000Z</time>
      </trkpt>
      <trkpt lat="44.34301" lon="4.11599">
        <ele>352</ele>
        <time>2025-04-11T10:43:29.000Z</time>
      </trkpt>
      <trkpt lat="44.34302" lon="4.11586">
        <ele>353</ele>
        <time>2025-04-11T10:43:39.000Z</time>
      </trkpt>
      <trkpt lat="44.34302" lon="4.11572">
        <ele>354</ele>
        <time>2025-04-11T10:43:47.000Z</time>
      </trkpt>
      <trkpt lat="44.34303" lon="4.11558">
        <ele>354</ele>
        <time>2025-04-11T10:43:55.000Z</time>
      </trkpt>
      <trkpt lat="44.34305" lon="4.11545">
        <ele>354</ele>
        <time>2025-04-11T10:44:03.000Z</time>
      </trkpt>
      <trkpt lat="44.34308" lon="4.11533">
        <ele>353</ele>
        <time>2025-04-11T10:44:13.000Z</time>
      </trkpt>
      <trkpt lat="44.34313" lon="4.11524">
        <ele>353</ele>
        <time>2025-04-11T10:44:21.000Z</time>
      </trkpt>
      <trkpt lat="44.34313" lon="4.11533">
        <ele>353</ele>
        <time>2025-04-11T10:44:43.000Z</time>
      </trkpt>
      <trkpt lat="44.3431" lon="4.11546">
        <ele>352</ele>
        <time>2025-04-11T10:44:52.000Z</time>
      </trkpt>
      <trkpt lat="44.34309" lon="4.1156">
        <ele>352</ele>
        <time>2025-04-11T10:45:03.000Z</time>
      </trkpt>
      <trkpt lat="44.34309" lon="4.11574">
        <ele>351</ele>
        <time>2025-04-11T10:45:11.000Z</time>
      </trkpt>
      <trkpt lat="44.34306" lon="4.11587">
        <ele>350</ele>
        <time>2025-04-11T10:45:16.000Z</time>
      </trkpt>
      <trkpt lat="44.34305" lon="4.116">
        <ele>349</ele>
        <time>2025-04-11T10:45:26.000Z</time>
      </trkpt>
      <trkpt lat="44.34301" lon="4.11612">
        <ele>349</ele>
        <time>2025-04-11T10:45:37.000Z</time>
      </trkpt>
      <trkpt lat="44.34298" lon="4.11625">
        <ele>348</ele>
        <time>2025-04-11T10:45:48.000Z</time>
      </trkpt>
      <trkpt lat="44.34302" lon="4.1164">
        <ele>347</ele>
        <time>2025-04-11T10:46:01.000Z</time>
      </trkpt>
      <trkpt lat="44.34306" lon="4.11652">
        <ele>347</ele>
        <time>2025-04-11T10:46:09.000Z</time>
      </trkpt>
      <trkpt lat="44.34309" lon="4.11662">
        <ele>346</ele>
        <time>2025-04-11T10:46:19.000Z</time>
      </trkpt>
      <trkpt lat="44.34305" lon="4.11653">
        <ele>346</ele>
        <time>2025-04-11T10:46:33.000Z</time>
      </trkpt>
      <trkpt lat="44.343" lon="4.1164">
        <ele>346</ele>
        <time>2025-04-11T10:46:45.000Z</time>
      </trkpt>
      <trkpt lat="44.34297" lon="4.11629">
        <ele>346</ele>
        <time>2025-04-11T10:46:53.000Z</time>
      </trkpt>
      <trkpt lat="44.34303" lon="4.11626">
        <ele>346</ele>
        <time>2025-04-11T10:47:01.000Z</time>
      </trkpt>
      <trkpt lat="44.34309" lon="4.11636">
        <ele>347</ele>
        <time>2025-04-11T10:47:19.000Z</time>
      </trkpt>
      <trkpt lat="44.34314" lon="4.11647">
        <ele>347</ele>
        <time>2025-04-11T10:47:27.000Z</time>
      </trkpt>
      <trkpt lat="44.34321" lon="4.11656">
        <ele>347</ele>
        <time>2025-04-11T10:47:35.000Z</time>
      </trkpt>
      <trkpt lat="44.34327" lon="4.11665">
        <ele>348</ele>
        <time>2025-04-11T10:47:43.000Z</time>
      </trkpt>
      <trkpt lat="44.34335" lon="4.11674">
        <ele>349</ele>
        <time>2025-04-11T10:47:53.000Z</time>
      </trkpt>
      <trkpt lat="44.34345" lon="4.11671">
        <ele>350</ele>
        <time>2025-04-11T10:48:04.000Z</time>
      </trkpt>
      <trkpt lat="44.34352" lon="4.11663">
        <ele>351</ele>
        <time>2025-04-11T10:48:13.000Z</time>
      </trkpt>
      <trkpt lat="44.34357" lon="4.11653">
        <ele>351</ele>
        <time>2025-04-11T10:48:21.000Z</time>
      </trkpt>
      <trkpt lat="44.3436" lon="4.1164">
        <ele>351</ele>
        <time>2025-04-11T10:48:32.000Z</time>
      </trkpt>
      <trkpt lat="44.34363" lon="4.11627">
        <ele>351</ele>
        <time>2025-04-11T10:48:41.000Z</time>
      </trkpt>
      <trkpt lat="44.34369" lon="4.11617">
        <ele>352</ele>
        <time>2025-04-11T10:48:51.000Z</time>
      </trkpt>
      <trkpt lat="44.34378" lon="4.11615">
        <ele>352</ele>
        <time>2025-04-11T10:49:01.000Z</time>
      </trkpt>
      <trkpt lat="44.34387" lon="4.11615">
        <ele>354</ele>
        <time>2025-04-11T10:49:09.000Z</time>
      </trkpt>
      <trkpt lat="44.34396" lon="4.11611">
        <ele>355</ele>
        <time>2025-04-11T10:49:15.000Z</time>
      </trkpt>
      <trkpt lat="44.34405" lon="4.11603">
        <ele>356</ele>
        <time>2025-04-11T10:49:23.000Z</time>
      </trkpt>
      <trkpt lat="44.34413" lon="4.11598">
        <ele>357</ele>
        <time>2025-04-11T10:49:31.000Z</time>
      </trkpt>
      <trkpt lat="44.34421" lon="4.11603">
        <ele>358</ele>
        <time>2025-04-11T10:49:40.000Z</time>
      </trkpt>
      <trkpt lat="44.34426" lon="4.11615">
        <ele>358</ele>
        <time>2025-04-11T10:49:47.000Z</time>
      </trkpt>
      <trkpt lat="44.34431" lon="4.11628">
        <ele>359</ele>
        <time>2025-04-11T10:49:55.000Z</time>
      </trkpt>
      <trkpt lat="44.34436" lon="4.11641">
        <ele>359</ele>
        <time>2025-04-11T10:50:09.000Z</time>
      </trkpt>
      <trkpt lat="44.34444" lon="4.1165">
        <ele>360</ele>
        <time>2025-04-11T10:50:16.000Z</time>
      </trkpt>
      <trkpt lat="44.34453" lon="4.11654">
        <ele>361</ele>
        <time>2025-04-11T10:50:25.000Z</time>
      </trkpt>
      <trkpt lat="44.3446" lon="4.11663">
        <ele>362</ele>
        <time>2025-04-11T10:50:32.000Z</time>
      </trkpt>
      <trkpt lat="44.34466" lon="4.11672">
        <ele>362</ele>
        <time>2025-04-11T10:50:45.000Z</time>
      </trkpt>
      <trkpt lat="44.34473" lon="4.11682">
        <ele>363</ele>
        <time>2025-04-11T10:50:53.000Z</time>
      </trkpt>
      <trkpt lat="44.34479" lon="4.11693">
        <ele>363</ele>
        <time>2025-04-11T10:51:01.000Z</time>
      </trkpt>
      <trkpt lat="44.34482" lon="4.11705">
        <ele>363</ele>
        <time>2025-04-11T10:51:08.000Z</time>
      </trkpt>
      <trkpt lat="44.34486" lon="4.11719">
        <ele>363</ele>
        <time>2025-04-11T10:51:17.000Z</time>
      </trkpt>
      <trkpt lat="44.34493" lon="4.11726">
        <ele>363</ele>
        <time>2025-04-11T10:51:25.000Z</time>
      </trkpt>
      <trkpt lat="44.345" lon="4.11722">
        <ele>363</ele>
        <time>2025-04-11T10:51:33.000Z</time>
      </trkpt>
      <trkpt lat="44.34497" lon="4.1171">
        <ele>363</ele>
        <time>2025-04-11T10:51:57.000Z</time>
      </trkpt>
      <trkpt lat="44.34491" lon="4.11699">
        <ele>364</ele>
        <time>2025-04-11T10:52:03.000Z</time>
      </trkpt>
      <trkpt lat="44.34486" lon="4.11687">
        <ele>364</ele>
        <time>2025-04-11T10:52:09.000Z</time>
      </trkpt>
      <trkpt lat="44.34484" lon="4.11676">
        <ele>365</ele>
        <time>2025-04-11T10:52:17.000Z</time>
      </trkpt>
      <trkpt lat="44.3448" lon="4.11663">
        <ele>366</ele>
        <time>2025-04-11T10:52:26.000Z</time>
      </trkpt>
      <trkpt lat="44.34476" lon="4.11649">
        <ele>367</ele>
        <time>2025-04-11T10:52:37.000Z</time>
      </trkpt>
      <trkpt lat="44.34472" lon="4.11638">
        <ele>368</ele>
        <time>2025-04-11T10:52:45.000Z</time>
      </trkpt>
      <trkpt lat="44.34469" lon="4.11626">
        <ele>369</ele>
        <time>2025-04-11T10:52:55.000Z</time>
      </trkpt>
      <trkpt lat="44.34467" lon="4.1161">
        <ele>370</ele>
        <time>2025-04-11T10:53:01.000Z</time>
      </trkpt>
      <trkpt lat="44.34462" lon="4.11597">
        <ele>372</ele>
        <time>2025-04-11T10:53:09.000Z</time>
      </trkpt>
      <trkpt lat="44.34459" lon="4.11584">
        <ele>373</ele>
        <time>2025-04-11T10:53:18.000Z</time>
      </trkpt>
      <trkpt lat="44.34459" lon="4.11571">
        <ele>374</ele>
        <time>2025-04-11T10:53:27.000Z</time>
      </trkpt>
      <trkpt lat="44.34459" lon="4.11557">
        <ele>375</ele>
        <time>2025-04-11T10:53:35.000Z</time>
      </trkpt>
      <trkpt lat="44.34459" lon="4.11543">
        <ele>376</ele>
        <time>2025-04-11T10:53:43.000Z</time>
      </trkpt>
      <trkpt lat="44.34458" lon="4.1153">
        <ele>377</ele>
        <time>2025-04-11T10:53:49.000Z</time>
      </trkpt>
      <trkpt lat="44.34456" lon="4.11518">
        <ele>378</ele>
        <time>2025-04-11T10:53:56.000Z</time>
      </trkpt>
      <trkpt lat="44.34452" lon="4.11507">
        <ele>379</ele>
        <time>2025-04-11T10:54:07.000Z</time>
      </trkpt>
      <trkpt lat="44.34449" lon="4.11495">
        <ele>379</ele>
        <time>2025-04-11T10:54:15.000Z</time>
      </trkpt>
      <trkpt lat="44.34442" lon="4.11488">
        <ele>379</ele>
        <time>2025-04-11T10:54:23.000Z</time>
      </trkpt>
      <trkpt lat="44.34433" lon="4.11488">
        <ele>379</ele>
        <time>2025-04-11T10:54:32.000Z</time>
      </trkpt>
      <trkpt lat="44.34424" lon="4.1149">
        <ele>381</ele>
        <time>2025-04-11T10:54:39.000Z</time>
      </trkpt>
      <trkpt lat="44.34416" lon="4.11491">
        <ele>382</ele>
        <time>2025-04-11T10:54:44.000Z</time>
      </trkpt>
      <trkpt lat="44.34412" lon="4.11502">
        <ele>384</ele>
        <time>2025-04-11T10:56:19.000Z</time>
      </trkpt>
      <trkpt lat="44.34404" lon="4.11506">
        <ele>385</ele>
        <time>2025-04-11T10:58:53.000Z</time>
      </trkpt>
      <trkpt lat="44.34407" lon="4.11501">
        <ele>386</ele>
        <time>2025-04-11T11:22:25.000Z</time>
      </trkpt>
      <trkpt lat="44.34404" lon="4.11493">
        <ele>385</ele>
        <time>2025-04-11T11:23:39.000Z</time>
      </trkpt>
      <trkpt lat="44.34411" lon="4.11495">
        <ele>386</ele>
        <time>2025-04-11T11:25:59.000Z</time>
      </trkpt>
      <trkpt lat="44.34409" lon="4.11502">
        <ele>386</ele>
        <time>2025-04-11T11:26:39.000Z</time>
      </trkpt>
      <trkpt lat="44.34407" lon="4.11494">
        <ele>387</ele>
        <time>2025-04-11T11:28:11.000Z</time>
      </trkpt>
      <trkpt lat="44.34415" lon="4.1149">
        <ele>388</ele>
        <time>2025-04-11T11:31:19.000Z</time>
      </trkpt>
      <trkpt lat="44.34423" lon="4.11488">
        <ele>388</ele>
        <time>2025-04-11T11:31:41.000Z</time>
      </trkpt>
      <trkpt lat="44.34421" lon="4.11476">
        <ele>389</ele>
        <time>2025-04-11T11:32:43.000Z</time>
      </trkpt>
      <trkpt lat="44.3442" lon="4.11462">
        <ele>388</ele>
        <time>2025-04-11T11:32:57.000Z</time>
      </trkpt>
      <trkpt lat="44.34418" lon="4.11447">
        <ele>387</ele>
        <time>2025-04-11T11:33:05.000Z</time>
      </trkpt>
      <trkpt lat="44.34416" lon="4.11435">
        <ele>387</ele>
        <time>2025-04-11T11:33:12.000Z</time>
      </trkpt>
      <trkpt lat="44.34413" lon="4.11422">
        <ele>386</ele>
        <time>2025-04-11T11:33:23.000Z</time>
      </trkpt>
      <trkpt lat="44.34411" lon="4.11409">
        <ele>385</ele>
        <time>2025-04-11T11:33:35.000Z</time>
      </trkpt>
      <trkpt lat="44.34406" lon="4.11397">
        <ele>385</ele>
        <time>2025-04-11T11:33:44.000Z</time>
      </trkpt>
      <trkpt lat="44.34403" lon="4.11384">
        <ele>384</ele>
        <time>2025-04-11T11:33:53.000Z</time>
      </trkpt>
      <trkpt lat="44.34403" lon="4.11369">
        <ele>383</ele>
        <time>2025-04-11T11:34:02.000Z</time>
      </trkpt>
      <trkpt lat="44.34406" lon="4.11354">
        <ele>383</ele>
        <time>2025-04-11T11:34:11.000Z</time>
      </trkpt>
      <trkpt lat="44.3441" lon="4.1134">
        <ele>383</ele>
        <time>2025-04-11T11:34:19.000Z</time>
      </trkpt>
      <trkpt lat="44.34414" lon="4.11329">
        <ele>382</ele>
        <time>2025-04-11T11:34:27.000Z</time>
      </trkpt>
      <trkpt lat="44.34418" lon="4.11318">
        <ele>382</ele>
        <time>2025-04-11T11:34:35.000Z</time>
      </trkpt>
      <trkpt lat="44.34419" lon="4.11305">
        <ele>383</ele>
        <time>2025-04-11T11:34:43.000Z</time>
      </trkpt>
      <trkpt lat="44.34415" lon="4.11292">
        <ele>383</ele>
        <time>2025-04-11T11:34:51.000Z</time>
      </trkpt>
      <trkpt lat="44.34409" lon="4.11283">
        <ele>383</ele>
        <time>2025-04-11T11:34:58.000Z</time>
      </trkpt>
      <trkpt lat="44.344" lon="4.11277">
        <ele>384</ele>
        <time>2025-04-11T11:35:07.000Z</time>
      </trkpt>
      <trkpt lat="44.34391" lon="4.11272">
        <ele>384</ele>
        <time>2025-04-11T11:35:16.000Z</time>
      </trkpt>
      <trkpt lat="44.34386" lon="4.11261">
        <ele>384</ele>
        <time>2025-04-11T11:35:24.000Z</time>
      </trkpt>
      <trkpt lat="44.3438" lon="4.11252">
        <ele>385</ele>
        <time>2025-04-11T11:35:32.000Z</time>
      </trkpt>
      <trkpt lat="44.34373" lon="4.11244">
        <ele>385</ele>
        <time>2025-04-11T11:35:40.000Z</time>
      </trkpt>
      <trkpt lat="44.34365" lon="4.11238">
        <ele>386</ele>
        <time>2025-04-11T11:35:47.000Z</time>
      </trkpt>
      <trkpt lat="44.34359" lon="4.11227">
        <ele>386</ele>
        <time>2025-04-11T11:35:55.000Z</time>
      </trkpt>
      <trkpt lat="44.34355" lon="4.11216">
        <ele>386</ele>
        <time>2025-04-11T11:36:03.000Z</time>
      </trkpt>
      <trkpt lat="44.34354" lon="4.11203">
        <ele>387</ele>
        <time>2025-04-11T11:36:12.000Z</time>
      </trkpt>
      <trkpt lat="44.3435" lon="4.11192">
        <ele>387</ele>
        <time>2025-04-11T11:36:22.000Z</time>
      </trkpt>
      <trkpt lat="44.34342" lon="4.1119">
        <ele>388</ele>
        <time>2025-04-11T11:36:33.000Z</time>
      </trkpt>
      <trkpt lat="44.34334" lon="4.11188">
        <ele>388</ele>
        <time>2025-04-11T11:36:39.000Z</time>
      </trkpt>
      <trkpt lat="44.34325" lon="4.1119">
        <ele>388</ele>
        <time>2025-04-11T11:36:49.000Z</time>
      </trkpt>
      <trkpt lat="44.34315" lon="4.11194">
        <ele>389</ele>
        <time>2025-04-11T11:36:57.000Z</time>
      </trkpt>
      <trkpt lat="44.34306" lon="4.11197">
        <ele>389</ele>
        <time>2025-04-11T11:37:03.000Z</time>
      </trkpt>
      <trkpt lat="44.34296" lon="4.11195">
        <ele>390</ele>
        <time>2025-04-11T11:37:09.000Z</time>
      </trkpt>
      <trkpt lat="44.34286" lon="4.11193">
        <ele>390</ele>
        <time>2025-04-11T11:37:17.000Z</time>
      </trkpt>
      <trkpt lat="44.34278" lon="4.11188">
        <ele>391</ele>
        <time>2025-04-11T11:37:25.000Z</time>
      </trkpt>
      <trkpt lat="44.3427" lon="4.11178">
        <ele>391</ele>
        <time>2025-04-11T11:37:33.000Z</time>
      </trkpt>
      <trkpt lat="44.34262" lon="4.11168">
        <ele>391</ele>
        <time>2025-04-11T11:37:43.000Z</time>
      </trkpt>
      <trkpt lat="44.34255" lon="4.11157">
        <ele>390</ele>
        <time>2025-04-11T11:37:53.000Z</time>
      </trkpt>
      <trkpt lat="44.34247" lon="4.11148">
        <ele>390</ele>
        <time>2025-04-11T11:38:03.000Z</time>
      </trkpt>
      <trkpt lat="44.34241" lon="4.11137">
        <ele>389</ele>
        <time>2025-04-11T11:38:11.000Z</time>
      </trkpt>
      <trkpt lat="44.34237" lon="4.11126">
        <ele>389</ele>
        <time>2025-04-11T11:38:19.000Z</time>
      </trkpt>
      <trkpt lat="44.34235" lon="4.11114">
        <ele>388</ele>
        <time>2025-04-11T11:38:27.000Z</time>
      </trkpt>
      <trkpt lat="44.3423" lon="4.11103">
        <ele>388</ele>
        <time>2025-04-11T11:38:35.000Z</time>
      </trkpt>
      <trkpt lat="44.34224" lon="4.11095">
        <ele>388</ele>
        <time>2025-04-11T11:38:43.000Z</time>
      </trkpt>
      <trkpt lat="44.34216" lon="4.11086">
        <ele>388</ele>
        <time>2025-04-11T11:38:50.000Z</time>
      </trkpt>
      <trkpt lat="44.34208" lon="4.11078">
        <ele>388</ele>
        <time>2025-04-11T11:38:59.000Z</time>
      </trkpt>
      <trkpt lat="44.34202" lon="4.1107">
        <ele>388</ele>
        <time>2025-04-11T11:39:35.000Z</time>
      </trkpt>
      <trkpt lat="44.34195" lon="4.11063">
        <ele>388</ele>
        <time>2025-04-11T11:40:29.000Z</time>
      </trkpt>
      <trkpt lat="44.34187" lon="4.11063">
        <ele>387</ele>
        <time>2025-04-11T11:40:34.000Z</time>
      </trkpt>
      <trkpt lat="44.34177" lon="4.11062">
        <ele>387</ele>
        <time>2025-04-11T11:40:45.000Z</time>
      </trkpt>
      <trkpt lat="44.34167" lon="4.11061">
        <ele>387</ele>
        <time>2025-04-11T11:40:53.000Z</time>
      </trkpt>
      <trkpt lat="44.34158" lon="4.11058">
        <ele>387</ele>
        <time>2025-04-11T11:41:01.000Z</time>
      </trkpt>
      <trkpt lat="44.3415" lon="4.11054">
        <ele>387</ele>
        <time>2025-04-11T11:41:09.000Z</time>
      </trkpt>
      <trkpt lat="44.3414" lon="4.11052">
        <ele>387</ele>
        <time>2025-04-11T11:41:17.000Z</time>
      </trkpt>
      <trkpt lat="44.3413" lon="4.11049">
        <ele>386</ele>
        <time>2025-04-11T11:41:27.000Z</time>
      </trkpt>
      <trkpt lat="44.3412" lon="4.11045">
        <ele>385</ele>
        <time>2025-04-11T11:41:35.000Z</time>
      </trkpt>
      <trkpt lat="44.34112" lon="4.11042">
        <ele>385</ele>
        <time>2025-04-11T11:41:43.000Z</time>
      </trkpt>
      <trkpt lat="44.34105" lon="4.11037">
        <ele>384</ele>
        <time>2025-04-11T11:41:53.000Z</time>
      </trkpt>
      <trkpt lat="44.34096" lon="4.11036">
        <ele>383</ele>
        <time>2025-04-11T11:42:17.000Z</time>
      </trkpt>
      <trkpt lat="44.34087" lon="4.11031">
        <ele>383</ele>
        <time>2025-04-11T11:42:44.000Z</time>
      </trkpt>
      <trkpt lat="44.34078" lon="4.11028">
        <ele>382</ele>
        <time>2025-04-11T11:42:53.000Z</time>
      </trkpt>
      <trkpt lat="44.34068" lon="4.11023">
        <ele>381</ele>
        <time>2025-04-11T11:43:17.000Z</time>
      </trkpt>
      <trkpt lat="44.3406" lon="4.11017">
        <ele>380</ele>
        <time>2025-04-11T11:43:25.000Z</time>
      </trkpt>
      <trkpt lat="44.34051" lon="4.11013">
        <ele>380</ele>
        <time>2025-04-11T11:43:33.000Z</time>
      </trkpt>
      <trkpt lat="44.34042" lon="4.11011">
        <ele>381</ele>
        <time>2025-04-11T11:43:41.000Z</time>
      </trkpt>
      <trkpt lat="44.34032" lon="4.11009">
        <ele>381</ele>
        <time>2025-04-11T11:43:49.000Z</time>
      </trkpt>
      <trkpt lat="44.34022" lon="4.11008">
        <ele>381</ele>
        <time>2025-04-11T11:43:57.000Z</time>
      </trkpt>
      <trkpt lat="44.34012" lon="4.11006">
        <ele>381</ele>
        <time>2025-04-11T11:44:05.000Z</time>
      </trkpt>
      <trkpt lat="44.34002" lon="4.11001">
        <ele>381</ele>
        <time>2025-04-11T11:44:13.000Z</time>
      </trkpt>
      <trkpt lat="44.33994" lon="4.10995">
        <ele>380</ele>
        <time>2025-04-11T11:44:21.000Z</time>
      </trkpt>
      <trkpt lat="44.33986" lon="4.10989">
        <ele>380</ele>
        <time>2025-04-11T11:44:29.000Z</time>
      </trkpt>
      <trkpt lat="44.33977" lon="4.10986">
        <ele>380</ele>
        <time>2025-04-11T11:44:37.000Z</time>
      </trkpt>
      <trkpt lat="44.33969" lon="4.10983">
        <ele>380</ele>
        <time>2025-04-11T11:44:45.000Z</time>
      </trkpt>
      <trkpt lat="44.3396" lon="4.10981">
        <ele>381</ele>
        <time>2025-04-11T11:44:52.000Z</time>
      </trkpt>
      <trkpt lat="44.33951" lon="4.10979">
        <ele>381</ele>
        <time>2025-04-11T11:45:01.000Z</time>
      </trkpt>
      <trkpt lat="44.33942" lon="4.10978">
        <ele>381</ele>
        <time>2025-04-11T11:45:09.000Z</time>
      </trkpt>
      <trkpt lat="44.33934" lon="4.10974">
        <ele>382</ele>
        <time>2025-04-11T11:45:17.000Z</time>
      </trkpt>
      <trkpt lat="44.33925" lon="4.10972">
        <ele>382</ele>
        <time>2025-04-11T11:45:24.000Z</time>
      </trkpt>
      <trkpt lat="44.33916" lon="4.10971">
        <ele>382</ele>
        <time>2025-04-11T11:45:33.000Z</time>
      </trkpt>
      <trkpt lat="44.33907" lon="4.10968">
        <ele>381</ele>
        <time>2025-04-11T11:45:40.000Z</time>
      </trkpt>
      <trkpt lat="44.33898" lon="4.10966">
        <ele>381</ele>
        <time>2025-04-11T11:45:52.000Z</time>
      </trkpt>
      <trkpt lat="44.33889" lon="4.10964">
        <ele>381</ele>
        <time>2025-04-11T11:46:04.000Z</time>
      </trkpt>
      <trkpt lat="44.33881" lon="4.10957">
        <ele>381</ele>
        <time>2025-04-11T11:46:12.000Z</time>
      </trkpt>
      <trkpt lat="44.33872" lon="4.10951">
        <ele>380</ele>
        <time>2025-04-11T11:46:21.000Z</time>
      </trkpt>
      <trkpt lat="44.33863" lon="4.10946">
        <ele>381</ele>
        <time>2025-04-11T11:46:29.000Z</time>
      </trkpt>
      <trkpt lat="44.33856" lon="4.10939">
        <ele>381</ele>
        <time>2025-04-11T11:46:39.000Z</time>
      </trkpt>
      <trkpt lat="44.33847" lon="4.10938">
        <ele>382</ele>
        <time>2025-04-11T11:46:47.000Z</time>
      </trkpt>
      <trkpt lat="44.33838" lon="4.10935">
        <ele>382</ele>
        <time>2025-04-11T11:46:54.000Z</time>
      </trkpt>
      <trkpt lat="44.33828" lon="4.10932">
        <ele>383</ele>
        <time>2025-04-11T11:47:03.000Z</time>
      </trkpt>
      <trkpt lat="44.33819" lon="4.1093">
        <ele>383</ele>
        <time>2025-04-11T11:47:11.000Z</time>
      </trkpt>
      <trkpt lat="44.33808" lon="4.10927">
        <ele>383</ele>
        <time>2025-04-11T11:47:57.000Z</time>
      </trkpt>
      <trkpt lat="44.33798" lon="4.10923">
        <ele>383</ele>
        <time>2025-04-11T11:48:05.000Z</time>
      </trkpt>
      <trkpt lat="44.33789" lon="4.1092">
        <ele>384</ele>
        <time>2025-04-11T11:48:18.000Z</time>
      </trkpt>
      <trkpt lat="44.3378" lon="4.10919">
        <ele>384</ele>
        <time>2025-04-11T11:48:25.000Z</time>
      </trkpt>
      <trkpt lat="44.33771" lon="4.10915">
        <ele>383</ele>
        <time>2025-04-11T11:48:32.000Z</time>
      </trkpt>
      <trkpt lat="44.33762" lon="4.10911">
        <ele>384</ele>
        <time>2025-04-11T11:48:41.000Z</time>
      </trkpt>
      <trkpt lat="44.33753" lon="4.10907">
        <ele>384</ele>
        <time>2025-04-11T11:48:47.000Z</time>
      </trkpt>
      <trkpt lat="44.33745" lon="4.10905">
        <ele>384</ele>
        <time>2025-04-11T11:48:52.000Z</time>
      </trkpt>
      <trkpt lat="44.33736" lon="4.10901">
        <ele>384</ele>
        <time>2025-04-11T11:49:05.000Z</time>
      </trkpt>
      <trkpt lat="44.33727" lon="4.10896">
        <ele>384</ele>
        <time>2025-04-11T11:49:13.000Z</time>
      </trkpt>
      <trkpt lat="44.33717" lon="4.10888">
        <ele>385</ele>
        <time>2025-04-11T11:49:23.000Z</time>
      </trkpt>
      <trkpt lat="44.33707" lon="4.10887">
        <ele>386</ele>
        <time>2025-04-11T11:49:29.000Z</time>
      </trkpt>
      <trkpt lat="44.33698" lon="4.10885">
        <ele>386</ele>
        <time>2025-04-11T11:49:37.000Z</time>
      </trkpt>
      <trkpt lat="44.33688" lon="4.10883">
        <ele>387</ele>
        <time>2025-04-11T11:49:45.000Z</time>
      </trkpt>
      <trkpt lat="44.33678" lon="4.1088">
        <ele>387</ele>
        <time>2025-04-11T11:49:52.000Z</time>
      </trkpt>
      <trkpt lat="44.3367" lon="4.10873">
        <ele>387</ele>
        <time>2025-04-11T11:50:01.000Z</time>
      </trkpt>
      <trkpt lat="44.33659" lon="4.10869">
        <ele>386</ele>
        <time>2025-04-11T11:50:08.000Z</time>
      </trkpt>
      <trkpt lat="44.33651" lon="4.10867">
        <ele>386</ele>
        <time>2025-04-11T11:50:17.000Z</time>
      </trkpt>
      <trkpt lat="44.33642" lon="4.10863">
        <ele>385</ele>
        <time>2025-04-11T11:50:25.000Z</time>
      </trkpt>
      <trkpt lat="44.33633" lon="4.10858">
        <ele>385</ele>
        <time>2025-04-11T11:50:33.000Z</time>
      </trkpt>
      <trkpt lat="44.33623" lon="4.10855">
        <ele>384</ele>
        <time>2025-04-11T11:50:40.000Z</time>
      </trkpt>
      <trkpt lat="44.33614" lon="4.10852">
        <ele>384</ele>
        <time>2025-04-11T11:50:49.000Z</time>
      </trkpt>
      <trkpt lat="44.33604" lon="4.1085">
        <ele>383</ele>
        <time>2025-04-11T11:50:56.000Z</time>
      </trkpt>
      <trkpt lat="44.33594" lon="4.10848">
        <ele>382</ele>
        <time>2025-04-11T11:51:04.000Z</time>
      </trkpt>
      <trkpt lat="44.33583" lon="4.10846">
        <ele>382</ele>
        <time>2025-04-11T11:51:12.000Z</time>
      </trkpt>
      <trkpt lat="44.33574" lon="4.10844">
        <ele>381</ele>
        <time>2025-04-11T11:51:20.000Z</time>
      </trkpt>
      <trkpt lat="44.33567" lon="4.10844">
        <ele>381</ele>
        <time>2025-04-11T11:51:30.000Z</time>
      </trkpt>
      <trkpt lat="44.3357" lon="4.10854">
        <ele>381</ele>
        <time>2025-04-11T11:52:09.000Z</time>
      </trkpt>
      <trkpt lat="44.33578" lon="4.10863">
        <ele>381</ele>
        <time>2025-04-11T11:52:17.000Z</time>
      </trkpt>
      <trkpt lat="44.33585" lon="4.10871">
        <ele>380</ele>
        <time>2025-04-11T11:52:25.000Z</time>
      </trkpt>
      <trkpt lat="44.33593" lon="4.10876">
        <ele>380</ele>
        <time>2025-04-11T11:52:32.000Z</time>
      </trkpt>
      <trkpt lat="44.336" lon="4.10883">
        <ele>379</ele>
        <time>2025-04-11T11:52:41.000Z</time>
      </trkpt>
      <trkpt lat="44.33605" lon="4.10894">
        <ele>378</ele>
        <time>2025-04-11T11:52:49.000Z</time>
      </trkpt>
      <trkpt lat="44.33612" lon="4.10904">
        <ele>377</ele>
        <time>2025-04-11T11:52:57.000Z</time>
      </trkpt>
      <trkpt lat="44.33616" lon="4.10916">
        <ele>376</ele>
        <time>2025-04-11T11:53:05.000Z</time>
      </trkpt>
      <trkpt lat="44.3362" lon="4.10926">
        <ele>376</ele>
        <time>2025-04-11T11:53:13.000Z</time>
      </trkpt>
      <trkpt lat="44.33626" lon="4.10934">
        <ele>375</ele>
        <time>2025-04-11T11:53:21.000Z</time>
      </trkpt>
      <trkpt lat="44.33633" lon="4.10942">
        <ele>375</ele>
        <time>2025-04-11T11:53:30.000Z</time>
      </trkpt>
      <trkpt lat="44.33642" lon="4.10947">
        <ele>375</ele>
        <time>2025-04-11T11:53:39.000Z</time>
      </trkpt>
      <trkpt lat="44.33652" lon="4.10952">
        <ele>374</ele>
        <time>2025-04-11T11:53:47.000Z</time>
      </trkpt>
      <trkpt lat="44.3366" lon="4.10959">
        <ele>374</ele>
        <time>2025-04-11T11:53:56.000Z</time>
      </trkpt>
      <trkpt lat="44.33668" lon="4.10965">
        <ele>373</ele>
        <time>2025-04-11T11:54:07.000Z</time>
      </trkpt>
      <trkpt lat="44.33676" lon="4.10973">
        <ele>372</ele>
        <time>2025-04-11T11:54:14.000Z</time>
      </trkpt>
      <trkpt lat="44.33684" lon="4.10983">
        <ele>371</ele>
        <time>2025-04-11T11:54:25.000Z</time>
      </trkpt>
      <trkpt lat="44.33694" lon="4.1099">
        <ele>370</ele>
        <time>2025-04-11T11:54:33.000Z</time>
      </trkpt>
      <trkpt lat="44.33702" lon="4.10999">
        <ele>369</ele>
        <time>2025-04-11T11:54:40.000Z</time>
      </trkpt>
      <trkpt lat="44.33708" lon="4.11008">
        <ele>368</ele>
        <time>2025-04-11T11:54:48.000Z</time>
      </trkpt>
      <trkpt lat="44.33716" lon="4.11016">
        <ele>367</ele>
        <time>2025-04-11T11:54:57.000Z</time>
      </trkpt>
      <trkpt lat="44.33723" lon="4.11023">
        <ele>366</ele>
        <time>2025-04-11T11:55:05.000Z</time>
      </trkpt>
      <trkpt lat="44.3373" lon="4.11032">
        <ele>365</ele>
        <time>2025-04-11T11:55:13.000Z</time>
      </trkpt>
      <trkpt lat="44.33738" lon="4.11039">
        <ele>364</ele>
        <time>2025-04-11T11:55:23.000Z</time>
      </trkpt>
      <trkpt lat="44.33748" lon="4.11046">
        <ele>364</ele>
        <time>2025-04-11T11:55:31.000Z</time>
      </trkpt>
      <trkpt lat="44.33756" lon="4.11054">
        <ele>363</ele>
        <time>2025-04-11T11:55:41.000Z</time>
      </trkpt>
      <trkpt lat="44.33765" lon="4.11062">
        <ele>362</ele>
        <time>2025-04-11T11:55:48.000Z</time>
      </trkpt>
      <trkpt lat="44.33773" lon="4.11068">
        <ele>362</ele>
        <time>2025-04-11T11:55:56.000Z</time>
      </trkpt>
      <trkpt lat="44.33781" lon="4.11077">
        <ele>361</ele>
        <time>2025-04-11T11:56:05.000Z</time>
      </trkpt>
      <trkpt lat="44.33788" lon="4.11088">
        <ele>361</ele>
        <time>2025-04-11T11:56:15.000Z</time>
      </trkpt>
      <trkpt lat="44.33796" lon="4.11093">
        <ele>360</ele>
        <time>2025-04-11T11:56:22.000Z</time>
      </trkpt>
      <trkpt lat="44.33805" lon="4.11097">
        <ele>360</ele>
        <time>2025-04-11T11:56:31.000Z</time>
      </trkpt>
      <trkpt lat="44.33811" lon="4.11108">
        <ele>359</ele>
        <time>2025-04-11T11:56:39.000Z</time>
      </trkpt>
      <trkpt lat="44.33806" lon="4.11118">
        <ele>359</ele>
        <time>2025-04-11T11:56:47.000Z</time>
      </trkpt>
      <trkpt lat="44.33798" lon="4.11123">
        <ele>358</ele>
        <time>2025-04-11T11:56:52.000Z</time>
      </trkpt>
      <trkpt lat="44.33788" lon="4.11124">
        <ele>358</ele>
        <time>2025-04-11T11:57:00.000Z</time>
      </trkpt>
      <trkpt lat="44.3378" lon="4.11127">
        <ele>358</ele>
        <time>2025-04-11T11:57:06.000Z</time>
      </trkpt>
      <trkpt lat="44.3377" lon="4.11131">
        <ele>357</ele>
        <time>2025-04-11T11:57:15.000Z</time>
      </trkpt>
      <trkpt lat="44.33761" lon="4.11135">
        <ele>357</ele>
        <time>2025-04-11T11:57:23.000Z</time>
      </trkpt>
      <trkpt lat="44.33752" lon="4.11139">
        <ele>356</ele>
        <time>2025-04-11T11:57:31.000Z</time>
      </trkpt>
      <trkpt lat="44.33742" lon="4.11143">
        <ele>356</ele>
        <time>2025-04-11T11:57:39.000Z</time>
      </trkpt>
      <trkpt lat="44.33731" lon="4.11145">
        <ele>356</ele>
        <time>2025-04-11T11:57:49.000Z</time>
      </trkpt>
      <trkpt lat="44.33722" lon="4.11146">
        <ele>355</ele>
        <time>2025-04-11T11:57:58.000Z</time>
      </trkpt>
      <trkpt lat="44.33713" lon="4.11149">
        <ele>354</ele>
        <time>2025-04-11T11:58:06.000Z</time>
      </trkpt>
      <trkpt lat="44.33705" lon="4.11156">
        <ele>353</ele>
        <time>2025-04-11T11:58:14.000Z</time>
      </trkpt>
      <trkpt lat="44.33696" lon="4.1116">
        <ele>352</ele>
        <time>2025-04-11T11:58:22.000Z</time>
      </trkpt>
      <trkpt lat="44.33687" lon="4.11164">
        <ele>351</ele>
        <time>2025-04-11T11:58:30.000Z</time>
      </trkpt>
      <trkpt lat="44.33677" lon="4.11164">
        <ele>350</ele>
        <time>2025-04-11T11:58:38.000Z</time>
      </trkpt>
      <trkpt lat="44.33668" lon="4.11159">
        <ele>348</ele>
        <time>2025-04-11T11:58:47.000Z</time>
      </trkpt>
      <trkpt lat="44.33661" lon="4.11151">
        <ele>347</ele>
        <time>2025-04-11T11:58:55.000Z</time>
      </trkpt>
      <trkpt lat="44.33656" lon="4.1114">
        <ele>345</ele>
        <time>2025-04-11T11:59:03.000Z</time>
      </trkpt>
      <trkpt lat="44.33654" lon="4.11126">
        <ele>344</ele>
        <time>2025-04-11T11:59:11.000Z</time>
      </trkpt>
      <trkpt lat="44.33649" lon="4.11114">
        <ele>343</ele>
        <time>2025-04-11T11:59:18.000Z</time>
      </trkpt>
      <trkpt lat="44.3364" lon="4.11109">
        <ele>343</ele>
        <time>2025-04-11T11:59:27.000Z</time>
      </trkpt>
      <trkpt lat="44.3363" lon="4.11111">
        <ele>342</ele>
        <time>2025-04-11T11:59:35.000Z</time>
      </trkpt>
      <trkpt lat="44.33621" lon="4.11114">
        <ele>342</ele>
        <time>2025-04-11T11:59:43.000Z</time>
      </trkpt>
      <trkpt lat="44.33611" lon="4.11115">
        <ele>341</ele>
        <time>2025-04-11T11:59:51.000Z</time>
      </trkpt>
      <trkpt lat="44.33602" lon="4.11114">
        <ele>339</ele>
        <time>2025-04-11T11:59:59.000Z</time>
      </trkpt>
      <trkpt lat="44.33592" lon="4.11115">
        <ele>338</ele>
        <time>2025-04-11T12:00:07.000Z</time>
      </trkpt>
      <trkpt lat="44.33582" lon="4.11116">
        <ele>336</ele>
        <time>2025-04-11T12:00:17.000Z</time>
      </trkpt>
      <trkpt lat="44.33573" lon="4.11114">
        <ele>335</ele>
        <time>2025-04-11T12:00:24.000Z</time>
      </trkpt>
      <trkpt lat="44.33564" lon="4.11106">
        <ele>334</ele>
        <time>2025-04-11T12:00:33.000Z</time>
      </trkpt>
      <trkpt lat="44.33557" lon="4.11096">
        <ele>333</ele>
        <time>2025-04-11T12:00:41.000Z</time>
      </trkpt>
      <trkpt lat="44.33549" lon="4.11088">
        <ele>333</ele>
        <time>2025-04-11T12:00:50.000Z</time>
      </trkpt>
      <trkpt lat="44.3354" lon="4.11085">
        <ele>332</ele>
        <time>2025-04-11T12:00:58.000Z</time>
      </trkpt>
      <trkpt lat="44.33531" lon="4.11079">
        <ele>331</ele>
        <time>2025-04-11T12:01:06.000Z</time>
      </trkpt>
      <trkpt lat="44.33521" lon="4.11076">
        <ele>331</ele>
        <time>2025-04-11T12:01:15.000Z</time>
      </trkpt>
      <trkpt lat="44.33512" lon="4.11078">
        <ele>331</ele>
        <time>2025-04-11T12:01:23.000Z</time>
      </trkpt>
      <trkpt lat="44.33506" lon="4.11088">
        <ele>330</ele>
        <time>2025-04-11T12:01:33.000Z</time>
      </trkpt>
      <trkpt lat="44.33502" lon="4.11099">
        <ele>329</ele>
        <time>2025-04-11T12:01:42.000Z</time>
      </trkpt>
      <trkpt lat="44.33496" lon="4.11108">
        <ele>328</ele>
        <time>2025-04-11T12:01:51.000Z</time>
      </trkpt>
      <trkpt lat="44.33487" lon="4.11112">
        <ele>327</ele>
        <time>2025-04-11T12:01:59.000Z</time>
      </trkpt>
      <trkpt lat="44.33478" lon="4.11116">
        <ele>325</ele>
        <time>2025-04-11T12:02:07.000Z</time>
      </trkpt>
      <trkpt lat="44.33468" lon="4.11122">
        <ele>324</ele>
        <time>2025-04-11T12:02:15.000Z</time>
      </trkpt>
      <trkpt lat="44.33459" lon="4.11127">
        <ele>322</ele>
        <time>2025-04-11T12:02:25.000Z</time>
      </trkpt>
      <trkpt lat="44.3345" lon="4.11132">
        <ele>321</ele>
        <time>2025-04-11T12:02:33.000Z</time>
      </trkpt>
      <trkpt lat="44.33443" lon="4.1114">
        <ele>319</ele>
        <time>2025-04-11T12:02:41.000Z</time>
      </trkpt>
      <trkpt lat="44.33437" lon="4.11151">
        <ele>318</ele>
        <time>2025-04-11T12:02:49.000Z</time>
      </trkpt>
      <trkpt lat="44.33433" lon="4.11163">
        <ele>317</ele>
        <time>2025-04-11T12:02:59.000Z</time>
      </trkpt>
      <trkpt lat="44.3343" lon="4.11175">
        <ele>316</ele>
        <time>2025-04-11T12:03:07.000Z</time>
      </trkpt>
      <trkpt lat="44.33426" lon="4.11187">
        <ele>315</ele>
        <time>2025-04-11T12:03:14.000Z</time>
      </trkpt>
      <trkpt lat="44.33419" lon="4.11196">
        <ele>315</ele>
        <time>2025-04-11T12:03:23.000Z</time>
      </trkpt>
      <trkpt lat="44.3341" lon="4.11203">
        <ele>314</ele>
        <time>2025-04-11T12:03:31.000Z</time>
      </trkpt>
      <trkpt lat="44.33401" lon="4.11206">
        <ele>313</ele>
        <time>2025-04-11T12:03:39.000Z</time>
      </trkpt>
      <trkpt lat="44.33392" lon="4.11208">
        <ele>312</ele>
        <time>2025-04-11T12:03:47.000Z</time>
      </trkpt>
      <trkpt lat="44.33383" lon="4.11204">
        <ele>311</ele>
        <time>2025-04-11T12:03:55.000Z</time>
      </trkpt>
      <trkpt lat="44.33375" lon="4.11195">
        <ele>310</ele>
        <time>2025-04-11T12:04:03.000Z</time>
      </trkpt>
      <trkpt lat="44.3337" lon="4.11183">
        <ele>309</ele>
        <time>2025-04-11T12:04:11.000Z</time>
      </trkpt>
      <trkpt lat="44.33368" lon="4.11168">
        <ele>309</ele>
        <time>2025-04-11T12:04:19.000Z</time>
      </trkpt>
      <trkpt lat="44.33363" lon="4.11158">
        <ele>309</ele>
        <time>2025-04-11T12:04:27.000Z</time>
      </trkpt>
      <trkpt lat="44.33355" lon="4.11157">
        <ele>309</ele>
        <time>2025-04-11T12:04:35.000Z</time>
      </trkpt>
      <trkpt lat="44.33348" lon="4.11164">
        <ele>309</ele>
        <time>2025-04-11T12:04:43.000Z</time>
      </trkpt>
      <trkpt lat="44.33342" lon="4.11174">
        <ele>308</ele>
        <time>2025-04-11T12:04:51.000Z</time>
      </trkpt>
      <trkpt lat="44.33337" lon="4.11184">
        <ele>308</ele>
        <time>2025-04-11T12:04:59.000Z</time>
      </trkpt>
      <trkpt lat="44.33328" lon="4.11191">
        <ele>309</ele>
        <time>2025-04-11T12:05:09.000Z</time>
      </trkpt>
      <trkpt lat="44.33319" lon="4.11196">
        <ele>309</ele>
        <time>2025-04-11T12:05:21.000Z</time>
      </trkpt>
      <trkpt lat="44.3331" lon="4.11198">
        <ele>309</ele>
        <time>2025-04-11T12:05:29.000Z</time>
      </trkpt>
      <trkpt lat="44.333" lon="4.11202">
        <ele>309</ele>
        <time>2025-04-11T12:05:36.000Z</time>
      </trkpt>
      <trkpt lat="44.3329" lon="4.11206">
        <ele>310</ele>
        <time>2025-04-11T12:05:45.000Z</time>
      </trkpt>
      <trkpt lat="44.33281" lon="4.11211">
        <ele>309</ele>
        <time>2025-04-11T12:05:52.000Z</time>
      </trkpt>
      <trkpt lat="44.33272" lon="4.11214">
        <ele>308</ele>
        <time>2025-04-11T12:06:01.000Z</time>
      </trkpt>
      <trkpt lat="44.33263" lon="4.11219">
        <ele>307</ele>
        <time>2025-04-11T12:06:08.000Z</time>
      </trkpt>
      <trkpt lat="44.33255" lon="4.11224">
        <ele>306</ele>
        <time>2025-04-11T12:06:17.000Z</time>
      </trkpt>
      <trkpt lat="44.33246" lon="4.11229">
        <ele>304</ele>
        <time>2025-04-11T12:06:24.000Z</time>
      </trkpt>
      <trkpt lat="44.33238" lon="4.11234">
        <ele>303</ele>
        <time>2025-04-11T12:06:33.000Z</time>
      </trkpt>
      <trkpt lat="44.33228" lon="4.11239">
        <ele>301</ele>
        <time>2025-04-11T12:06:43.000Z</time>
      </trkpt>
      <trkpt lat="44.33219" lon="4.11234">
        <ele>299</ele>
        <time>2025-04-11T12:06:50.000Z</time>
      </trkpt>
      <trkpt lat="44.33216" lon="4.11221">
        <ele>298</ele>
        <time>2025-04-11T12:06:59.000Z</time>
      </trkpt>
      <trkpt lat="44.33215" lon="4.11208">
        <ele>296</ele>
        <time>2025-04-11T12:07:05.000Z</time>
      </trkpt>
      <trkpt lat="44.33218" lon="4.11196">
        <ele>294</ele>
        <time>2025-04-11T12:07:11.000Z</time>
      </trkpt>
      <trkpt lat="44.33222" lon="4.11184">
        <ele>293</ele>
        <time>2025-04-11T12:07:17.000Z</time>
      </trkpt>
      <trkpt lat="44.33226" lon="4.11172">
        <ele>291</ele>
        <time>2025-04-11T12:07:25.000Z</time>
      </trkpt>
      <trkpt lat="44.33231" lon="4.1116">
        <ele>290</ele>
        <time>2025-04-11T12:07:33.000Z</time>
      </trkpt>
      <trkpt lat="44.33235" lon="4.11149">
        <ele>288</ele>
        <time>2025-04-11T12:07:41.000Z</time>
      </trkpt>
      <trkpt lat="44.33238" lon="4.11136">
        <ele>286</ele>
        <time>2025-04-11T12:07:49.000Z</time>
      </trkpt>
      <trkpt lat="44.33238" lon="4.11123">
        <ele>285</ele>
        <time>2025-04-11T12:07:57.000Z</time>
      </trkpt>
      <trkpt lat="44.33236" lon="4.1111">
        <ele>284</ele>
        <time>2025-04-11T12:08:05.000Z</time>
      </trkpt>
      <trkpt lat="44.33231" lon="4.11099">
        <ele>283</ele>
        <time>2025-04-11T12:08:13.000Z</time>
      </trkpt>
      <trkpt lat="44.33224" lon="4.11089">
        <ele>282</ele>
        <time>2025-04-11T12:08:23.000Z</time>
      </trkpt>
      <trkpt lat="44.33221" lon="4.11075">
        <ele>281</ele>
        <time>2025-04-11T12:08:33.000Z</time>
      </trkpt>
      <trkpt lat="44.3322" lon="4.11059">
        <ele>280</ele>
        <time>2025-04-11T12:08:40.000Z</time>
      </trkpt>
      <trkpt lat="44.33218" lon="4.11044">
        <ele>279</ele>
        <time>2025-04-11T12:08:49.000Z</time>
      </trkpt>
      <trkpt lat="44.33215" lon="4.1103">
        <ele>277</ele>
        <time>2025-04-11T12:08:59.000Z</time>
      </trkpt>
      <trkpt lat="44.33211" lon="4.11018">
        <ele>276</ele>
        <time>2025-04-11T12:09:07.000Z</time>
      </trkpt>
      <trkpt lat="44.33209" lon="4.11003">
        <ele>274</ele>
        <time>2025-04-11T12:09:17.000Z</time>
      </trkpt>
      <trkpt lat="44.33208" lon="4.10989">
        <ele>273</ele>
        <time>2025-04-11T12:09:25.000Z</time>
      </trkpt>
      <trkpt lat="44.33207" lon="4.10976">
        <ele>272</ele>
        <time>2025-04-11T12:09:32.000Z</time>
      </trkpt>
      <trkpt lat="44.33206" lon="4.10963">
        <ele>272</ele>
        <time>2025-04-11T12:09:41.000Z</time>
      </trkpt>
      <trkpt lat="44.33204" lon="4.10949">
        <ele>271</ele>
        <time>2025-04-11T12:09:49.000Z</time>
      </trkpt>
      <trkpt lat="44.33205" lon="4.10936">
        <ele>270</ele>
        <time>2025-04-11T12:09:57.000Z</time>
      </trkpt>
      <trkpt lat="44.33205" lon="4.10922">
        <ele>269</ele>
        <time>2025-04-11T12:10:05.000Z</time>
      </trkpt>
      <trkpt lat="44.33205" lon="4.10908">
        <ele>268</ele>
        <time>2025-04-11T12:10:13.000Z</time>
      </trkpt>
      <trkpt lat="44.33205" lon="4.10894">
        <ele>268</ele>
        <time>2025-04-11T12:10:21.000Z</time>
      </trkpt>
      <trkpt lat="44.33206" lon="4.1088">
        <ele>268</ele>
        <time>2025-04-11T12:10:29.000Z</time>
      </trkpt>
      <trkpt lat="44.33205" lon="4.10868">
        <ele>268</ele>
        <time>2025-04-11T12:10:37.000Z</time>
      </trkpt>
      <trkpt lat="44.33201" lon="4.10858">
        <ele>267</ele>
        <time>2025-04-11T12:10:44.000Z</time>
      </trkpt>
      <trkpt lat="44.33193" lon="4.10861">
        <ele>266</ele>
        <time>2025-04-11T12:10:55.000Z</time>
      </trkpt>
      <trkpt lat="44.33188" lon="4.10871">
        <ele>265</ele>
        <time>2025-04-11T12:11:03.000Z</time>
      </trkpt>
      <trkpt lat="44.33185" lon="4.10884">
        <ele>264</ele>
        <time>2025-04-11T12:11:13.000Z</time>
      </trkpt>
      <trkpt lat="44.33179" lon="4.10895">
        <ele>263</ele>
        <time>2025-04-11T12:11:21.000Z</time>
      </trkpt>
      <trkpt lat="44.33173" lon="4.10906">
        <ele>262</ele>
        <time>2025-04-11T12:11:29.000Z</time>
      </trkpt>
      <trkpt lat="44.33167" lon="4.10916">
        <ele>261</ele>
        <time>2025-04-11T12:11:36.000Z</time>
      </trkpt>
      <trkpt lat="44.33164" lon="4.10928">
        <ele>260</ele>
        <time>2025-04-11T12:11:44.000Z</time>
      </trkpt>
      <trkpt lat="44.33161" lon="4.10941">
        <ele>260</ele>
        <time>2025-04-11T12:11:54.000Z</time>
      </trkpt>
      <trkpt lat="44.33159" lon="4.10953">
        <ele>259</ele>
        <time>2025-04-11T12:12:02.000Z</time>
      </trkpt>
      <trkpt lat="44.33155" lon="4.10964">
        <ele>258</ele>
        <time>2025-04-11T12:12:11.000Z</time>
      </trkpt>
      <trkpt lat="44.33149" lon="4.10976">
        <ele>258</ele>
        <time>2025-04-11T12:12:19.000Z</time>
      </trkpt>
      <trkpt lat="44.33142" lon="4.10984">
        <ele>259</ele>
        <time>2025-04-11T12:12:27.000Z</time>
      </trkpt>
      <trkpt lat="44.33134" lon="4.10992">
        <ele>259</ele>
        <time>2025-04-11T12:12:34.000Z</time>
      </trkpt>
      <trkpt lat="44.33128" lon="4.11002">
        <ele>260</ele>
        <time>2025-04-11T12:12:42.000Z</time>
      </trkpt>
      <trkpt lat="44.33122" lon="4.11011">
        <ele>261</ele>
        <time>2025-04-11T12:12:52.000Z</time>
      </trkpt>
      <trkpt lat="44.33118" lon="4.11022">
        <ele>261</ele>
        <time>2025-04-11T12:13:41.000Z</time>
      </trkpt>
      <trkpt lat="44.33113" lon="4.11032">
        <ele>261</ele>
        <time>2025-04-11T12:13:52.000Z</time>
      </trkpt>
      <trkpt lat="44.33108" lon="4.11045">
        <ele>261</ele>
        <time>2025-04-11T12:14:03.000Z</time>
      </trkpt>
      <trkpt lat="44.33105" lon="4.11057">
        <ele>261</ele>
        <time>2025-04-11T12:14:11.000Z</time>
      </trkpt>
      <trkpt lat="44.33102" lon="4.11069">
        <ele>261</ele>
        <time>2025-04-11T12:14:22.000Z</time>
      </trkpt>
      <trkpt lat="44.331" lon="4.11082">
        <ele>261</ele>
        <time>2025-04-11T12:14:29.000Z</time>
      </trkpt>
      <trkpt lat="44.331" lon="4.11094">
        <ele>261</ele>
        <time>2025-04-11T12:14:37.000Z</time>
      </trkpt>
      <trkpt lat="44.33098" lon="4.11106">
        <ele>260</ele>
        <time>2025-04-11T12:14:45.000Z</time>
      </trkpt>
      <trkpt lat="44.33096" lon="4.11118">
        <ele>260</ele>
        <time>2025-04-11T12:14:53.000Z</time>
      </trkpt>
      <trkpt lat="44.33095" lon="4.11133">
        <ele>259</ele>
        <time>2025-04-11T12:15:02.000Z</time>
      </trkpt>
      <trkpt lat="44.33094" lon="4.11145">
        <ele>258</ele>
        <time>2025-04-11T12:15:09.000Z</time>
      </trkpt>
      <trkpt lat="44.33092" lon="4.11159">
        <ele>258</ele>
        <time>2025-04-11T12:15:19.000Z</time>
      </trkpt>
      <trkpt lat="44.33088" lon="4.11173">
        <ele>257</ele>
        <time>2025-04-11T12:15:27.000Z</time>
      </trkpt>
      <trkpt lat="44.33085" lon="4.11187">
        <ele>257</ele>
        <time>2025-04-11T12:15:35.000Z</time>
      </trkpt>
      <trkpt lat="44.33083" lon="4.112">
        <ele>256</ele>
        <time>2025-04-11T12:15:43.000Z</time>
      </trkpt>
      <trkpt lat="44.33078" lon="4.11212">
        <ele>255</ele>
        <time>2025-04-11T12:15:51.000Z</time>
      </trkpt>
      <trkpt lat="44.33073" lon="4.11225">
        <ele>253</ele>
        <time>2025-04-11T12:15:58.000Z</time>
      </trkpt>
      <trkpt lat="44.33071" lon="4.11239">
        <ele>252</ele>
        <time>2025-04-11T12:16:09.000Z</time>
      </trkpt>
      <trkpt lat="44.33069" lon="4.11254">
        <ele>250</ele>
        <time>2025-04-11T12:16:17.000Z</time>
      </trkpt>
      <trkpt lat="44.33065" lon="4.11268">
        <ele>248</ele>
        <time>2025-04-11T12:16:29.000Z</time>
      </trkpt>
      <trkpt lat="44.33062" lon="4.1128">
        <ele>247</ele>
        <time>2025-04-11T12:16:34.000Z</time>
      </trkpt>
      <trkpt lat="44.33059" lon="4.11293">
        <ele>245</ele>
        <time>2025-04-11T12:16:41.000Z</time>
      </trkpt>
      <trkpt lat="44.33058" lon="4.11306">
        <ele>244</ele>
        <time>2025-04-11T12:16:53.000Z</time>
      </trkpt>
      <trkpt lat="44.33056" lon="4.1132">
        <ele>243</ele>
        <time>2025-04-11T12:16:59.000Z</time>
      </trkpt>
      <trkpt lat="44.33054" lon="4.11333">
        <ele>242</ele>
        <time>2025-04-11T12:17:07.000Z</time>
      </trkpt>
      <trkpt lat="44.3305" lon="4.11346">
        <ele>242</ele>
        <time>2025-04-11T12:17:15.000Z</time>
      </trkpt>
      <trkpt lat="44.33048" lon="4.1136">
        <ele>241</ele>
        <time>2025-04-11T12:17:21.000Z</time>
      </trkpt>
      <trkpt lat="44.33045" lon="4.11373">
        <ele>241</ele>
        <time>2025-04-11T12:17:31.000Z</time>
      </trkpt>
      <trkpt lat="44.33046" lon="4.11386">
        <ele>243</ele>
        <time>2025-04-11T12:17:39.000Z</time>
      </trkpt>
      <trkpt lat="44.33045" lon="4.11399">
        <ele>245</ele>
        <time>2025-04-11T12:17:49.000Z</time>
      </trkpt>
      <trkpt lat="44.33043" lon="4.11411">
        <ele>248</ele>
        <time>2025-04-11T12:17:59.000Z</time>
      </trkpt>
      <trkpt lat="44.33041" lon="4.11422">
        <ele>251</ele>
        <time>2025-04-11T12:18:04.000Z</time>
      </trkpt>
      <trkpt lat="44.33048" lon="4.11427">
        <ele>253</ele>
        <time>2025-04-11T12:18:49.000Z</time>
      </trkpt>
      <trkpt lat="44.33058" lon="4.11423">
        <ele>255</ele>
        <time>2025-04-11T12:18:59.000Z</time>
      </trkpt>
      <trkpt lat="44.33068" lon="4.11418">
        <ele>257</ele>
        <time>2025-04-11T12:19:07.000Z</time>
      </trkpt>
      <trkpt lat="44.33077" lon="4.11414">
        <ele>258</ele>
        <time>2025-04-11T12:19:17.000Z</time>
      </trkpt>
      <trkpt lat="44.33087" lon="4.11412">
        <ele>259</ele>
        <time>2025-04-11T12:19:27.000Z</time>
      </trkpt>
      <trkpt lat="44.33096" lon="4.11412">
        <ele>260</ele>
        <time>2025-04-11T12:19:35.000Z</time>
      </trkpt>
      <trkpt lat="44.33105" lon="4.11409">
        <ele>261</ele>
        <time>2025-04-11T12:19:45.000Z</time>
      </trkpt>
      <trkpt lat="44.33115" lon="4.11409">
        <ele>263</ele>
        <time>2025-04-11T12:19:51.000Z</time>
      </trkpt>
      <trkpt lat="44.33125" lon="4.1141">
        <ele>264</ele>
        <time>2025-04-11T12:19:59.000Z</time>
      </trkpt>
      <trkpt lat="44.33134" lon="4.11411">
        <ele>265</ele>
        <time>2025-04-11T12:20:09.000Z</time>
      </trkpt>
      <trkpt lat="44.33143" lon="4.11411">
        <ele>266</ele>
        <time>2025-04-11T12:20:21.000Z</time>
      </trkpt>
      <trkpt lat="44.33153" lon="4.11412">
        <ele>267</ele>
        <time>2025-04-11T12:20:28.000Z</time>
      </trkpt>
      <trkpt lat="44.33163" lon="4.11411">
        <ele>268</ele>
        <time>2025-04-11T12:20:37.000Z</time>
      </trkpt>
      <trkpt lat="44.33173" lon="4.1141">
        <ele>269</ele>
        <time>2025-04-11T12:20:47.000Z</time>
      </trkpt>
      <trkpt lat="44.33183" lon="4.11409">
        <ele>270</ele>
        <time>2025-04-11T12:20:55.000Z</time>
      </trkpt>
      <trkpt lat="44.33192" lon="4.11406">
        <ele>270</ele>
        <time>2025-04-11T12:21:03.000Z</time>
      </trkpt>
      <trkpt lat="44.33202" lon="4.11403">
        <ele>271</ele>
        <time>2025-04-11T12:21:10.000Z</time>
      </trkpt>
      <trkpt lat="44.33213" lon="4.11403">
        <ele>272</ele>
        <time>2025-04-11T12:21:19.000Z</time>
      </trkpt>
      <trkpt lat="44.33224" lon="4.11401">
        <ele>272</ele>
        <time>2025-04-11T12:21:29.000Z</time>
      </trkpt>
      <trkpt lat="44.33233" lon="4.114">
        <ele>272</ele>
        <time>2025-04-11T12:21:39.000Z</time>
      </trkpt>
      <trkpt lat="44.33242" lon="4.11392">
        <ele>272</ele>
        <time>2025-04-11T12:21:45.000Z</time>
      </trkpt>
      <trkpt lat="44.33252" lon="4.11389">
        <ele>272</ele>
        <time>2025-04-11T12:21:51.000Z</time>
      </trkpt>
      <trkpt lat="44.33261" lon="4.11391">
        <ele>273</ele>
        <time>2025-04-11T12:22:01.000Z</time>
      </trkpt>
      <trkpt lat="44.33271" lon="4.11392">
        <ele>273</ele>
        <time>2025-04-11T12:22:07.000Z</time>
      </trkpt>
      <trkpt lat="44.33281" lon="4.11391">
        <ele>273</ele>
        <time>2025-04-11T12:22:17.000Z</time>
      </trkpt>
      <trkpt lat="44.3329" lon="4.11391">
        <ele>273</ele>
        <time>2025-04-11T12:22:27.000Z</time>
      </trkpt>
      <trkpt lat="44.333" lon="4.11391">
        <ele>274</ele>
        <time>2025-04-11T12:22:32.000Z</time>
      </trkpt>
      <trkpt lat="44.3331" lon="4.11391">
        <ele>274</ele>
        <time>2025-04-11T12:22:39.000Z</time>
      </trkpt>
      <trkpt lat="44.33319" lon="4.11392">
        <ele>274</ele>
        <time>2025-04-11T12:22:47.000Z</time>
      </trkpt>
      <trkpt lat="44.33328" lon="4.11393">
        <ele>274</ele>
        <time>2025-04-11T12:22:53.000Z</time>
      </trkpt>
      <trkpt lat="44.33338" lon="4.11395">
        <ele>274</ele>
        <time>2025-04-11T12:23:01.000Z</time>
      </trkpt>
      <trkpt lat="44.33346" lon="4.11399">
        <ele>273</ele>
        <time>2025-04-11T12:23:09.000Z</time>
      </trkpt>
      <trkpt lat="44.33356" lon="4.11405">
        <ele>273</ele>
        <time>2025-04-11T12:23:17.000Z</time>
      </trkpt>
      <trkpt lat="44.33366" lon="4.1141">
        <ele>271</ele>
        <time>2025-04-11T12:23:24.000Z</time>
      </trkpt>
      <trkpt lat="44.33376" lon="4.11415">
        <ele>270</ele>
        <time>2025-04-11T12:23:35.000Z</time>
      </trkpt>
      <trkpt lat="44.33385" lon="4.11421">
        <ele>268</ele>
        <time>2025-04-11T12:23:43.000Z</time>
      </trkpt>
      <trkpt lat="44.33393" lon="4.11427">
        <ele>267</ele>
        <time>2025-04-11T12:23:51.000Z</time>
      </trkpt>
      <trkpt lat="44.33402" lon="4.11432">
        <ele>267</ele>
        <time>2025-04-11T12:23:59.000Z</time>
      </trkpt>
      <trkpt lat="44.33411" lon="4.11436">
        <ele>267</ele>
        <time>2025-04-11T12:24:07.000Z</time>
      </trkpt>
      <trkpt lat="44.33421" lon="4.11436">
        <ele>267</ele>
        <time>2025-04-11T12:24:15.000Z</time>
      </trkpt>
      <trkpt lat="44.3343" lon="4.11438">
        <ele>268</ele>
        <time>2025-04-11T12:24:23.000Z</time>
      </trkpt>
      <trkpt lat="44.33439" lon="4.11439">
        <ele>269</ele>
        <time>2025-04-11T12:24:33.000Z</time>
      </trkpt>
      <trkpt lat="44.33449" lon="4.11441">
        <ele>271</ele>
        <time>2025-04-11T12:24:41.000Z</time>
      </trkpt>
      <trkpt lat="44.33458" lon="4.11444">
        <ele>272</ele>
        <time>2025-04-11T12:24:51.000Z</time>
      </trkpt>
      <trkpt lat="44.33468" lon="4.11445">
        <ele>274</ele>
        <time>2025-04-11T12:24:59.000Z</time>
      </trkpt>
      <trkpt lat="44.33478" lon="4.11444">
        <ele>276</ele>
        <time>2025-04-11T12:25:07.000Z</time>
      </trkpt>
      <trkpt lat="44.33487" lon="4.11441">
        <ele>278</ele>
        <time>2025-04-11T12:25:17.000Z</time>
      </trkpt>
      <trkpt lat="44.33495" lon="4.11434">
        <ele>280</ele>
        <time>2025-04-11T12:25:27.000Z</time>
      </trkpt>
      <trkpt lat="44.33504" lon="4.11427">
        <ele>283</ele>
        <time>2025-04-11T12:25:35.000Z</time>
      </trkpt>
      <trkpt lat="44.33513" lon="4.11424">
        <ele>285</ele>
        <time>2025-04-11T12:25:41.000Z</time>
      </trkpt>
      <trkpt lat="44.33522" lon="4.11423">
        <ele>288</ele>
        <time>2025-04-11T12:25:49.000Z</time>
      </trkpt>
      <trkpt lat="44.33531" lon="4.11422">
        <ele>290</ele>
        <time>2025-04-11T12:25:57.000Z</time>
      </trkpt>
      <trkpt lat="44.33541" lon="4.11426">
        <ele>291</ele>
        <time>2025-04-11T12:26:05.000Z</time>
      </trkpt>
      <trkpt lat="44.33551" lon="4.11428">
        <ele>291</ele>
        <time>2025-04-11T12:26:15.000Z</time>
      </trkpt>
      <trkpt lat="44.33561" lon="4.11427">
        <ele>291</ele>
        <time>2025-04-11T12:26:25.000Z</time>
      </trkpt>
      <trkpt lat="44.33571" lon="4.11426">
        <ele>291</ele>
        <time>2025-04-11T12:26:33.000Z</time>
      </trkpt>
      <trkpt lat="44.33582" lon="4.1143">
        <ele>291</ele>
        <time>2025-04-11T12:26:41.000Z</time>
      </trkpt>
      <trkpt lat="44.33592" lon="4.11434">
        <ele>290</ele>
        <time>2025-04-11T12:26:49.000Z</time>
      </trkpt>
      <trkpt lat="44.33601" lon="4.11438">
        <ele>288</ele>
        <time>2025-04-11T12:26:55.000Z</time>
      </trkpt>
      <trkpt lat="44.3361" lon="4.11442">
        <ele>286</ele>
        <time>2025-04-11T12:27:03.000Z</time>
      </trkpt>
      <trkpt lat="44.33618" lon="4.1145">
        <ele>284</ele>
        <time>2025-04-11T12:27:11.000Z</time>
      </trkpt>
      <trkpt lat="44.33626" lon="4.11455">
        <ele>282</ele>
        <time>2025-04-11T12:27:17.000Z</time>
      </trkpt>
      <trkpt lat="44.33635" lon="4.11461">
        <ele>280</ele>
        <time>2025-04-11T12:27:25.000Z</time>
      </trkpt>
      <trkpt lat="44.33643" lon="4.1147">
        <ele>279</ele>
        <time>2025-04-11T12:27:33.000Z</time>
      </trkpt>
      <trkpt lat="44.33649" lon="4.11481">
        <ele>278</ele>
        <time>2025-04-11T12:27:41.000Z</time>
      </trkpt>
      <trkpt lat="44.33653" lon="4.11493">
        <ele>279</ele>
        <time>2025-04-11T12:27:49.000Z</time>
      </trkpt>
      <trkpt lat="44.3366" lon="4.11502">
        <ele>279</ele>
        <time>2025-04-11T12:27:59.000Z</time>
      </trkpt>
      <trkpt lat="44.33667" lon="4.11503">
        <ele>281</ele>
        <time>2025-04-11T12:28:09.000Z</time>
      </trkpt>
      <trkpt lat="44.33665" lon="4.1151">
        <ele>281</ele>
        <time>2025-04-11T12:28:51.000Z</time>
      </trkpt>
      <trkpt lat="44.33673" lon="4.11513">
        <ele>281</ele>
        <time>2025-04-11T12:29:18.000Z</time>
      </trkpt>
      <trkpt lat="44.33682" lon="4.11517">
        <ele>281</ele>
        <time>2025-04-11T12:29:25.000Z</time>
      </trkpt>
      <trkpt lat="44.3369" lon="4.11523">
        <ele>281</ele>
        <time>2025-04-11T12:29:35.000Z</time>
      </trkpt>
      <trkpt lat="44.337" lon="4.11521">
        <ele>281</ele>
        <time>2025-04-11T12:30:17.000Z</time>
      </trkpt>
      <trkpt lat="44.33711" lon="4.11524">
        <ele>280</ele>
        <time>2025-04-11T12:30:27.000Z</time>
      </trkpt>
      <trkpt lat="44.3372" lon="4.11528">
        <ele>280</ele>
        <time>2025-04-11T12:30:35.000Z</time>
      </trkpt>
      <trkpt lat="44.33729" lon="4.11533">
        <ele>279</ele>
        <time>2025-04-11T12:30:43.000Z</time>
      </trkpt>
      <trkpt lat="44.33737" lon="4.11538">
        <ele>279</ele>
        <time>2025-04-11T12:30:50.000Z</time>
      </trkpt>
      <trkpt lat="44.33745" lon="4.11545">
        <ele>279</ele>
        <time>2025-04-11T12:31:01.000Z</time>
      </trkpt>
      <trkpt lat="44.33753" lon="4.1155">
        <ele>279</ele>
        <time>2025-04-11T12:31:19.000Z</time>
      </trkpt>
      <trkpt lat="44.33762" lon="4.11554">
        <ele>279</ele>
        <time>2025-04-11T12:31:25.000Z</time>
      </trkpt>
      <trkpt lat="44.3377" lon="4.11558">
        <ele>280</ele>
        <time>2025-04-11T12:31:35.000Z</time>
      </trkpt>
      <trkpt lat="44.33779" lon="4.11561">
        <ele>281</ele>
        <time>2025-04-11T12:31:45.000Z</time>
      </trkpt>
      <trkpt lat="44.33789" lon="4.11566">
        <ele>281</ele>
        <time>2025-04-11T12:32:31.000Z</time>
      </trkpt>
      <trkpt lat="44.33798" lon="4.1157">
        <ele>282</ele>
        <time>2025-04-11T12:32:39.000Z</time>
      </trkpt>
      <trkpt lat="44.33807" lon="4.11572">
        <ele>283</ele>
        <time>2025-04-11T12:34:25.000Z</time>
      </trkpt>
      <trkpt lat="44.33816" lon="4.11574">
        <ele>284</ele>
        <time>2025-04-11T12:34:32.000Z</time>
      </trkpt>
      <trkpt lat="44.33826" lon="4.11575">
        <ele>284</ele>
        <time>2025-04-11T12:34:42.000Z</time>
      </trkpt>
      <trkpt lat="44.33835" lon="4.11574">
        <ele>285</ele>
        <time>2025-04-11T12:34:50.000Z</time>
      </trkpt>
      <trkpt lat="44.33845" lon="4.11573">
        <ele>286</ele>
        <time>2025-04-11T12:34:59.000Z</time>
      </trkpt>
      <trkpt lat="44.33854" lon="4.11572">
        <ele>287</ele>
        <time>2025-04-11T12:35:07.000Z</time>
      </trkpt>
      <trkpt lat="44.33864" lon="4.11572">
        <ele>289</ele>
        <time>2025-04-11T12:35:15.000Z</time>
      </trkpt>
      <trkpt lat="44.33874" lon="4.11571">
        <ele>290</ele>
        <time>2025-04-11T12:35:24.000Z</time>
      </trkpt>
      <trkpt lat="44.33883" lon="4.11569">
        <ele>291</ele>
        <time>2025-04-11T12:35:33.000Z</time>
      </trkpt>
      <trkpt lat="44.33891" lon="4.11562">
        <ele>292</ele>
        <time>2025-04-11T12:35:40.000Z</time>
      </trkpt>
      <trkpt lat="44.33901" lon="4.11557">
        <ele>292</ele>
        <time>2025-04-11T12:35:51.000Z</time>
      </trkpt>
      <trkpt lat="44.33909" lon="4.11558">
        <ele>293</ele>
        <time>2025-04-11T12:37:03.000Z</time>
      </trkpt>
      <trkpt lat="44.33919" lon="4.11554">
        <ele>294</ele>
        <time>2025-04-11T12:37:31.000Z</time>
      </trkpt>
      <trkpt lat="44.33928" lon="4.11554">
        <ele>295</ele>
        <time>2025-04-11T12:37:37.000Z</time>
      </trkpt>
      <trkpt lat="44.33937" lon="4.11557">
        <ele>296</ele>
        <time>2025-04-11T12:37:45.000Z</time>
      </trkpt>
      <trkpt lat="44.33945" lon="4.11553">
        <ele>297</ele>
        <time>2025-04-11T12:37:57.000Z</time>
      </trkpt>
      <trkpt lat="44.33953" lon="4.11547">
        <ele>298</ele>
        <time>2025-04-11T12:38:05.000Z</time>
      </trkpt>
      <trkpt lat="44.33962" lon="4.11545">
        <ele>299</ele>
        <time>2025-04-11T12:38:13.000Z</time>
      </trkpt>
      <trkpt lat="44.3397" lon="4.11549">
        <ele>300</ele>
        <time>2025-04-11T12:38:18.000Z</time>
      </trkpt>
      <trkpt lat="44.33975" lon="4.11559">
        <ele>300</ele>
        <time>2025-04-11T12:38:25.000Z</time>
      </trkpt>
      <trkpt lat="44.33979" lon="4.11571">
        <ele>300</ele>
        <time>2025-04-11T12:38:31.000Z</time>
      </trkpt>
      <trkpt lat="44.33982" lon="4.11584">
        <ele>300</ele>
        <time>2025-04-11T12:38:39.000Z</time>
      </trkpt>
      <trkpt lat="44.33987" lon="4.11597">
        <ele>300</ele>
        <time>2025-04-11T12:38:49.000Z</time>
      </trkpt>
      <trkpt lat="44.33994" lon="4.11605">
        <ele>300</ele>
        <time>2025-04-11T12:38:57.000Z</time>
      </trkpt>
      <trkpt lat="44.34002" lon="4.11611">
        <ele>300</ele>
        <time>2025-04-11T12:39:04.000Z</time>
      </trkpt>
      <trkpt lat="44.34009" lon="4.11619">
        <ele>300</ele>
        <time>2025-04-11T12:39:13.000Z</time>
      </trkpt>
      <trkpt lat="44.34017" lon="4.11627">
        <ele>301</ele>
        <time>2025-04-11T12:39:20.000Z</time>
      </trkpt>
      <trkpt lat="44.34026" lon="4.11634">
        <ele>302</ele>
        <time>2025-04-11T12:39:30.000Z</time>
      </trkpt>
      <trkpt lat="44.34037" lon="4.11636">
        <ele>302</ele>
        <time>2025-04-11T12:39:39.000Z</time>
      </trkpt>
      <trkpt lat="44.34046" lon="4.11639">
        <ele>303</ele>
        <time>2025-04-11T12:39:47.000Z</time>
      </trkpt>
      <trkpt lat="44.34057" lon="4.1164">
        <ele>304</ele>
        <time>2025-04-11T12:39:57.000Z</time>
      </trkpt>
      <trkpt lat="44.34066" lon="4.11643">
        <ele>304</ele>
        <time>2025-04-11T12:40:03.000Z</time>
      </trkpt>
      <trkpt lat="44.34075" lon="4.11646">
        <ele>304</ele>
        <time>2025-04-11T12:40:11.000Z</time>
      </trkpt>
      <trkpt lat="44.34084" lon="4.11651">
        <ele>304</ele>
        <time>2025-04-11T12:40:17.000Z</time>
      </trkpt>
      <trkpt lat="44.34092" lon="4.11657">
        <ele>304</ele>
        <time>2025-04-11T12:40:23.000Z</time>
      </trkpt>
      <trkpt lat="44.341" lon="4.11663">
        <ele>303</ele>
        <time>2025-04-11T12:40:29.000Z</time>
      </trkpt>
      <trkpt lat="44.34108" lon="4.11668">
        <ele>303</ele>
        <time>2025-04-11T12:40:34.000Z</time>
      </trkpt>
      <trkpt lat="44.34118" lon="4.11673">
        <ele>302</ele>
        <time>2025-04-11T12:40:43.000Z</time>
      </trkpt>
      <trkpt lat="44.34125" lon="4.11681">
        <ele>302</ele>
        <time>2025-04-11T12:40:51.000Z</time>
      </trkpt>
      <trkpt lat="44.34131" lon="4.11691">
        <ele>302</ele>
        <time>2025-04-11T12:40:59.000Z</time>
      </trkpt>
      <trkpt lat="44.34138" lon="4.11702">
        <ele>303</ele>
        <time>2025-04-11T12:41:06.000Z</time>
      </trkpt>
      <trkpt lat="44.34144" lon="4.11713">
        <ele>304</ele>
        <time>2025-04-11T12:41:15.000Z</time>
      </trkpt>
      <trkpt lat="44.34148" lon="4.11724">
        <ele>305</ele>
        <time>2025-04-11T12:41:25.000Z</time>
      </trkpt>
      <trkpt lat="44.34148" lon="4.11736">
        <ele>306</ele>
        <time>2025-04-11T12:41:33.000Z</time>
      </trkpt>
      <trkpt lat="44.34151" lon="4.11748">
        <ele>307</ele>
        <time>2025-04-11T12:41:45.000Z</time>
      </trkpt>
      <trkpt lat="44.34159" lon="4.11756">
        <ele>308</ele>
        <time>2025-04-11T12:41:53.000Z</time>
      </trkpt>
      <trkpt lat="44.34166" lon="4.11766">
        <ele>310</ele>
        <time>2025-04-11T12:42:00.000Z</time>
      </trkpt>
      <trkpt lat="44.34173" lon="4.11775">
        <ele>311</ele>
        <time>2025-04-11T12:42:08.000Z</time>
      </trkpt>
      <trkpt lat="44.3418" lon="4.11783">
        <ele>313</ele>
        <time>2025-04-11T12:42:20.000Z</time>
      </trkpt>
      <trkpt lat="44.34188" lon="4.11791">
        <ele>314</ele>
        <time>2025-04-11T12:42:28.000Z</time>
      </trkpt>
      <trkpt lat="44.34193" lon="4.11802">
        <ele>316</ele>
        <time>2025-04-11T12:42:39.000Z</time>
      </trkpt>
      <trkpt lat="44.34196" lon="4.11816">
        <ele>317</ele>
        <time>2025-04-11T12:42:49.000Z</time>
      </trkpt>
      <trkpt lat="44.34201" lon="4.11827">
        <ele>318</ele>
        <time>2025-04-11T12:42:57.000Z</time>
      </trkpt>
      <trkpt lat="44.34204" lon="4.11839">
        <ele>319</ele>
        <time>2025-04-11T12:43:05.000Z</time>
      </trkpt>
      <trkpt lat="44.34207" lon="4.11851">
        <ele>319</ele>
        <time>2025-04-11T12:43:13.000Z</time>
      </trkpt>
      <trkpt lat="44.34211" lon="4.11863">
        <ele>321</ele>
        <time>2025-04-11T12:43:22.000Z</time>
      </trkpt>
      <trkpt lat="44.34217" lon="4.11874">
        <ele>322</ele>
        <time>2025-04-11T12:43:33.000Z</time>
      </trkpt>
      <trkpt lat="44.3422" lon="4.11883">
        <ele>323</ele>
        <time>2025-04-11T12:43:55.000Z</time>
      </trkpt>
      <trkpt lat="44.34216" lon="4.1188">
        <ele>324</ele>
        <time>2025-04-11T12:44:43.000Z</time>
      </trkpt>
      <trkpt lat="44.34221" lon="4.11888">
        <ele>325</ele>
        <time>2025-04-11T12:48:09.000Z</time>
      </trkpt>
      <trkpt lat="44.34223" lon="4.11902">
        <ele>325</ele>
        <time>2025-04-11T12:48:19.000Z</time>
      </trkpt>
      <trkpt lat="44.34222" lon="4.11916">
        <ele>325</ele>
        <time>2025-04-11T12:48:29.000Z</time>
      </trkpt>
      <trkpt lat="44.34227" lon="4.11928">
        <ele>325</ele>
        <time>2025-04-11T12:48:39.000Z</time>
      </trkpt>
      <trkpt lat="44.34232" lon="4.1194">
        <ele>324</ele>
        <time>2025-04-11T12:48:49.000Z</time>
      </trkpt>
      <trkpt lat="44.34239" lon="4.1195">
        <ele>324</ele>
        <time>2025-04-11T12:48:58.000Z</time>
      </trkpt>
      <trkpt lat="44.34246" lon="4.11959">
        <ele>323</ele>
        <time>2025-04-11T12:49:06.000Z</time>
      </trkpt>
      <trkpt lat="44.34252" lon="4.11969">
        <ele>324</ele>
        <time>2025-04-11T12:49:15.000Z</time>
      </trkpt>
      <trkpt lat="44.3426" lon="4.11979">
        <ele>324</ele>
        <time>2025-04-11T12:49:22.000Z</time>
      </trkpt>
      <trkpt lat="44.34265" lon="4.11991">
        <ele>324</ele>
        <time>2025-04-11T12:49:31.000Z</time>
      </trkpt>
      <trkpt lat="44.34268" lon="4.12005">
        <ele>323</ele>
        <time>2025-04-11T12:49:39.000Z</time>
      </trkpt>
      <trkpt lat="44.34264" lon="4.12017">
        <ele>323</ele>
        <time>2025-04-11T12:49:47.000Z</time>
      </trkpt>
      <trkpt lat="44.34254" lon="4.12023">
        <ele>322</ele>
        <time>2025-04-11T12:49:55.000Z</time>
      </trkpt>
      <trkpt lat="44.34244" lon="4.12026">
        <ele>322</ele>
        <time>2025-04-11T12:50:03.000Z</time>
      </trkpt>
      <trkpt lat="44.34235" lon="4.1203">
        <ele>322</ele>
        <time>2025-04-11T12:50:11.000Z</time>
      </trkpt>
      <trkpt lat="44.34226" lon="4.12038">
        <ele>322</ele>
        <time>2025-04-11T12:50:19.000Z</time>
      </trkpt>
      <trkpt lat="44.34219" lon="4.12047">
        <ele>322</ele>
        <time>2025-04-11T12:50:27.000Z</time>
      </trkpt>
      <trkpt lat="44.3421" lon="4.12054">
        <ele>322</ele>
        <time>2025-04-11T12:50:35.000Z</time>
      </trkpt>
      <trkpt lat="44.34205" lon="4.12064">
        <ele>322</ele>
        <time>2025-04-11T12:50:43.000Z</time>
      </trkpt>
      <trkpt lat="44.34203" lon="4.12077">
        <ele>322</ele>
        <time>2025-04-11T12:50:57.000Z</time>
      </trkpt>
      <trkpt lat="44.34199" lon="4.12088">
        <ele>322</ele>
        <time>2025-04-11T12:51:03.000Z</time>
      </trkpt>
      <trkpt lat="44.342" lon="4.12101">
        <ele>321</ele>
        <time>2025-04-11T12:51:09.000Z</time>
      </trkpt>
      <trkpt lat="44.34206" lon="4.12112">
        <ele>321</ele>
        <time>2025-04-11T12:51:19.000Z</time>
      </trkpt>
      <trkpt lat="44.34215" lon="4.12118">
        <ele>320</ele>
        <time>2025-04-11T12:51:27.000Z</time>
      </trkpt>
      <trkpt lat="44.34224" lon="4.12123">
        <ele>318</ele>
        <time>2025-04-11T12:51:35.000Z</time>
      </trkpt>
      <trkpt lat="44.34233" lon="4.1213">
        <ele>317</ele>
        <time>2025-04-11T12:51:43.000Z</time>
      </trkpt>
      <trkpt lat="44.3424" lon="4.12138">
        <ele>316</ele>
        <time>2025-04-11T12:51:51.000Z</time>
      </trkpt>
      <trkpt lat="44.34248" lon="4.12146">
        <ele>315</ele>
        <time>2025-04-11T12:51:59.000Z</time>
      </trkpt>
      <trkpt lat="44.34254" lon="4.12157">
        <ele>315</ele>
        <time>2025-04-11T12:52:07.000Z</time>
      </trkpt>
      <trkpt lat="44.34257" lon="4.12171">
        <ele>314</ele>
        <time>2025-04-11T12:52:15.000Z</time>
      </trkpt>
      <trkpt lat="44.34256" lon="4.12185">
        <ele>314</ele>
        <time>2025-04-11T12:52:23.000Z</time>
      </trkpt>
      <trkpt lat="44.34256" lon="4.122">
        <ele>314</ele>
        <time>2025-04-11T12:52:31.000Z</time>
      </trkpt>
      <trkpt lat="44.34251" lon="4.12211">
        <ele>314</ele>
        <time>2025-04-11T12:52:39.000Z</time>
      </trkpt>
      <trkpt lat="44.34242" lon="4.12219">
        <ele>314</ele>
        <time>2025-04-11T12:52:47.000Z</time>
      </trkpt>
      <trkpt lat="44.34232" lon="4.12223">
        <ele>313</ele>
        <time>2025-04-11T12:52:53.000Z</time>
      </trkpt>
      <trkpt lat="44.34223" lon="4.12231">
        <ele>312</ele>
        <time>2025-04-11T12:53:01.000Z</time>
      </trkpt>
      <trkpt lat="44.34216" lon="4.12242">
        <ele>311</ele>
        <time>2025-04-11T12:53:09.000Z</time>
      </trkpt>
      <trkpt lat="44.3421" lon="4.12251">
        <ele>310</ele>
        <time>2025-04-11T12:53:17.000Z</time>
      </trkpt>
      <trkpt lat="44.34207" lon="4.12263">
        <ele>309</ele>
        <time>2025-04-11T12:53:26.000Z</time>
      </trkpt>
      <trkpt lat="44.3421" lon="4.12275">
        <ele>309</ele>
        <time>2025-04-11T12:53:34.000Z</time>
      </trkpt>
      <trkpt lat="44.34211" lon="4.12288">
        <ele>308</ele>
        <time>2025-04-11T12:53:42.000Z</time>
      </trkpt>
      <trkpt lat="44.34208" lon="4.12302">
        <ele>308</ele>
        <time>2025-04-11T12:53:51.000Z</time>
      </trkpt>
      <trkpt lat="44.34205" lon="4.12314">
        <ele>307</ele>
        <time>2025-04-11T12:53:59.000Z</time>
      </trkpt>
      <trkpt lat="44.34205" lon="4.12326">
        <ele>306</ele>
        <time>2025-04-11T12:54:07.000Z</time>
      </trkpt>
      <trkpt lat="44.34203" lon="4.12339">
        <ele>305</ele>
        <time>2025-04-11T12:54:15.000Z</time>
      </trkpt>
      <trkpt lat="44.34199" lon="4.1235">
        <ele>304</ele>
        <time>2025-04-11T12:54:22.000Z</time>
      </trkpt>
      <trkpt lat="44.34193" lon="4.12358">
        <ele>304</ele>
        <time>2025-04-11T12:54:33.000Z</time>
      </trkpt>
      <trkpt lat="44.34183" lon="4.12359">
        <ele>303</ele>
        <time>2025-04-11T12:55:11.000Z</time>
      </trkpt>
      <trkpt lat="44.34174" lon="4.12356">
        <ele>303</ele>
        <time>2025-04-11T12:55:19.000Z</time>
      </trkpt>
      <trkpt lat="44.34168" lon="4.12348">
        <ele>303</ele>
        <time>2025-04-11T12:55:30.000Z</time>
      </trkpt>
      <trkpt lat="44.34162" lon="4.12339">
        <ele>303</ele>
        <time>2025-04-11T12:55:39.000Z</time>
      </trkpt>
      <trkpt lat="44.34155" lon="4.12332">
        <ele>302</ele>
        <time>2025-04-11T12:55:47.000Z</time>
      </trkpt>
      <trkpt lat="44.3415" lon="4.1234">
        <ele>301</ele>
        <time>2025-04-11T12:55:59.000Z</time>
      </trkpt>
      <trkpt lat="44.34149" lon="4.12352">
        <ele>300</ele>
        <time>2025-04-11T12:56:05.000Z</time>
      </trkpt>
      <trkpt lat="44.34149" lon="4.12365">
        <ele>298</ele>
        <time>2025-04-11T12:56:14.000Z</time>
      </trkpt>
      <trkpt lat="44.34143" lon="4.12376">
        <ele>297</ele>
        <time>2025-04-11T12:56:41.000Z</time>
      </trkpt>
      <trkpt lat="44.34136" lon="4.12384">
        <ele>296</ele>
        <time>2025-04-11T12:57:59.000Z</time>
      </trkpt>
      <trkpt lat="44.34128" lon="4.12388">
        <ele>295</ele>
        <time>2025-04-11T12:58:15.000Z</time>
      </trkpt>
      <trkpt lat="44.34119" lon="4.12388">
        <ele>295</ele>
        <time>2025-04-11T12:58:24.000Z</time>
      </trkpt>
      <trkpt lat="44.34109" lon="4.12391">
        <ele>295</ele>
        <time>2025-04-11T12:58:41.000Z</time>
      </trkpt>
      <trkpt lat="44.34101" lon="4.12394">
        <ele>295</ele>
        <time>2025-04-11T12:58:49.000Z</time>
      </trkpt>
      <trkpt lat="44.34092" lon="4.12396">
        <ele>295</ele>
        <time>2025-04-11T12:58:55.000Z</time>
      </trkpt>
      <trkpt lat="44.34084" lon="4.12399">
        <ele>295</ele>
        <time>2025-04-11T12:59:03.000Z</time>
      </trkpt>
      <trkpt lat="44.34075" lon="4.12402">
        <ele>295</ele>
        <time>2025-04-11T12:59:11.000Z</time>
      </trkpt>
      <trkpt lat="44.34065" lon="4.12404">
        <ele>295</ele>
        <time>2025-04-11T12:59:21.000Z</time>
      </trkpt>
      <trkpt lat="44.34056" lon="4.12402">
        <ele>296</ele>
        <time>2025-04-11T12:59:31.000Z</time>
      </trkpt>
      <trkpt lat="44.34047" lon="4.12397">
        <ele>296</ele>
        <time>2025-04-11T12:59:39.000Z</time>
      </trkpt>
      <trkpt lat="44.3404" lon="4.12398">
        <ele>295</ele>
        <time>2025-04-11T12:59:49.000Z</time>
      </trkpt>
      <trkpt lat="44.3404" lon="4.12409">
        <ele>294</ele>
        <time>2025-04-11T12:59:59.000Z</time>
      </trkpt>
      <trkpt lat="44.34045" lon="4.1242">
        <ele>292</ele>
        <time>2025-04-11T13:00:09.000Z</time>
      </trkpt>
      <trkpt lat="44.34051" lon="4.1243">
        <ele>291</ele>
        <time>2025-04-11T13:00:17.000Z</time>
      </trkpt>
      <trkpt lat="44.34057" lon="4.12439">
        <ele>289</ele>
        <time>2025-04-11T13:00:27.000Z</time>
      </trkpt>
      <trkpt lat="44.34064" lon="4.12447">
        <ele>287</ele>
        <time>2025-04-11T13:00:35.000Z</time>
      </trkpt>
      <trkpt lat="44.3407" lon="4.12457">
        <ele>285</ele>
        <time>2025-04-11T13:00:43.000Z</time>
      </trkpt>
      <trkpt lat="44.34076" lon="4.12467">
        <ele>284</ele>
        <time>2025-04-11T13:00:51.000Z</time>
      </trkpt>
      <trkpt lat="44.34082" lon="4.12477">
        <ele>283</ele>
        <time>2025-04-11T13:01:00.000Z</time>
      </trkpt>
      <trkpt lat="44.34091" lon="4.12484">
        <ele>282</ele>
        <time>2025-04-11T13:01:11.000Z</time>
      </trkpt>
      <trkpt lat="44.341" lon="4.12488">
        <ele>282</ele>
        <time>2025-04-11T13:01:22.000Z</time>
      </trkpt>
      <trkpt lat="44.3411" lon="4.12489">
        <ele>282</ele>
        <time>2025-04-11T13:01:31.000Z</time>
      </trkpt>
      <trkpt lat="44.3412" lon="4.12487">
        <ele>281</ele>
        <time>2025-04-11T13:01:41.000Z</time>
      </trkpt>
      <trkpt lat="44.3413" lon="4.12482">
        <ele>281</ele>
        <time>2025-04-11T13:01:51.000Z</time>
      </trkpt>
      <trkpt lat="44.3414" lon="4.12485">
        <ele>280</ele>
        <time>2025-04-11T13:02:03.000Z</time>
      </trkpt>
      <trkpt lat="44.34146" lon="4.12496">
        <ele>280</ele>
        <time>2025-04-11T13:02:27.000Z</time>
      </trkpt>
      <trkpt lat="44.34155" lon="4.12498">
        <ele>280</ele>
        <time>2025-04-11T13:05:41.000Z</time>
      </trkpt>
      <trkpt lat="44.34163" lon="4.1249">
        <ele>280</ele>
        <time>2025-04-11T13:05:51.000Z</time>
      </trkpt>
      <trkpt lat="44.3417" lon="4.12484">
        <ele>281</ele>
        <time>2025-04-11T13:06:01.000Z</time>
      </trkpt>
      <trkpt lat="44.34177" lon="4.12481">
        <ele>281</ele>
        <time>2025-04-11T13:06:14.000Z</time>
      </trkpt>
      <trkpt lat="44.34171" lon="4.12486">
        <ele>281</ele>
        <time>2025-04-11T13:06:38.000Z</time>
      </trkpt>
      <trkpt lat="44.34162" lon="4.12492">
        <ele>282</ele>
        <time>2025-04-11T13:06:45.000Z</time>
      </trkpt>
      <trkpt lat="44.34155" lon="4.12499">
        <ele>282</ele>
        <time>2025-04-11T13:06:54.000Z</time>
      </trkpt>
      <trkpt lat="44.34147" lon="4.12505">
        <ele>282</ele>
        <time>2025-04-11T13:07:17.000Z</time>
      </trkpt>
      <trkpt lat="44.34139" lon="4.12512">
        <ele>282</ele>
        <time>2025-04-11T13:07:33.000Z</time>
      </trkpt>
      <trkpt lat="44.34131" lon="4.1252">
        <ele>282</ele>
        <time>2025-04-11T13:07:41.000Z</time>
      </trkpt>
      <trkpt lat="44.34123" lon="4.12529">
        <ele>281</ele>
        <time>2025-04-11T13:07:50.000Z</time>
      </trkpt>
      <trkpt lat="44.34115" lon="4.12536">
        <ele>281</ele>
        <time>2025-04-11T13:07:59.000Z</time>
      </trkpt>
      <trkpt lat="44.34106" lon="4.12542">
        <ele>282</ele>
        <time>2025-04-11T13:08:08.000Z</time>
      </trkpt>
      <trkpt lat="44.34097" lon="4.12548">
        <ele>283</ele>
        <time>2025-04-11T13:08:17.000Z</time>
      </trkpt>
      <trkpt lat="44.34088" lon="4.12553">
        <ele>284</ele>
        <time>2025-04-11T13:08:28.000Z</time>
      </trkpt>
      <trkpt lat="44.34079" lon="4.12558">
        <ele>285</ele>
        <time>2025-04-11T13:08:38.000Z</time>
      </trkpt>
      <trkpt lat="44.34072" lon="4.12561">
        <ele>286</ele>
        <time>2025-04-11T13:08:49.000Z</time>
      </trkpt>
      <trkpt lat="44.34076" lon="4.12569">
        <ele>287</ele>
        <time>2025-04-11T13:09:22.000Z</time>
      </trkpt>
      <trkpt lat="44.34078" lon="4.12581">
        <ele>287</ele>
        <time>2025-04-11T13:09:56.000Z</time>
      </trkpt>
      <trkpt lat="44.34074" lon="4.12591">
        <ele>287</ele>
        <time>2025-04-11T13:11:02.000Z</time>
      </trkpt>
      <trkpt lat="44.34067" lon="4.12596">
        <ele>288</ele>
        <time>2025-04-11T13:11:22.000Z</time>
      </trkpt>
      <trkpt lat="44.34068" lon="4.12607">
        <ele>288</ele>
        <time>2025-04-11T13:11:48.000Z</time>
      </trkpt>
      <trkpt lat="44.34061" lon="4.12614">
        <ele>289</ele>
        <time>2025-04-11T13:11:56.000Z</time>
      </trkpt>
      <trkpt lat="44.34052" lon="4.12615">
        <ele>290</ele>
        <time>2025-04-11T13:12:02.000Z</time>
      </trkpt>
      <trkpt lat="44.34044" lon="4.1262">
        <ele>291</ele>
        <time>2025-04-11T13:12:10.000Z</time>
      </trkpt>
      <trkpt lat="44.34036" lon="4.12626">
        <ele>292</ele>
        <time>2025-04-11T13:12:16.000Z</time>
      </trkpt>
      <trkpt lat="44.34028" lon="4.12634">
        <ele>293</ele>
        <time>2025-04-11T13:12:24.000Z</time>
      </trkpt>
      <trkpt lat="44.34021" lon="4.12644">
        <ele>293</ele>
        <time>2025-04-11T13:12:32.000Z</time>
      </trkpt>
      <trkpt lat="44.34015" lon="4.12653">
        <ele>294</ele>
        <time>2025-04-11T13:12:38.000Z</time>
      </trkpt>
      <trkpt lat="44.3401" lon="4.12664">
        <ele>295</ele>
        <time>2025-04-11T13:12:46.000Z</time>
      </trkpt>
      <trkpt lat="44.34005" lon="4.12676">
        <ele>296</ele>
        <time>2025-04-11T13:12:54.000Z</time>
      </trkpt>
      <trkpt lat="44.34" lon="4.12687">
        <ele>297</ele>
        <time>2025-04-11T13:13:01.000Z</time>
      </trkpt>
      <trkpt lat="44.33995" lon="4.12699">
        <ele>298</ele>
        <time>2025-04-11T13:13:09.000Z</time>
      </trkpt>
      <trkpt lat="44.33994" lon="4.12714">
        <ele>299</ele>
        <time>2025-04-11T13:13:17.000Z</time>
      </trkpt>
      <trkpt lat="44.33995" lon="4.12726">
        <ele>300</ele>
        <time>2025-04-11T13:13:24.000Z</time>
      </trkpt>
      <trkpt lat="44.33999" lon="4.12739">
        <ele>301</ele>
        <time>2025-04-11T13:13:32.000Z</time>
      </trkpt>
      <trkpt lat="44.34004" lon="4.12752">
        <ele>301</ele>
        <time>2025-04-11T13:13:40.000Z</time>
      </trkpt>
      <trkpt lat="44.3401" lon="4.12765">
        <ele>302</ele>
        <time>2025-04-11T13:13:48.000Z</time>
      </trkpt>
      <trkpt lat="44.34017" lon="4.12774">
        <ele>302</ele>
        <time>2025-04-11T13:13:56.000Z</time>
      </trkpt>
      <trkpt lat="44.34022" lon="4.12785">
        <ele>303</ele>
        <time>2025-04-11T13:14:04.000Z</time>
      </trkpt>
      <trkpt lat="44.34025" lon="4.12798">
        <ele>303</ele>
        <time>2025-04-11T13:14:11.000Z</time>
      </trkpt>
      <trkpt lat="44.34024" lon="4.1281">
        <ele>303</ele>
        <time>2025-04-11T13:14:22.000Z</time>
      </trkpt>
      <trkpt lat="44.34017" lon="4.12818">
        <ele>303</ele>
        <time>2025-04-11T13:14:28.000Z</time>
      </trkpt>
      <trkpt lat="44.34008" lon="4.12823">
        <ele>304</ele>
        <time>2025-04-11T13:14:34.000Z</time>
      </trkpt>
      <trkpt lat="44.34" lon="4.12831">
        <ele>304</ele>
        <time>2025-04-11T13:14:40.000Z</time>
      </trkpt>
      <trkpt lat="44.33992" lon="4.12839">
        <ele>304</ele>
        <time>2025-04-11T13:14:50.000Z</time>
      </trkpt>
      <trkpt lat="44.33984" lon="4.12847">
        <ele>305</ele>
        <time>2025-04-11T13:14:56.000Z</time>
      </trkpt>
      <trkpt lat="44.33976" lon="4.12854">
        <ele>305</ele>
        <time>2025-04-11T13:15:02.000Z</time>
      </trkpt>
      <trkpt lat="44.33967" lon="4.12861">
        <ele>305</ele>
        <time>2025-04-11T13:15:10.000Z</time>
      </trkpt>
      <trkpt lat="44.33959" lon="4.12869">
        <ele>305</ele>
        <time>2025-04-11T13:15:17.000Z</time>
      </trkpt>
      <trkpt lat="44.3395" lon="4.12875">
        <ele>305</ele>
        <time>2025-04-11T13:15:26.000Z</time>
      </trkpt>
      <trkpt lat="44.33942" lon="4.12879">
        <ele>305</ele>
        <time>2025-04-11T13:15:34.000Z</time>
      </trkpt>
      <trkpt lat="44.33932" lon="4.12881">
        <ele>306</ele>
        <time>2025-04-11T13:15:42.000Z</time>
      </trkpt>
      <trkpt lat="44.33923" lon="4.12882">
        <ele>307</ele>
        <time>2025-04-11T13:15:48.000Z</time>
      </trkpt>
      <trkpt lat="44.33914" lon="4.12885">
        <ele>308</ele>
        <time>2025-04-11T13:15:56.000Z</time>
      </trkpt>
      <trkpt lat="44.33905" lon="4.12887">
        <ele>309</ele>
        <time>2025-04-11T13:16:04.000Z</time>
      </trkpt>
      <trkpt lat="44.33896" lon="4.12892">
        <ele>309</ele>
        <time>2025-04-11T13:16:12.000Z</time>
      </trkpt>
      <trkpt lat="44.33888" lon="4.12901">
        <ele>309</ele>
        <time>2025-04-11T13:16:20.000Z</time>
      </trkpt>
      <trkpt lat="44.33883" lon="4.12914">
        <ele>309</ele>
        <time>2025-04-11T13:16:27.000Z</time>
      </trkpt>
      <trkpt lat="44.33877" lon="4.12927">
        <ele>309</ele>
        <time>2025-04-11T13:16:36.000Z</time>
      </trkpt>
      <trkpt lat="44.33875" lon="4.1294">
        <ele>309</ele>
        <time>2025-04-11T13:16:45.000Z</time>
      </trkpt>
      <trkpt lat="44.33875" lon="4.12953">
        <ele>309</ele>
        <time>2025-04-11T13:16:53.000Z</time>
      </trkpt>
      <trkpt lat="44.33877" lon="4.12967">
        <ele>309</ele>
        <time>2025-04-11T13:17:02.000Z</time>
      </trkpt>
      <trkpt lat="44.33876" lon="4.1298">
        <ele>309</ele>
        <time>2025-04-11T13:17:10.000Z</time>
      </trkpt>
      <trkpt lat="44.33871" lon="4.12989">
        <ele>309</ele>
        <time>2025-04-11T13:17:16.000Z</time>
      </trkpt>
      <trkpt lat="44.33862" lon="4.12994">
        <ele>309</ele>
        <time>2025-04-11T13:17:22.000Z</time>
      </trkpt>
      <trkpt lat="44.33853" lon="4.12997">
        <ele>308</ele>
        <time>2025-04-11T13:17:28.000Z</time>
      </trkpt>
      <trkpt lat="44.33844" lon="4.13003">
        <ele>308</ele>
        <time>2025-04-11T13:17:36.000Z</time>
      </trkpt>
      <trkpt lat="44.3384" lon="4.13014">
        <ele>308</ele>
        <time>2025-04-11T13:17:44.000Z</time>
      </trkpt>
      <trkpt lat="44.33838" lon="4.13027">
        <ele>308</ele>
        <time>2025-04-11T13:17:52.000Z</time>
      </trkpt>
      <trkpt lat="44.33838" lon="4.1304">
        <ele>308</ele>
        <time>2025-04-11T13:17:59.000Z</time>
      </trkpt>
      <trkpt lat="44.33834" lon="4.13052">
        <ele>308</ele>
        <time>2025-04-11T13:18:08.000Z</time>
      </trkpt>
      <trkpt lat="44.33827" lon="4.1306">
        <ele>308</ele>
        <time>2025-04-11T13:18:13.000Z</time>
      </trkpt>
      <trkpt lat="44.33818" lon="4.13064">
        <ele>307</ele>
        <time>2025-04-11T13:18:20.000Z</time>
      </trkpt>
      <trkpt lat="44.33808" lon="4.13067">
        <ele>306</ele>
        <time>2025-04-11T13:18:28.000Z</time>
      </trkpt>
      <trkpt lat="44.33799" lon="4.1307">
        <ele>305</ele>
        <time>2025-04-11T13:18:36.000Z</time>
      </trkpt>
      <trkpt lat="44.33791" lon="4.13076">
        <ele>305</ele>
        <time>2025-04-11T13:18:43.000Z</time>
      </trkpt>
      <trkpt lat="44.33785" lon="4.13085">
        <ele>304</ele>
        <time>2025-04-11T13:18:52.000Z</time>
      </trkpt>
      <trkpt lat="44.3378" lon="4.13097">
        <ele>304</ele>
        <time>2025-04-11T13:19:00.000Z</time>
      </trkpt>
      <trkpt lat="44.33777" lon="4.1311">
        <ele>303</ele>
        <time>2025-04-11T13:19:08.000Z</time>
      </trkpt>
      <trkpt lat="44.33779" lon="4.13124">
        <ele>303</ele>
        <time>2025-04-11T13:19:16.000Z</time>
      </trkpt>
      <trkpt lat="44.33784" lon="4.13137">
        <ele>302</ele>
        <time>2025-04-11T13:19:26.000Z</time>
      </trkpt>
      <trkpt lat="44.33788" lon="4.1315">
        <ele>302</ele>
        <time>2025-04-11T13:19:34.000Z</time>
      </trkpt>
      <trkpt lat="44.33792" lon="4.13163">
        <ele>302</ele>
        <time>2025-04-11T13:19:42.000Z</time>
      </trkpt>
      <trkpt lat="44.33796" lon="4.13177">
        <ele>303</ele>
        <time>2025-04-11T13:19:50.000Z</time>
      </trkpt>
      <trkpt lat="44.33795" lon="4.13189">
        <ele>303</ele>
        <time>2025-04-11T13:19:58.000Z</time>
      </trkpt>
      <trkpt lat="44.33788" lon="4.13197">
        <ele>303</ele>
        <time>2025-04-11T13:20:04.000Z</time>
      </trkpt>
      <trkpt lat="44.33779" lon="4.13201">
        <ele>302</ele>
        <time>2025-04-11T13:20:10.000Z</time>
      </trkpt>
      <trkpt lat="44.3377" lon="4.13201">
        <ele>302</ele>
        <time>2025-04-11T13:20:16.000Z</time>
      </trkpt>
      <trkpt lat="44.33762" lon="4.13197">
        <ele>301</ele>
        <time>2025-04-11T13:20:22.000Z</time>
      </trkpt>
      <trkpt lat="44.33754" lon="4.13188">
        <ele>302</ele>
        <time>2025-04-11T13:20:29.000Z</time>
      </trkpt>
      <trkpt lat="44.33745" lon="4.13182">
        <ele>302</ele>
        <time>2025-04-11T13:20:38.000Z</time>
      </trkpt>
      <trkpt lat="44.33735" lon="4.13179">
        <ele>304</ele>
        <time>2025-04-11T13:20:46.000Z</time>
      </trkpt>
      <trkpt lat="44.33725" lon="4.13177">
        <ele>305</ele>
        <time>2025-04-11T13:20:54.000Z</time>
      </trkpt>
      <trkpt lat="44.33715" lon="4.1318">
        <ele>305</ele>
        <time>2025-04-11T13:21:03.000Z</time>
      </trkpt>
      <trkpt lat="44.33707" lon="4.13187">
        <ele>306</ele>
        <time>2025-04-11T13:21:12.000Z</time>
      </trkpt>
      <trkpt lat="44.337" lon="4.13195">
        <ele>306</ele>
        <time>2025-04-11T13:21:20.000Z</time>
      </trkpt>
      <trkpt lat="44.33692" lon="4.13204">
        <ele>307</ele>
        <time>2025-04-11T13:21:28.000Z</time>
      </trkpt>
      <trkpt lat="44.33685" lon="4.13212">
        <ele>307</ele>
        <time>2025-04-11T13:21:36.000Z</time>
      </trkpt>
      <trkpt lat="44.33677" lon="4.13221">
        <ele>308</ele>
        <time>2025-04-11T13:21:44.000Z</time>
      </trkpt>
      <trkpt lat="44.3367" lon="4.1323">
        <ele>308</ele>
        <time>2025-04-11T13:21:52.000Z</time>
      </trkpt>
      <trkpt lat="44.33662" lon="4.1324">
        <ele>308</ele>
        <time>2025-04-11T13:22:00.000Z</time>
      </trkpt>
      <trkpt lat="44.33654" lon="4.13247">
        <ele>308</ele>
        <time>2025-04-11T13:22:08.000Z</time>
      </trkpt>
      <trkpt lat="44.33646" lon="4.13255">
        <ele>307</ele>
        <time>2025-04-11T13:22:16.000Z</time>
      </trkpt>
      <trkpt lat="44.33639" lon="4.13264">
        <ele>307</ele>
        <time>2025-04-11T13:22:25.000Z</time>
      </trkpt>
      <trkpt lat="44.33631" lon="4.13272">
        <ele>306</ele>
        <time>2025-04-11T13:22:33.000Z</time>
      </trkpt>
      <trkpt lat="44.33624" lon="4.13281">
        <ele>305</ele>
        <time>2025-04-11T13:22:42.000Z</time>
      </trkpt>
      <trkpt lat="44.33618" lon="4.13291">
        <ele>304</ele>
        <time>2025-04-11T13:22:50.000Z</time>
      </trkpt>
      <trkpt lat="44.33616" lon="4.13303">
        <ele>304</ele>
        <time>2025-04-11T13:22:58.000Z</time>
      </trkpt>
      <trkpt lat="44.33615" lon="4.13315">
        <ele>303</ele>
        <time>2025-04-11T13:23:05.000Z</time>
      </trkpt>
      <trkpt lat="44.33617" lon="4.13328">
        <ele>302</ele>
        <time>2025-04-11T13:23:14.000Z</time>
      </trkpt>
      <trkpt lat="44.33622" lon="4.1334">
        <ele>301</ele>
        <time>2025-04-11T13:23:21.000Z</time>
      </trkpt>
      <trkpt lat="44.33628" lon="4.1335">
        <ele>301</ele>
        <time>2025-04-11T13:23:30.000Z</time>
      </trkpt>
      <trkpt lat="44.3363" lon="4.13362">
        <ele>301</ele>
        <time>2025-04-11T13:23:38.000Z</time>
      </trkpt>
      <trkpt lat="44.33633" lon="4.13375">
        <ele>301</ele>
        <time>2025-04-11T13:23:46.000Z</time>
      </trkpt>
      <trkpt lat="44.33636" lon="4.13388">
        <ele>302</ele>
        <time>2025-04-11T13:23:53.000Z</time>
      </trkpt>
      <trkpt lat="44.33636" lon="4.134">
        <ele>303</ele>
        <time>2025-04-11T13:24:02.000Z</time>
      </trkpt>
      <trkpt lat="44.3363" lon="4.1341">
        <ele>304</ele>
        <time>2025-04-11T13:24:08.000Z</time>
      </trkpt>
      <trkpt lat="44.33621" lon="4.13417">
        <ele>304</ele>
        <time>2025-04-11T13:24:14.000Z</time>
      </trkpt>
      <trkpt lat="44.33612" lon="4.13419">
        <ele>304</ele>
        <time>2025-04-11T13:24:20.000Z</time>
      </trkpt>
      <trkpt lat="44.33602" lon="4.13415">
        <ele>303</ele>
        <time>2025-04-11T13:24:28.000Z</time>
      </trkpt>
      <trkpt lat="44.33592" lon="4.13409">
        <ele>301</ele>
        <time>2025-04-11T13:24:36.000Z</time>
      </trkpt>
      <trkpt lat="44.33585" lon="4.13401">
        <ele>300</ele>
        <time>2025-04-11T13:24:44.000Z</time>
      </trkpt>
      <trkpt lat="44.33577" lon="4.13394">
        <ele>299</ele>
        <time>2025-04-11T13:24:52.000Z</time>
      </trkpt>
      <trkpt lat="44.33568" lon="4.13388">
        <ele>299</ele>
        <time>2025-04-11T13:25:00.000Z</time>
      </trkpt>
      <trkpt lat="44.3356" lon="4.13382">
        <ele>300</ele>
        <time>2025-04-11T13:25:08.000Z</time>
      </trkpt>
      <trkpt lat="44.3355" lon="4.13378">
        <ele>301</ele>
        <time>2025-04-11T13:25:17.000Z</time>
      </trkpt>
      <trkpt lat="44.3354" lon="4.13376">
        <ele>302</ele>
        <time>2025-04-11T13:25:26.000Z</time>
      </trkpt>
      <trkpt lat="44.3353" lon="4.13373">
        <ele>303</ele>
        <time>2025-04-11T13:25:33.000Z</time>
      </trkpt>
      <trkpt lat="44.3352" lon="4.13372">
        <ele>304</ele>
        <time>2025-04-11T13:25:41.000Z</time>
      </trkpt>
      <trkpt lat="44.3351" lon="4.13376">
        <ele>305</ele>
        <time>2025-04-11T13:25:50.000Z</time>
      </trkpt>
      <trkpt lat="44.33501" lon="4.13379">
        <ele>305</ele>
        <time>2025-04-11T13:26:00.000Z</time>
      </trkpt>
      <trkpt lat="44.33492" lon="4.13378">
        <ele>306</ele>
        <time>2025-04-11T13:26:05.000Z</time>
      </trkpt>
      <trkpt lat="44.33485" lon="4.13386">
        <ele>306</ele>
        <time>2025-04-11T13:26:14.000Z</time>
      </trkpt>
      <trkpt lat="44.33479" lon="4.13396">
        <ele>307</ele>
        <time>2025-04-11T13:26:22.000Z</time>
      </trkpt>
      <trkpt lat="44.33473" lon="4.13404">
        <ele>307</ele>
        <time>2025-04-11T13:26:30.000Z</time>
      </trkpt>
      <trkpt lat="44.33464" lon="4.13407">
        <ele>306</ele>
        <time>2025-04-11T13:26:36.000Z</time>
      </trkpt>
      <trkpt lat="44.33454" lon="4.1341">
        <ele>305</ele>
        <time>2025-04-11T13:26:46.000Z</time>
      </trkpt>
      <trkpt lat="44.33447" lon="4.13403">
        <ele>303</ele>
        <time>2025-04-11T13:26:58.000Z</time>
      </trkpt>
      <trkpt lat="44.33445" lon="4.13391">
        <ele>301</ele>
        <time>2025-04-11T13:28:42.000Z</time>
      </trkpt>
      <trkpt lat="44.3344" lon="4.13378">
        <ele>299</ele>
        <time>2025-04-11T13:29:04.000Z</time>
      </trkpt>
      <trkpt lat="44.33434" lon="4.13369">
        <ele>297</ele>
        <time>2025-04-11T13:29:12.000Z</time>
      </trkpt>
      <trkpt lat="44.33428" lon="4.13359">
        <ele>296</ele>
        <time>2025-04-11T13:29:20.000Z</time>
      </trkpt>
      <trkpt lat="44.33419" lon="4.13352">
        <ele>296</ele>
        <time>2025-04-11T13:29:30.000Z</time>
      </trkpt>
      <trkpt lat="44.33409" lon="4.13349">
        <ele>296</ele>
        <time>2025-04-11T13:29:38.000Z</time>
      </trkpt>
      <trkpt lat="44.334" lon="4.13352">
        <ele>296</ele>
        <time>2025-04-11T13:29:46.000Z</time>
      </trkpt>
      <trkpt lat="44.33393" lon="4.13361">
        <ele>297</ele>
        <time>2025-04-11T13:29:54.000Z</time>
      </trkpt>
      <trkpt lat="44.33389" lon="4.13373">
        <ele>297</ele>
        <time>2025-04-11T13:30:02.000Z</time>
      </trkpt>
      <trkpt lat="44.33387" lon="4.13386">
        <ele>298</ele>
        <time>2025-04-11T13:30:10.000Z</time>
      </trkpt>
      <trkpt lat="44.33383" lon="4.13398">
        <ele>300</ele>
        <time>2025-04-11T13:30:18.000Z</time>
      </trkpt>
      <trkpt lat="44.33375" lon="4.13408">
        <ele>301</ele>
        <time>2025-04-11T13:30:25.000Z</time>
      </trkpt>
      <trkpt lat="44.33365" lon="4.13411">
        <ele>302</ele>
        <time>2025-04-11T13:30:34.000Z</time>
      </trkpt>
      <trkpt lat="44.33355" lon="4.13411">
        <ele>303</ele>
        <time>2025-04-11T13:30:42.000Z</time>
      </trkpt>
      <trkpt lat="44.33345" lon="4.13408">
        <ele>304</ele>
        <time>2025-04-11T13:30:50.000Z</time>
      </trkpt>
      <trkpt lat="44.33335" lon="4.13404">
        <ele>304</ele>
        <time>2025-04-11T13:30:58.000Z</time>
      </trkpt>
      <trkpt lat="44.33326" lon="4.13401">
        <ele>304</ele>
        <time>2025-04-11T13:31:06.000Z</time>
      </trkpt>
      <trkpt lat="44.33318" lon="4.13407">
        <ele>303</ele>
        <time>2025-04-11T13:31:14.000Z</time>
      </trkpt>
      <trkpt lat="44.33308" lon="4.13414">
        <ele>303</ele>
        <time>2025-04-11T13:31:22.000Z</time>
      </trkpt>
      <trkpt lat="44.33301" lon="4.13423">
        <ele>302</ele>
        <time>2025-04-11T13:31:32.000Z</time>
      </trkpt>
      <trkpt lat="44.33293" lon="4.13433">
        <ele>302</ele>
        <time>2025-04-11T13:31:40.000Z</time>
      </trkpt>
      <trkpt lat="44.33286" lon="4.13442">
        <ele>302</ele>
        <time>2025-04-11T13:31:48.000Z</time>
      </trkpt>
      <trkpt lat="44.33279" lon="4.13453">
        <ele>302</ele>
        <time>2025-04-11T13:31:55.000Z</time>
      </trkpt>
      <trkpt lat="44.33272" lon="4.13462">
        <ele>302</ele>
        <time>2025-04-11T13:32:04.000Z</time>
      </trkpt>
      <trkpt lat="44.33267" lon="4.13474">
        <ele>302</ele>
        <time>2025-04-11T13:32:12.000Z</time>
      </trkpt>
      <trkpt lat="44.3326" lon="4.13484">
        <ele>302</ele>
        <time>2025-04-11T13:32:20.000Z</time>
      </trkpt>
      <trkpt lat="44.33253" lon="4.13495">
        <ele>302</ele>
        <time>2025-04-11T13:32:27.000Z</time>
      </trkpt>
      <trkpt lat="44.33248" lon="4.13505">
        <ele>301</ele>
        <time>2025-04-11T13:32:36.000Z</time>
      </trkpt>
      <trkpt lat="44.33243" lon="4.13516">
        <ele>301</ele>
        <time>2025-04-11T13:32:44.000Z</time>
      </trkpt>
      <trkpt lat="44.33237" lon="4.13528">
        <ele>300</ele>
        <time>2025-04-11T13:32:51.000Z</time>
      </trkpt>
      <trkpt lat="44.33233" lon="4.13541">
        <ele>300</ele>
        <time>2025-04-11T13:33:00.000Z</time>
      </trkpt>
      <trkpt lat="44.33229" lon="4.13554">
        <ele>300</ele>
        <time>2025-04-11T13:33:08.000Z</time>
      </trkpt>
      <trkpt lat="44.33224" lon="4.13565">
        <ele>300</ele>
        <time>2025-04-11T13:33:16.000Z</time>
      </trkpt>
      <trkpt lat="44.33221" lon="4.13578">
        <ele>300</ele>
        <time>2025-04-11T13:33:24.000Z</time>
      </trkpt>
      <trkpt lat="44.33215" lon="4.1359">
        <ele>301</ele>
        <time>2025-04-11T13:33:33.000Z</time>
      </trkpt>
      <trkpt lat="44.33208" lon="4.136">
        <ele>302</ele>
        <time>2025-04-11T13:33:52.000Z</time>
      </trkpt>
      <trkpt lat="44.33199" lon="4.13605">
        <ele>302</ele>
        <time>2025-04-11T13:33:58.000Z</time>
      </trkpt>
      <trkpt lat="44.3319" lon="4.13607">
        <ele>303</ele>
        <time>2025-04-11T13:34:08.000Z</time>
      </trkpt>
      <trkpt lat="44.3318" lon="4.13609">
        <ele>303</ele>
        <time>2025-04-11T13:34:13.000Z</time>
      </trkpt>
      <trkpt lat="44.33172" lon="4.13613">
        <ele>304</ele>
        <time>2025-04-11T13:34:21.000Z</time>
      </trkpt>
      <trkpt lat="44.33163" lon="4.13619">
        <ele>303</ele>
        <time>2025-04-11T13:34:29.000Z</time>
      </trkpt>
      <trkpt lat="44.33155" lon="4.13628">
        <ele>303</ele>
        <time>2025-04-11T13:34:40.000Z</time>
      </trkpt>
      <trkpt lat="44.33147" lon="4.13633">
        <ele>302</ele>
        <time>2025-04-11T13:34:46.000Z</time>
      </trkpt>
      <trkpt lat="44.33142" lon="4.13643">
        <ele>302</ele>
        <time>2025-04-11T13:34:56.000Z</time>
      </trkpt>
      <trkpt lat="44.33139" lon="4.13657">
        <ele>301</ele>
        <time>2025-04-11T13:35:04.000Z</time>
      </trkpt>
      <trkpt lat="44.3314" lon="4.13671">
        <ele>301</ele>
        <time>2025-04-11T13:35:30.000Z</time>
      </trkpt>
      <trkpt lat="44.33141" lon="4.13686">
        <ele>300</ele>
        <time>2025-04-11T13:35:38.000Z</time>
      </trkpt>
      <trkpt lat="44.33141" lon="4.137">
        <ele>300</ele>
        <time>2025-04-11T13:35:48.000Z</time>
      </trkpt>
      <trkpt lat="44.33143" lon="4.13713">
        <ele>299</ele>
        <time>2025-04-11T13:35:54.000Z</time>
      </trkpt>
      <trkpt lat="44.33147" lon="4.13727">
        <ele>299</ele>
        <time>2025-04-11T13:36:02.000Z</time>
      </trkpt>
      <trkpt lat="44.33149" lon="4.13741">
        <ele>298</ele>
        <time>2025-04-11T13:36:10.000Z</time>
      </trkpt>
      <trkpt lat="44.33149" lon="4.13754">
        <ele>298</ele>
        <time>2025-04-11T13:36:18.000Z</time>
      </trkpt>
      <trkpt lat="44.33148" lon="4.13766">
        <ele>298</ele>
        <time>2025-04-11T13:36:30.000Z</time>
      </trkpt>
      <trkpt lat="44.33141" lon="4.13774">
        <ele>298</ele>
        <time>2025-04-11T13:36:38.000Z</time>
      </trkpt>
      <trkpt lat="44.33131" lon="4.13777">
        <ele>298</ele>
        <time>2025-04-11T13:36:46.000Z</time>
      </trkpt>
      <trkpt lat="44.33121" lon="4.13773">
        <ele>298</ele>
        <time>2025-04-11T13:36:54.000Z</time>
      </trkpt>
      <trkpt lat="44.33111" lon="4.13766">
        <ele>299</ele>
        <time>2025-04-11T13:37:02.000Z</time>
      </trkpt>
      <trkpt lat="44.33102" lon="4.13763">
        <ele>300</ele>
        <time>2025-04-11T13:37:10.000Z</time>
      </trkpt>
      <trkpt lat="44.33093" lon="4.13763">
        <ele>301</ele>
        <time>2025-04-11T13:37:18.000Z</time>
      </trkpt>
      <trkpt lat="44.33084" lon="4.13762">
        <ele>301</ele>
        <time>2025-04-11T13:37:26.000Z</time>
      </trkpt>
      <trkpt lat="44.33074" lon="4.13765">
        <ele>301</ele>
        <time>2025-04-11T13:37:34.000Z</time>
      </trkpt>
      <trkpt lat="44.33064" lon="4.1377">
        <ele>301</ele>
        <time>2025-04-11T13:37:42.000Z</time>
      </trkpt>
      <trkpt lat="44.33054" lon="4.13772">
        <ele>300</ele>
        <time>2025-04-11T13:37:52.000Z</time>
      </trkpt>
      <trkpt lat="44.33044" lon="4.13772">
        <ele>299</ele>
        <time>2025-04-11T13:38:00.000Z</time>
      </trkpt>
      <trkpt lat="44.33037" lon="4.13777">
        <ele>298</ele>
        <time>2025-04-11T13:38:08.000Z</time>
      </trkpt>
      <trkpt lat="44.33042" lon="4.13787">
        <ele>297</ele>
        <time>2025-04-11T13:38:22.000Z</time>
      </trkpt>
      <trkpt lat="44.33049" lon="4.13794">
        <ele>296</ele>
        <time>2025-04-11T13:39:03.000Z</time>
      </trkpt>
      <trkpt lat="44.33055" lon="4.13804">
        <ele>297</ele>
        <time>2025-04-11T13:39:12.000Z</time>
      </trkpt>
      <trkpt lat="44.33063" lon="4.13812">
        <ele>299</ele>
        <time>2025-04-11T13:39:23.000Z</time>
      </trkpt>
      <trkpt lat="44.33074" lon="4.13811">
        <ele>303</ele>
        <time>2025-04-11T13:39:30.000Z</time>
      </trkpt>
      <trkpt lat="44.33126" lon="4.13942">
        <ele>306</ele>
        <time>2025-04-11T13:39:42.000Z</time>
      </trkpt>
      <trkpt lat="44.33325" lon="4.14766">
        <ele>309</ele>
        <time>2025-04-11T13:53:13.000Z</time>
      </trkpt>
      <trkpt lat="44.33367" lon="4.14894">
        <ele>310</ele>
        <time>2025-04-11T13:53:17.000Z</time>
      </trkpt>
      <trkpt lat="44.33376" lon="4.14894">
        <ele>310</ele>
        <time>2025-04-11T13:53:27.000Z</time>
      </trkpt>
      <trkpt lat="44.3338" lon="4.14905">
        <ele>309</ele>
        <time>2025-04-11T13:53:35.000Z</time>
      </trkpt>
      <trkpt lat="44.33382" lon="4.14919">
        <ele>309</ele>
        <time>2025-04-11T13:53:45.000Z</time>
      </trkpt>
      <trkpt lat="44.33385" lon="4.14932">
        <ele>308</ele>
        <time>2025-04-11T13:53:53.000Z</time>
      </trkpt>
      <trkpt lat="44.3339" lon="4.14943">
        <ele>307</ele>
        <time>2025-04-11T13:54:00.000Z</time>
      </trkpt>
      <trkpt lat="44.33395" lon="4.14953">
        <ele>307</ele>
        <time>2025-04-11T13:54:09.000Z</time>
      </trkpt>
      <trkpt lat="44.33401" lon="4.14963">
        <ele>307</ele>
        <time>2025-04-11T13:54:17.000Z</time>
      </trkpt>
      <trkpt lat="44.33405" lon="4.14974">
        <ele>306</ele>
        <time>2025-04-11T13:54:25.000Z</time>
      </trkpt>
      <trkpt lat="44.33411" lon="4.14984">
        <ele>306</ele>
        <time>2025-04-11T13:54:33.000Z</time>
      </trkpt>
      <trkpt lat="44.33418" lon="4.14994">
        <ele>305</ele>
        <time>2025-04-11T13:54:43.000Z</time>
      </trkpt>
      <trkpt lat="44.33424" lon="4.15004">
        <ele>305</ele>
        <time>2025-04-11T13:54:53.000Z</time>
      </trkpt>
      <trkpt lat="44.33431" lon="4.15011">
        <ele>305</ele>
        <time>2025-04-11T13:55:03.000Z</time>
      </trkpt>
      <trkpt lat="44.33437" lon="4.15021">
        <ele>305</ele>
        <time>2025-04-11T13:55:11.000Z</time>
      </trkpt>
      <trkpt lat="44.33443" lon="4.1503">
        <ele>305</ele>
        <time>2025-04-11T13:55:19.000Z</time>
      </trkpt>
      <trkpt lat="44.3345" lon="4.15039">
        <ele>306</ele>
        <time>2025-04-11T13:55:27.000Z</time>
      </trkpt>
      <trkpt lat="44.33458" lon="4.15048">
        <ele>306</ele>
        <time>2025-04-11T13:55:35.000Z</time>
      </trkpt>
      <trkpt lat="44.33466" lon="4.15055">
        <ele>307</ele>
        <time>2025-04-11T13:55:42.000Z</time>
      </trkpt>
      <trkpt lat="44.33474" lon="4.15063">
        <ele>307</ele>
        <time>2025-04-11T13:55:51.000Z</time>
      </trkpt>
      <trkpt lat="44.33483" lon="4.1507">
        <ele>307</ele>
        <time>2025-04-11T13:55:59.000Z</time>
      </trkpt>
      <trkpt lat="44.33492" lon="4.15077">
        <ele>307</ele>
        <time>2025-04-11T13:56:07.000Z</time>
      </trkpt>
      <trkpt lat="44.33499" lon="4.15085">
        <ele>307</ele>
        <time>2025-04-11T13:56:15.000Z</time>
      </trkpt>
      <trkpt lat="44.33507" lon="4.15091">
        <ele>307</ele>
        <time>2025-04-11T13:56:23.000Z</time>
      </trkpt>
      <trkpt lat="44.33516" lon="4.15099">
        <ele>308</ele>
        <time>2025-04-11T13:56:31.000Z</time>
      </trkpt>
      <trkpt lat="44.33524" lon="4.15105">
        <ele>308</ele>
        <time>2025-04-11T13:56:39.000Z</time>
      </trkpt>
      <trkpt lat="44.33533" lon="4.15111">
        <ele>308</ele>
        <time>2025-04-11T13:56:47.000Z</time>
      </trkpt>
      <trkpt lat="44.33542" lon="4.15117">
        <ele>308</ele>
        <time>2025-04-11T13:56:54.000Z</time>
      </trkpt>
      <trkpt lat="44.3355" lon="4.15123">
        <ele>308</ele>
        <time>2025-04-11T13:57:03.000Z</time>
      </trkpt>
      <trkpt lat="44.33558" lon="4.15128">
        <ele>309</ele>
        <time>2025-04-11T13:57:11.000Z</time>
      </trkpt>
      <trkpt lat="44.33567" lon="4.15134">
        <ele>309</ele>
        <time>2025-04-11T13:57:19.000Z</time>
      </trkpt>
      <trkpt lat="44.33576" lon="4.15141">
        <ele>309</ele>
        <time>2025-04-11T13:57:27.000Z</time>
      </trkpt>
      <trkpt lat="44.33584" lon="4.15149">
        <ele>309</ele>
        <time>2025-04-11T13:57:35.000Z</time>
      </trkpt>
      <trkpt lat="44.33588" lon="4.15161">
        <ele>309</ele>
        <time>2025-04-11T14:00:13.000Z</time>
      </trkpt>
      <trkpt lat="44.33595" lon="4.15168">
        <ele>309</ele>
        <time>2025-04-11T14:00:26.000Z</time>
      </trkpt>
      <trkpt lat="44.33605" lon="4.15171">
        <ele>310</ele>
        <time>2025-04-11T14:00:35.000Z</time>
      </trkpt>
      <trkpt lat="44.33614" lon="4.15175">
        <ele>311</ele>
        <time>2025-04-11T14:00:45.000Z</time>
      </trkpt>
      <trkpt lat="44.33624" lon="4.15179">
        <ele>312</ele>
        <time>2025-04-11T14:01:12.000Z</time>
      </trkpt>
      <trkpt lat="44.33633" lon="4.15181">
        <ele>312</ele>
        <time>2025-04-11T14:03:03.000Z</time>
      </trkpt>
      <trkpt lat="44.33639" lon="4.1519">
        <ele>312</ele>
        <time>2025-04-11T14:03:09.000Z</time>
      </trkpt>
      <trkpt lat="44.33647" lon="4.152">
        <ele>312</ele>
        <time>2025-04-11T14:03:13.000Z</time>
      </trkpt>
      <trkpt lat="44.33655" lon="4.15211">
        <ele>311</ele>
        <time>2025-04-11T14:03:19.000Z</time>
      </trkpt>
      <trkpt lat="44.33663" lon="4.1522">
        <ele>311</ele>
        <time>2025-04-11T14:03:29.000Z</time>
      </trkpt>
      <trkpt lat="44.33671" lon="4.15226">
        <ele>311</ele>
        <time>2025-04-11T14:03:41.000Z</time>
      </trkpt>
      <trkpt lat="44.33681" lon="4.15228">
        <ele>311</ele>
        <time>2025-04-11T14:03:49.000Z</time>
      </trkpt>
      <trkpt lat="44.33691" lon="4.15227">
        <ele>311</ele>
        <time>2025-04-11T14:03:57.000Z</time>
      </trkpt>
      <trkpt lat="44.33701" lon="4.15227">
        <ele>311</ele>
        <time>2025-04-11T14:04:05.000Z</time>
      </trkpt>
      <trkpt lat="44.3371" lon="4.15229">
        <ele>311</ele>
        <time>2025-04-11T14:04:15.000Z</time>
      </trkpt>
      <trkpt lat="44.3372" lon="4.15229">
        <ele>312</ele>
        <time>2025-04-11T14:04:25.000Z</time>
      </trkpt>
      <trkpt lat="44.33729" lon="4.15234">
        <ele>312</ele>
        <time>2025-04-11T14:04:33.000Z</time>
      </trkpt>
      <trkpt lat="44.33734" lon="4.15244">
        <ele>312</ele>
        <time>2025-04-11T14:04:42.000Z</time>
      </trkpt>
      <trkpt lat="44.33733" lon="4.15256">
        <ele>312</ele>
        <time>2025-04-11T14:04:52.000Z</time>
      </trkpt>
      <trkpt lat="44.33733" lon="4.15268">
        <ele>311</ele>
        <time>2025-04-11T14:05:05.000Z</time>
      </trkpt>
      <trkpt lat="44.33738" lon="4.15277">
        <ele>311</ele>
        <time>2025-04-11T14:05:13.000Z</time>
      </trkpt>
      <trkpt lat="44.33745" lon="4.15281">
        <ele>310</ele>
        <time>2025-04-11T14:05:31.000Z</time>
      </trkpt>
      <trkpt lat="44.3375" lon="4.1527">
        <ele>310</ele>
        <time>2025-04-11T14:14:09.000Z</time>
      </trkpt>
      <trkpt lat="44.33753" lon="4.15262">
        <ele>310</ele>
        <time>2025-04-11T14:14:14.000Z</time>
      </trkpt>
      <trkpt lat="44.33742" lon="4.15282">
        <ele>309</ele>
        <time>2025-04-11T14:14:49.000Z</time>
      </trkpt>
      <trkpt lat="44.33747" lon="4.15274">
        <ele>309</ele>
        <time>2025-04-11T14:16:39.000Z</time>
      </trkpt>
      <trkpt lat="44.33754" lon="4.15261">
        <ele>309</ele>
        <time>2025-04-11T14:16:59.000Z</time>
      </trkpt>
      <trkpt lat="44.33747" lon="4.15273">
        <ele>309</ele>
        <time>2025-04-11T14:17:29.000Z</time>
      </trkpt>
      <trkpt lat="44.33744" lon="4.15279">
        <ele>309</ele>
        <time>2025-04-11T14:17:34.000Z</time>
      </trkpt>
      <trkpt lat="44.33752" lon="4.15265">
        <ele>309</ele>
        <time>2025-04-11T14:17:44.000Z</time>
      </trkpt>
      <trkpt lat="44.33742" lon="4.15283">
        <ele>309</ele>
        <time>2025-04-11T14:18:35.000Z</time>
      </trkpt>
      <trkpt lat="44.33744" lon="4.15279">
        <ele>309</ele>
        <time>2025-04-11T14:18:50.000Z</time>
      </trkpt>
      <trkpt lat="44.3374" lon="4.15286">
        <ele>309</ele>
        <time>2025-04-11T14:19:05.000Z</time>
      </trkpt>
      <trkpt lat="44.33745" lon="4.15278">
        <ele>309</ele>
        <time>2025-04-11T14:19:08.000Z</time>
      </trkpt>
      <trkpt lat="44.33749" lon="4.15272">
        <ele>309</ele>
        <time>2025-04-11T14:19:20.000Z</time>
      </trkpt>
      <trkpt lat="44.33744" lon="4.15282">
        <ele>309</ele>
        <time>2025-04-11T14:19:28.000Z</time>
      </trkpt>
      <trkpt lat="44.33746" lon="4.15276">
        <ele>309</ele>
        <time>2025-04-11T14:21:00.000Z</time>
      </trkpt>
      <trkpt lat="44.33741" lon="4.15283">
        <ele>309</ele>
        <time>2025-04-11T14:21:15.000Z</time>
      </trkpt>
      <trkpt lat="44.33751" lon="4.15266">
        <ele>309</ele>
        <time>2025-04-11T14:21:40.000Z</time>
      </trkpt>
      <trkpt lat="44.33746" lon="4.15276">
        <ele>309</ele>
        <time>2025-04-11T14:21:50.000Z</time>
      </trkpt>
      <trkpt lat="44.33752" lon="4.15265">
        <ele>309</ele>
        <time>2025-04-11T14:26:01.000Z</time>
      </trkpt>
      <trkpt lat="44.33742" lon="4.15282">
        <ele>309</ele>
        <time>2025-04-11T14:27:01.000Z</time>
      </trkpt>
      <trkpt lat="44.33745" lon="4.15279">
        <ele>309</ele>
        <time>2025-04-11T14:27:06.000Z</time>
      </trkpt>
      <trkpt lat="44.33747" lon="4.15287">
        <ele>309</ele>
        <time>2025-04-11T14:27:40.000Z</time>
      </trkpt>
      <trkpt lat="44.33748" lon="4.15276">
        <ele>309</ele>
        <time>2025-04-11T14:29:01.000Z</time>
      </trkpt>
      <trkpt lat="44.33742" lon="4.15283">
        <ele>309</ele>
        <time>2025-04-11T14:29:46.000Z</time>
      </trkpt>
      <trkpt lat="44.33752" lon="4.15264">
        <ele>309</ele>
        <time>2025-04-11T14:30:32.000Z</time>
      </trkpt>
      <trkpt lat="44.33744" lon="4.15279">
        <ele>309</ele>
        <time>2025-04-11T14:30:57.000Z</time>
      </trkpt>
      <trkpt lat="44.33752" lon="4.15266">
        <ele>309</ele>
        <time>2025-04-11T14:31:52.000Z</time>
      </trkpt>
      <trkpt lat="44.33744" lon="4.15277">
        <ele>309</ele>
        <time>2025-04-11T14:32:27.000Z</time>
      </trkpt>
      <trkpt lat="44.33747" lon="4.15261">
        <ele>309</ele>
        <time>2025-04-11T14:32:47.000Z</time>
      </trkpt>
      <trkpt lat="44.33743" lon="4.15266">
        <ele>309</ele>
        <time>2025-04-11T14:32:53.000Z</time>
      </trkpt>
      <trkpt lat="44.3375" lon="4.15275">
        <ele>309</ele>
        <time>2025-04-11T14:33:06.000Z</time>
      </trkpt>
      <trkpt lat="44.33758" lon="4.15283">
        <ele>309</ele>
        <time>2025-04-11T14:33:30.000Z</time>
      </trkpt>
      <trkpt lat="44.33768" lon="4.15287">
        <ele>309</ele>
        <time>2025-04-11T14:33:37.000Z</time>
      </trkpt>
      <trkpt lat="44.33777" lon="4.15288">
        <ele>309</ele>
        <time>2025-04-11T14:33:46.000Z</time>
      </trkpt>
      <trkpt lat="44.33785" lon="4.15291">
        <ele>309</ele>
        <time>2025-04-11T14:33:58.000Z</time>
      </trkpt>
      <trkpt lat="44.33792" lon="4.15297">
        <ele>309</ele>
        <time>2025-04-11T14:34:12.000Z</time>
      </trkpt>
      <trkpt lat="44.33797" lon="4.15292">
        <ele>309</ele>
        <time>2025-04-11T14:35:12.000Z</time>
      </trkpt>
      <trkpt lat="44.33792" lon="4.15302">
        <ele>309</ele>
        <time>2025-04-11T14:35:40.000Z</time>
      </trkpt>
      <trkpt lat="44.33779" lon="4.15311">
        <ele>309</ele>
        <time>2025-04-11T14:35:54.000Z</time>
      </trkpt>
      <trkpt lat="44.33778" lon="4.15304">
        <ele>309</ele>
        <time>2025-04-11T14:36:02.000Z</time>
      </trkpt>
      <trkpt lat="44.33785" lon="4.15312">
        <ele>309</ele>
        <time>2025-04-11T14:36:16.000Z</time>
      </trkpt>
      <trkpt lat="44.33782" lon="4.15328">
        <ele>309</ele>
        <time>2025-04-11T14:36:24.000Z</time>
      </trkpt>
      <trkpt lat="44.33785" lon="4.15318">
        <ele>309</ele>
        <time>2025-04-11T14:36:29.000Z</time>
      </trkpt>
      <trkpt lat="44.33793" lon="4.15311">
        <ele>309</ele>
        <time>2025-04-11T14:36:52.000Z</time>
      </trkpt>
      <trkpt lat="44.33804" lon="4.15305">
        <ele>309</ele>
        <time>2025-04-11T14:36:54.000Z</time>
      </trkpt>
      <trkpt lat="44.33799" lon="4.1531">
        <ele>309</ele>
        <time>2025-04-11T14:37:04.000Z</time>
      </trkpt>
      <trkpt lat="44.33789" lon="4.15314">
        <ele>309</ele>
        <time>2025-04-11T14:37:10.000Z</time>
      </trkpt>
      <trkpt lat="44.33782" lon="4.15315">
        <ele>309</ele>
        <time>2025-04-11T14:37:12.000Z</time>
      </trkpt>
      <trkpt lat="44.33788" lon="4.15309">
        <ele>309</ele>
        <time>2025-04-11T14:37:50.000Z</time>
      </trkpt>
      <trkpt lat="44.338" lon="4.15297">
        <ele>309</ele>
        <time>2025-04-11T14:38:00.000Z</time>
      </trkpt>
      <trkpt lat="44.33798" lon="4.15289">
        <ele>309</ele>
        <time>2025-04-11T14:38:20.000Z</time>
      </trkpt>
      <trkpt lat="44.33795" lon="4.15297">
        <ele>309</ele>
        <time>2025-04-11T14:38:34.000Z</time>
      </trkpt>
      <trkpt lat="44.33793" lon="4.15308">
        <ele>309</ele>
        <time>2025-04-11T14:39:02.000Z</time>
      </trkpt>
      <trkpt lat="44.33798" lon="4.15303">
        <ele>309</ele>
        <time>2025-04-11T14:39:50.000Z</time>
      </trkpt>
      <trkpt lat="44.33799" lon="4.15292">
        <ele>309</ele>
        <time>2025-04-11T14:40:00.000Z</time>
      </trkpt>
      <trkpt lat="44.33787" lon="4.15287">
        <ele>309</ele>
        <time>2025-04-11T14:40:14.000Z</time>
      </trkpt>
      <trkpt lat="44.33769" lon="4.15284">
        <ele>309</ele>
        <time>2025-04-11T14:40:22.000Z</time>
      </trkpt>
      <trkpt lat="44.3376" lon="4.15289">
        <ele>309</ele>
        <time>2025-04-11T14:40:26.000Z</time>
      </trkpt>
      <trkpt lat="44.33765" lon="4.15301">
        <ele>309</ele>
        <time>2025-04-11T14:40:32.000Z</time>
      </trkpt>
      <trkpt lat="44.33773" lon="4.15316">
        <ele>309</ele>
        <time>2025-04-11T14:40:36.000Z</time>
      </trkpt>
      <trkpt lat="44.33774" lon="4.15337">
        <ele>309</ele>
        <time>2025-04-11T14:40:40.000Z</time>
      </trkpt>
      <trkpt lat="44.33778" lon="4.15356">
        <ele>309</ele>
        <time>2025-04-11T14:40:43.000Z</time>
      </trkpt>
      <trkpt lat="44.33781" lon="4.15371">
        <ele>309</ele>
        <time>2025-04-11T14:40:46.000Z</time>
      </trkpt>
      <trkpt lat="44.33785" lon="4.1538">
        <ele>309</ele>
        <time>2025-04-11T14:40:48.000Z</time>
      </trkpt>
      <trkpt lat="44.33788" lon="4.15368">
        <ele>309</ele>
        <time>2025-04-11T14:41:00.000Z</time>
      </trkpt>
      <trkpt lat="44.33789" lon="4.15331">
        <ele>309</ele>
        <time>2025-04-11T14:41:14.000Z</time>
      </trkpt>
      <trkpt lat="44.33793" lon="4.15308">
        <ele>309</ele>
        <time>2025-04-11T14:41:18.000Z</time>
      </trkpt>
      <trkpt lat="44.33796" lon="4.15311">
        <ele>309</ele>
        <time>2025-04-11T14:41:52.000Z</time>
      </trkpt>
      <trkpt lat="44.33794" lon="4.153">
        <ele>309</ele>
        <time>2025-04-11T14:42:26.000Z</time>
      </trkpt>
      <trkpt lat="44.33788" lon="4.1529">
        <ele>309</ele>
        <time>2025-04-11T14:42:36.000Z</time>
      </trkpt>
      <trkpt lat="44.3379" lon="4.1528">
        <ele>309</ele>
        <time>2025-04-11T14:42:47.000Z</time>
      </trkpt>
      <trkpt lat="44.33794" lon="4.15268">
        <ele>309</ele>
        <time>2025-04-11T14:42:54.000Z</time>
      </trkpt>
      <trkpt lat="44.33798" lon="4.15256">
        <ele>309</ele>
        <time>2025-04-11T14:43:02.000Z</time>
      </trkpt>
      <trkpt lat="44.33801" lon="4.15243">
        <ele>309</ele>
        <time>2025-04-11T14:43:10.000Z</time>
      </trkpt>
      <trkpt lat="44.33804" lon="4.1523">
        <ele>309</ele>
        <time>2025-04-11T14:43:18.000Z</time>
      </trkpt>
      <trkpt lat="44.33809" lon="4.15219">
        <ele>309</ele>
        <time>2025-04-11T14:43:28.000Z</time>
      </trkpt>
      <trkpt lat="44.33818" lon="4.15213">
        <ele>309</ele>
        <time>2025-04-11T14:43:50.000Z</time>
      </trkpt>
      <trkpt lat="44.33828" lon="4.15206">
        <ele>309</ele>
        <time>2025-04-11T14:43:58.000Z</time>
      </trkpt>
      <trkpt lat="44.33835" lon="4.15198">
        <ele>309</ele>
        <time>2025-04-11T14:44:04.000Z</time>
      </trkpt>
      <trkpt lat="44.33843" lon="4.1519">
        <ele>310</ele>
        <time>2025-04-11T14:44:14.000Z</time>
      </trkpt>
      <trkpt lat="44.33851" lon="4.15181">
        <ele>310</ele>
        <time>2025-04-11T14:44:22.000Z</time>
      </trkpt>
      <trkpt lat="44.33857" lon="4.15172">
        <ele>310</ele>
        <time>2025-04-11T14:44:32.000Z</time>
      </trkpt>
      <trkpt lat="44.33864" lon="4.15162">
        <ele>311</ele>
        <time>2025-04-11T14:44:41.000Z</time>
      </trkpt>
      <trkpt lat="44.3387" lon="4.15152">
        <ele>312</ele>
        <time>2025-04-11T14:44:52.000Z</time>
      </trkpt>
      <trkpt lat="44.33877" lon="4.15142">
        <ele>314</ele>
        <time>2025-04-11T14:45:02.000Z</time>
      </trkpt>
      <trkpt lat="44.33884" lon="4.15134">
        <ele>315</ele>
        <time>2025-04-11T14:45:13.000Z</time>
      </trkpt>
      <trkpt lat="44.33892" lon="4.15127">
        <ele>316</ele>
        <time>2025-04-11T14:45:26.000Z</time>
      </trkpt>
      <trkpt lat="44.33898" lon="4.15116">
        <ele>317</ele>
        <time>2025-04-11T14:45:37.000Z</time>
      </trkpt>
      <trkpt lat="44.33906" lon="4.15108">
        <ele>318</ele>
        <time>2025-04-11T14:45:48.000Z</time>
      </trkpt>
      <trkpt lat="44.33914" lon="4.15101">
        <ele>318</ele>
        <time>2025-04-11T14:45:54.000Z</time>
      </trkpt>
      <trkpt lat="44.33923" lon="4.15096">
        <ele>317</ele>
        <time>2025-04-11T14:46:02.000Z</time>
      </trkpt>
      <trkpt lat="44.33932" lon="4.1509">
        <ele>317</ele>
        <time>2025-04-11T14:46:12.000Z</time>
      </trkpt>
      <trkpt lat="44.33942" lon="4.1509">
        <ele>316</ele>
        <time>2025-04-11T14:46:18.000Z</time>
      </trkpt>
      <trkpt lat="44.33951" lon="4.15097">
        <ele>316</ele>
        <time>2025-04-11T14:46:30.000Z</time>
      </trkpt>
      <trkpt lat="44.33959" lon="4.15105">
        <ele>317</ele>
        <time>2025-04-11T14:46:38.000Z</time>
      </trkpt>
      <trkpt lat="44.33967" lon="4.15115">
        <ele>318</ele>
        <time>2025-04-11T14:46:48.000Z</time>
      </trkpt>
      <trkpt lat="44.33977" lon="4.15123">
        <ele>320</ele>
        <time>2025-04-11T14:46:58.000Z</time>
      </trkpt>
      <trkpt lat="44.33985" lon="4.1512">
        <ele>320</ele>
        <time>2025-04-11T14:47:08.000Z</time>
      </trkpt>
      <trkpt lat="44.33993" lon="4.1511">
        <ele>320</ele>
        <time>2025-04-11T14:47:22.000Z</time>
      </trkpt>
      <trkpt lat="44.34003" lon="4.15105">
        <ele>319</ele>
        <time>2025-04-11T14:47:28.000Z</time>
      </trkpt>
      <trkpt lat="44.34011" lon="4.15101">
        <ele>317</ele>
        <time>2025-04-11T14:47:34.000Z</time>
      </trkpt>
      <trkpt lat="44.34021" lon="4.15103">
        <ele>317</ele>
        <time>2025-04-11T14:47:46.000Z</time>
      </trkpt>
      <trkpt lat="44.3403" lon="4.15108">
        <ele>314</ele>
        <time>2025-04-11T14:47:56.000Z</time>
      </trkpt>
      <trkpt lat="44.34038" lon="4.15108">
        <ele>314</ele>
        <time>2025-04-11T14:48:07.000Z</time>
      </trkpt>
      <trkpt lat="44.34039" lon="4.15096">
        <ele>315</ele>
        <time>2025-04-11T14:49:14.000Z</time>
      </trkpt>
      <trkpt lat="44.34042" lon="4.15083">
        <ele>319</ele>
        <time>2025-04-11T14:49:20.000Z</time>
      </trkpt>
    </trkseg>
  </trk>
</gpx>